Darstellungsparameter: Aktuell verwendete Einstellungen:
Skalierung der Graphiken ... ?
xyx+y,   Skalierungsfaktor:      Skalierung: Modus: x, Faktor: 1
Darstellungszeitraum ... ?
Vom - - bis: - -   Zeitraum: 21.02.2019 - 20.08.2019
Min/Max/Avg-Anzeige ... ?
Zeige MMA aktuell
Zeige MMA Monat
Zeige MMA alles
Zeige --A aktuell
Zeige --A Monat
Zeige --A alles
Keine MMA-Anzeige
MMA:
Minimum Maximum Average (ber die Originaldaten)
MMA-Basis: 23.02.2003 - 16.08.2019
Quicknavigation für Darstellung... ?
Tage:      1T, 2T, 3T, 5T -1T -2T -3T -5T +1T +2T +3T +5T
Wochen: 1W, 2W, 3W -1W -2W -3W +1W +2W +3W
Monate: 1M, 3M, 6M -1M -3M -6M +1M +3M +6M
Jahre:    1J, 3J, 5J, 10J -1J -3J -5J -10J +1J +3J +5J +10J
Nutze für die Darstellung ... ?
Originaldaten oder Mittelwerte auf ...
Stundenbasis Tagesbasis Wochenbasis
Monatsbasis Jahresbasis      Datenbasis: Original-Daten
Darstellen als:
Statistik (Auto) Statistik J:M      Darstellung:
Zur Graphik,    zurück zur Übersicht aller Sensoren.
 
Tabellarische Datenbersicht: ?
 
Sensor: Nr:Datum:Temp:Feuchte:Taupunkt:
Aussen-T/F 1 21-02-2019 00:00:00 2.1 C 94 % 1.24 C
2 21-02-2019 00:05:00 1.9 C 95 % 1.19 C
3 21-02-2019 00:10:00 1.8 C 94 % 0.94 C
4 21-02-2019 00:15:00 1.7 C 94 % 0.84 C
5 21-02-2019 00:20:00 1.6 C 94 % 0.74 C
6 21-02-2019 00:25:00 1.5 C 94 % 0.64 C
7 21-02-2019 00:30:00 1.4 C 94 % 0.54 C
8 21-02-2019 00:35:00 1.4 C 95 % 0.69 C
9 21-02-2019 00:40:00 1.4 C 95 % 0.69 C
10 21-02-2019 00:45:00 1.3 C 95 % 0.59 C
11 21-02-2019 00:50:00 1.3 C 95 % 0.59 C
12 21-02-2019 00:55:00 1.5 C 95 % 0.79 C
13 21-02-2019 01:00:00 1.6 C 95 % 0.89 C
14 21-02-2019 01:05:00 1.6 C 95 % 0.89 C
15 21-02-2019 01:10:00 1.7 C 95 % 0.99 C
16 21-02-2019 01:15:00 1.7 C 95 % 0.99 C
17 21-02-2019 01:20:00 1.8 C 95 % 1.09 C
18 21-02-2019 01:25:00 1.7 C 95 % 0.99 C
19 21-02-2019 01:30:00 1.6 C 95 % 0.89 C
20 21-02-2019 01:35:00 1.3 C 95 % 0.59 C
21 21-02-2019 01:40:00 1.3 C 95 % 0.59 C
22 21-02-2019 01:45:00 1.3 C 95 % 0.59 C
23 21-02-2019 01:50:00 1.6 C 96 % 1.03 C
24 21-02-2019 01:55:00 1.8 C 96 % 1.23 C
25 21-02-2019 02:00:00 1.8 C 96 % 1.23 C
Sensor: Nr:Datum:Temp:Feuchte:Taupunkt:
Aussen-T/F 26 21-02-2019 02:05:00 1.8 C 96 % 1.23 C
27 21-02-2019 02:10:00 1.7 C 95 % 0.99 C
28 21-02-2019 02:15:00 1.4 C 95 % 0.69 C
29 21-02-2019 02:20:00 1.2 C 95 % 0.49 C
30 21-02-2019 02:25:00 0.9 C 95 % 0.19 C
31 21-02-2019 02:30:00 0.8 C 95 % 0.09 C
32 21-02-2019 02:35:00 0.7 C 95 % -0.01 C
33 21-02-2019 02:40:00 0.7 C 95 % -0.01 C
34 21-02-2019 02:45:00 0.6 C 95 % -0.11 C
35 21-02-2019 02:50:00 0.6 C 95 % -0.11 C
36 21-02-2019 02:55:00 0.6 C 95 % -0.11 C
37 21-02-2019 03:00:00 0.7 C 96 % 0.14 C
38 21-02-2019 03:05:00 0.7 C 96 % 0.14 C
39 21-02-2019 03:10:00 0.7 C 95 % -0.01 C
40 21-02-2019 03:15:00 0.7 C 96 % 0.14 C
41 21-02-2019 03:20:00 0.7 C 96 % 0.14 C
42 21-02-2019 03:25:00 0.6 C 96 % 0.04 C
43 21-02-2019 03:30:00 0.7 C 96 % 0.14 C
44 21-02-2019 03:35:00 0.7 C 96 % 0.14 C
45 21-02-2019 03:40:00 0.8 C 96 % 0.24 C
46 21-02-2019 03:45:00 0.8 C 96 % 0.24 C
47 21-02-2019 03:50:00 0.8 C 96 % 0.24 C
48 21-02-2019 03:55:00 1 C 96 % 0.44 C
49 21-02-2019 04:00:00 1.1 C 96 % 0.54 C
50 21-02-2019 04:05:00 1.2 C 96 % 0.63 C
Sensor: Nr:Datum:Temp:Feuchte:Taupunkt:
Aussen-T/F 51 21-02-2019 04:10:00 1.1 C 96 % 0.54 C
52 21-02-2019 04:15:00 0.9 C 96 % 0.34 C
53 21-02-2019 04:20:00 0.8 C 96 % 0.24 C
54 21-02-2019 04:25:00 0.8 C 96 % 0.24 C
55 21-02-2019 04:30:00 0.8 C 96 % 0.24 C
56 21-02-2019 04:35:00 0.9 C 96 % 0.34 C
57 21-02-2019 04:40:00 0.9 C 96 % 0.34 C
58 21-02-2019 04:45:00 0.9 C 96 % 0.34 C
59 21-02-2019 04:50:00 0.8 C 96 % 0.24 C
60 21-02-2019 04:55:00 0.8 C 96 % 0.24 C
61 21-02-2019 05:00:00 0.7 C 96 % 0.14 C
62 21-02-2019 05:05:00 0.6 C 96 % 0.04 C
63 21-02-2019 05:10:00 0.6 C 96 % 0.04 C
64 21-02-2019 05:15:00 0.5 C 96 % -0.06 C
65 21-02-2019 05:20:00 0.5 C 96 % -0.06 C
66 21-02-2019 05:25:00 0.7 C 96 % 0.14 C
67 21-02-2019 05:30:00 0.9 C 96 % 0.34 C
68 21-02-2019 05:35:00 1.2 C 96 % 0.63 C
69 21-02-2019 05:40:00 1.6 C 97 % 1.18 C
70 21-02-2019 05:45:00 1.8 C 97 % 1.38 C
71 21-02-2019 05:50:00 1.8 C 97 % 1.38 C
72 21-02-2019 05:55:00 1.9 C 97 % 1.48 C
73 21-02-2019 06:00:00 1.9 C 97 % 1.48 C
74 21-02-2019 06:05:00 1.9 C 97 % 1.48 C
75 21-02-2019 06:10:00 1.8 C 97 % 1.38 C
Sensor: Nr:Datum:Temp:Feuchte:Taupunkt:
Aussen-T/F 76 21-02-2019 06:15:00 1.7 C 96 % 1.13 C
77 21-02-2019 06:20:00 1.4 C 96 % 0.83 C
78 21-02-2019 06:25:00 1.3 C 96 % 0.73 C
79 21-02-2019 06:30:00 1.2 C 96 % 0.63 C
80 21-02-2019 06:35:00 1 C 96 % 0.44 C
81 21-02-2019 06:40:00 0.8 C 96 % 0.24 C
82 21-02-2019 06:45:00 0.7 C 96 % 0.14 C
83 21-02-2019 06:50:00 0.6 C 96 % 0.04 C
84 21-02-2019 06:55:00 0.7 C 96 % 0.14 C
85 21-02-2019 07:00:00 0.7 C 96 % 0.14 C
86 21-02-2019 07:05:00 0.8 C 96 % 0.24 C
87 21-02-2019 07:10:00 1.1 C 96 % 0.54 C
88 21-02-2019 07:15:00 1.2 C 96 % 0.63 C
89 21-02-2019 07:20:00 1.3 C 97 % 0.88 C
90 21-02-2019 07:25:00 1.3 C 97 % 0.88 C
91 21-02-2019 07:30:00 1.3 C 97 % 0.88 C
92 21-02-2019 07:35:00 1.3 C 97 % 0.88 C
93 21-02-2019 07:40:00 1.3 C 97 % 0.88 C
94 21-02-2019 07:45:00 1.4 C 96 % 0.83 C
95 21-02-2019 07:50:00 1.4 C 96 % 0.83 C
96 21-02-2019 07:55:00 1.5 C 96 % 0.93 C
97 21-02-2019 08:00:00 1.6 C 97 % 1.18 C
98 21-02-2019 08:05:00 1.7 C 97 % 1.28 C
99 21-02-2019 08:10:00 1.8 C 97 % 1.38 C
100 21-02-2019 08:15:00 1.9 C 97 % 1.48 C
Sensor: Nr:Datum:Temp:Feuchte:Taupunkt:
Aussen-T/F 101 21-02-2019 08:20:00 2.1 C 97 % 1.67 C
102 21-02-2019 08:25:00 2.1 C 97 % 1.67 C
103 21-02-2019 08:30:00 2.2 C 97 % 1.77 C
104 21-02-2019 08:35:00 2.3 C 97 % 1.87 C
105 21-02-2019 08:40:00 2.3 C 97 % 1.87 C
106 21-02-2019 08:45:00 2.4 C 97 % 1.97 C
107 21-02-2019 08:50:00 2.4 C 97 % 1.97 C
108 21-02-2019 08:55:00 2.5 C 97 % 2.07 C
109 21-02-2019 09:00:00 2.6 C 97 % 2.17 C
110 21-02-2019 09:05:00 2.6 C 97 % 2.17 C
111 21-02-2019 09:10:00 2.7 C 97 % 2.27 C
112 21-02-2019 09:15:00 2.7 C 97 % 2.27 C
113 21-02-2019 09:20:00 2.8 C 97 % 2.37 C
114 21-02-2019 09:25:00 2.8 C 97 % 2.37 C
115 21-02-2019 09:30:00 2.8 C 97 % 2.37 C
116 21-02-2019 09:35:00 2.9 C 97 % 2.47 C
117 21-02-2019 09:40:00 2.9 C 97 % 2.47 C
118 21-02-2019 09:45:00 3 C 97 % 2.57 C
119 21-02-2019 09:50:00 3.1 C 97 % 2.67 C
120 21-02-2019 09:55:00 3.2 C 97 % 2.77 C
121 21-02-2019 10:00:00 3.2 C 97 % 2.77 C
122 21-02-2019 10:05:00 3.3 C 97 % 2.87 C
123 21-02-2019 10:10:00 3.4 C 97 % 2.97 C
124 21-02-2019 10:15:00 3.7 C 97 % 3.27 C
125 21-02-2019 10:20:00 3.8 C 97 % 3.37 C
Sensor: Nr:Datum:Temp:Feuchte:Taupunkt:
Aussen-T/F 126 21-02-2019 10:25:00 3.9 C 97 % 3.47 C
127 21-02-2019 10:30:00 4 C 97 % 3.57 C
128 21-02-2019 10:35:00 4.2 C 97 % 3.77 C
129 21-02-2019 10:40:00 4.2 C 97 % 3.77 C
130 21-02-2019 10:45:00 4.3 C 97 % 3.87 C
131 21-02-2019 10:50:00 4.4 C 97 % 3.97 C
132 21-02-2019 10:55:00 4.6 C 97 % 4.17 C
133 21-02-2019 11:00:00 4.8 C 97 % 4.37 C
134 21-02-2019 11:05:00 4.9 C 96 % 4.32 C
135 21-02-2019 11:10:00 5.1 C 96 % 4.52 C
136 21-02-2019 11:15:00 5.3 C 96 % 4.72 C
137 21-02-2019 11:20:00 5.4 C 96 % 4.81 C
138 21-02-2019 11:25:00 5.6 C 95 % 4.86 C
139 21-02-2019 11:30:00 5.7 C 95 % 4.96 C
140 21-02-2019 11:35:00 5.9 C 95 % 5.16 C
141 21-02-2019 11:40:00 6.2 C 94 % 5.31 C
142 21-02-2019 11:45:00 6.4 C 93 % 5.35 C
143 21-02-2019 11:50:00 6.6 C 93 % 5.55 C
144 21-02-2019 11:55:00 6.8 C 92 % 5.59 C
145 21-02-2019 12:00:00 7 C 92 % 5.79 C
146 21-02-2019 12:05:00 7.2 C 92 % 5.99 C
147 21-02-2019 12:10:00 7.4 C 91 % 6.03 C
148 21-02-2019 12:15:00 7.7 C 91 % 6.33 C
149 21-02-2019 12:20:00 7.8 C 90 % 6.27 C
150 21-02-2019 12:25:00 8.1 C 90 % 6.56 C
Sensor: Nr:Datum:Temp:Feuchte:Taupunkt:
Aussen-T/F 151 21-02-2019 12:30:00 8.3 C 90 % 6.76 C
152 21-02-2019 12:35:00 8.5 C 90 % 6.96 C
153 21-02-2019 12:40:00 8.8 C 90 % 7.25 C
154 21-02-2019 12:45:00 9.3 C 89 % 7.58 C
155 21-02-2019 12:50:00 9.8 C 87 % 7.74 C
156 21-02-2019 12:55:00 10.1 C 86 % 7.87 C
157 21-02-2019 13:00:00 10.3 C 85 % 7.89 C
158 21-02-2019 13:05:00 10.5 C 84 % 7.91 C
159 21-02-2019 13:10:00 10.7 C 84 % 8.11 C
160 21-02-2019 13:15:00 10.8 C 83 % 8.03 C
161 21-02-2019 13:20:00 11 C 84 % 8.4 C
162 21-02-2019 13:25:00 11.3 C 83 % 8.52 C
163 21-02-2019 13:30:00 11.5 C 81 % 8.36 C
164 21-02-2019 13:35:00 11.7 C 81 % 8.55 C
165 21-02-2019 13:40:00 11.8 C 80 % 8.47 C
166 21-02-2019 13:45:00 11.9 C 79 % 8.38 C
167 21-02-2019 13:50:00 12 C 79 % 8.48 C
168 21-02-2019 13:55:00 12.1 C 79 % 8.57 C
169 21-02-2019 14:00:00 12.1 C 79 % 8.57 C
170 21-02-2019 14:05:00 12.2 C 78 % 8.48 C
171 21-02-2019 14:10:00 12.3 C 79 % 8.77 C
172 21-02-2019 14:15:00 12.6 C 78 % 8.87 C
173 21-02-2019 14:20:00 12.7 C 77 % 8.78 C
174 21-02-2019 14:25:00 12.7 C 76 % 8.58 C
175 21-02-2019 14:30:00 12.8 C 76 % 8.68 C
Sensor: Nr:Datum:Temp:Feuchte:Taupunkt:
Aussen-T/F 176 21-02-2019 14:35:00 12.8 C 76 % 8.68 C
177 21-02-2019 14:40:00 12.7 C 76 % 8.58 C
178 21-02-2019 14:45:00 12.7 C 76 % 8.58 C
179 21-02-2019 14:50:00 12.7 C 76 % 8.58 C
180 21-02-2019 14:55:00 12.9 C 77 % 8.97 C
181 21-02-2019 15:00:00 13.2 C 75 % 8.87 C
182 21-02-2019 15:05:00 13.2 C 75 % 8.87 C
183 21-02-2019 15:10:00 13.3 C 74 % 8.77 C
184 21-02-2019 15:15:00 13.4 C 74 % 8.87 C
185 21-02-2019 15:20:00 13.4 C 74 % 8.87 C
186 21-02-2019 15:25:00 13.3 C 74 % 8.77 C
187 21-02-2019 15:30:00 13.3 C 75 % 8.97 C
188 21-02-2019 15:35:00 13.3 C 74 % 8.77 C
189 21-02-2019 15:40:00 13.3 C 75 % 8.97 C
190 21-02-2019 15:45:00 13.4 C 74 % 8.87 C
191 21-02-2019 15:50:00 13.4 C 73 % 8.66 C
192 21-02-2019 15:55:00 13.4 C 74 % 8.87 C
193 21-02-2019 16:00:00 13.3 C 73 % 8.57 C
194 21-02-2019 16:05:00 13.3 C 73 % 8.57 C
195 21-02-2019 16:10:00 13.3 C 74 % 8.77 C
196 21-02-2019 16:15:00 13.3 C 75 % 8.97 C
197 21-02-2019 16:20:00 13.4 C 75 % 9.06 C
198 21-02-2019 16:25:00 13.4 C 74 % 8.87 C
199 21-02-2019 16:30:00 13.4 C 74 % 8.87 C
200 21-02-2019 16:35:00 13.4 C 74 % 8.87 C
Sensor: Nr:Datum:Temp:Feuchte:Taupunkt:
Aussen-T/F 201 21-02-2019 16:40:00 13.4 C 74 % 8.87 C
202 21-02-2019 16:45:00 13.3 C 75 % 8.97 C
203 21-02-2019 16:50:00 13.3 C 74 % 8.77 C
204 21-02-2019 16:55:00 13.3 C 74 % 8.77 C
205 21-02-2019 17:00:00 13.2 C 73 % 8.47 C
206 21-02-2019 17:05:00 13.1 C 73 % 8.38 C
207 21-02-2019 17:10:00 13.1 C 73 % 8.38 C
208 21-02-2019 17:15:00 13.1 C 75 % 8.77 C
209 21-02-2019 17:20:00 13.1 C 80 % 9.73 C
210 21-02-2019 17:25:00 12.8 C 81 % 9.62 C
211 21-02-2019 17:30:00 12.6 C 82 % 9.61 C
212 21-02-2019 17:35:00 12.3 C 83 % 9.5 C
213 21-02-2019 17:40:00 12 C 84 % 9.38 C
214 21-02-2019 17:45:00 11.7 C 84 % 9.09 C
215 21-02-2019 17:50:00 11.5 C 85 % 9.07 C
216 21-02-2019 17:55:00 11.3 C 85 % 8.87 C
217 21-02-2019 18:00:00 11.1 C 86 % 8.85 C
218 21-02-2019 18:05:00 10.9 C 86 % 8.65 C
219 21-02-2019 18:10:00 10.8 C 86 % 8.56 C
220 21-02-2019 18:15:00 10.7 C 86 % 8.46 C
221 21-02-2019 18:20:00 10.6 C 86 % 8.36 C
222 21-02-2019 18:25:00 10.6 C 86 % 8.36 C
223 21-02-2019 18:30:00 10.5 C 86 % 8.26 C
224 21-02-2019 18:35:00 10.4 C 86 % 8.16 C
225 21-02-2019 18:40:00 10.4 C 86 % 8.16 C
Sensor: Nr:Datum:Temp:Feuchte:Taupunkt:
Aussen-T/F 226 21-02-2019 18:45:00 10.3 C 86 % 8.06 C
227 21-02-2019 18:50:00 10.3 C 87 % 8.23 C
228 21-02-2019 18:55:00 10.2 C 87 % 8.14 C
229 21-02-2019 19:00:00 10.2 C 87 % 8.14 C
230 21-02-2019 19:05:00 10.1 C 86 % 7.87 C
231 21-02-2019 19:10:00 10 C 86 % 7.77 C
232 21-02-2019 19:15:00 9.8 C 86 % 7.57 C
233 21-02-2019 19:20:00 9.8 C 87 % 7.74 C
234 21-02-2019 19:25:00 9.7 C 88 % 7.81 C
235 21-02-2019 19:30:00 9.7 C 88 % 7.81 C
236 21-02-2019 19:35:00 9.7 C 88 % 7.81 C
237 21-02-2019 19:40:00 9.6 C 88 % 7.71 C
238 21-02-2019 19:45:00 9.6 C 87 % 7.55 C
239 21-02-2019 19:50:00 9.4 C 88 % 7.52 C
240 21-02-2019 19:55:00 9.3 C 88 % 7.42 C
241 21-02-2019 20:00:00 9.2 C 88 % 7.32 C
242 21-02-2019 20:05:00 9.2 C 89 % 7.48 C
243 21-02-2019 20:10:00 9.2 C 89 % 7.48 C
244 21-02-2019 20:15:00 9.1 C 89 % 7.39 C
245 21-02-2019 20:20:00 9.1 C 89 % 7.39 C
246 21-02-2019 20:25:00 9.2 C 90 % 7.65 C
247 21-02-2019 20:30:00 9.2 C 90 % 7.65 C
248 21-02-2019 20:35:00 9.2 C 90 % 7.65 C
249 21-02-2019 20:40:00 9.2 C 90 % 7.65 C
250 21-02-2019 20:45:00 9.2 C 90 % 7.65 C
Sensor: Nr:Datum:Temp:Feuchte:Taupunkt:
Aussen-T/F 251 21-02-2019 20:50:00 9.2 C 90 % 7.65 C
252 21-02-2019 20:55:00 9.2 C 90 % 7.65 C
253 21-02-2019 21:00:00 9.3 C 90 % 7.75 C
254 21-02-2019 21:05:00 9.3 C 90 % 7.75 C
255 21-02-2019 21:10:00 9.3 C 91 % 7.91 C
256 21-02-2019 21:15:00 9.3 C 91 % 7.91 C
257 21-02-2019 21:20:00 9.3 C 91 % 7.91 C
258 21-02-2019 21:25:00 9.3 C 91 % 7.91 C
259 21-02-2019 21:30:00 9.3 C 91 % 7.91 C
260 21-02-2019 21:35:00 9.3 C 91 % 7.91 C
261 21-02-2019 21:40:00 9.3 C 90 % 7.75 C
262 21-02-2019 21:45:00 9.4 C 90 % 7.85 C
263 21-02-2019 21:50:00 9.4 C 90 % 7.85 C
264 21-02-2019 21:55:00 9.4 C 90 % 7.85 C
265 21-02-2019 22:00:00 9.3 C 90 % 7.75 C
266 21-02-2019 22:05:00 9.3 C 90 % 7.75 C
267 21-02-2019 22:10:00 9.3 C 89 % 7.58 C
268 21-02-2019 22:15:00 9.3 C 90 % 7.75 C
269 21-02-2019 22:20:00 9.3 C 89 % 7.58 C
270 21-02-2019 22:25:00 9.3 C 89 % 7.58 C
271 21-02-2019 22:30:00 9.3 C 89 % 7.58 C
272 21-02-2019 22:35:00 9.3 C 89 % 7.58 C
273 21-02-2019 22:40:00 9.3 C 89 % 7.58 C
274 21-02-2019 22:45:00 9.2 C 89 % 7.48 C
275 21-02-2019 22:50:00 9.2 C 89 % 7.48 C
Sensor: Nr:Datum:Temp:Feuchte:Taupunkt:
Aussen-T/F 276 21-02-2019 22:55:00 9.2 C 89 % 7.48 C
277 21-02-2019 23:00:00 9.1 C 89 % 7.39 C
278 21-02-2019 23:05:00 9.1 C 89 % 7.39 C
279 21-02-2019 23:10:00 9 C 89 % 7.29 C
280 21-02-2019 23:15:00 9 C 90 % 7.45 C
281 21-02-2019 23:20:00 9.1 C 90 % 7.55 C
282 21-02-2019 23:25:00 9.2 C 90 % 7.65 C
283 21-02-2019 23:30:00 9.3 C 90 % 7.75 C
284 21-02-2019 23:35:00 9.3 C 89 % 7.58 C
285 21-02-2019 23:40:00 9.4 C 89 % 7.68 C
286 21-02-2019 23:45:00 9.3 C 89 % 7.58 C
287 21-02-2019 23:50:00 9.4 C 89 % 7.68 C
288 21-02-2019 23:55:00 9.4 C 89 % 7.68 C
289 22-02-2019 00:00:00 9.4 C 89 % 7.68 C
290 22-02-2019 00:05:00 9.4 C 88 % 7.52 C
291 22-02-2019 00:10:00 9.3 C 89 % 7.58 C
292 22-02-2019 00:15:00 9.3 C 89 % 7.58 C
293 22-02-2019 00:20:00 9.3 C 89 % 7.58 C
294 22-02-2019 00:25:00 9.3 C 89 % 7.58 C
295 22-02-2019 00:30:00 9.4 C 89 % 7.68 C
296 22-02-2019 00:35:00 9.5 C 90 % 7.94 C
297 22-02-2019 00:40:00 9.8 C 90 % 8.24 C
298 22-02-2019 00:45:00 10 C 88 % 8.11 C
299 22-02-2019 00:50:00 10.1 C 88 % 8.21 C
300 22-02-2019 00:55:00 10.1 C 88 % 8.21 C
Sensor: Nr:Datum:Temp:Feuchte:Taupunkt:
Aussen-T/F 301 22-02-2019 01:00:00 10.1 C 88 % 8.21 C
302 22-02-2019 01:05:00 10.1 C 87 % 8.04 C
303 22-02-2019 01:10:00 9.9 C 87 % 7.84 C
304 22-02-2019 01:15:00 9.8 C 87 % 7.74 C
305 22-02-2019 01:20:00 9.8 C 88 % 7.91 C
306 22-02-2019 01:25:00 9.7 C 88 % 7.81 C
307 22-02-2019 01:30:00 9.7 C 89 % 7.98 C
308 22-02-2019 01:35:00 9.7 C 89 % 7.98 C
309 22-02-2019 01:40:00 9.7 C 89 % 7.98 C
310 22-02-2019 01:45:00 9.6 C 89 % 7.88 C
311 22-02-2019 01:50:00 9.6 C 89 % 7.88 C
312 22-02-2019 01:55:00 9.5 C 89 % 7.78 C
313 22-02-2019 02:00:00 9.4 C 89 % 7.68 C
314 22-02-2019 02:05:00 9.4 C 89 % 7.68 C
315 22-02-2019 02:10:00 9.4 C 90 % 7.85 C
316 22-02-2019 02:15:00 9.4 C 90 % 7.85 C
317 22-02-2019 02:20:00 9.4 C 90 % 7.85 C
318 22-02-2019 02:25:00 9.3 C 90 % 7.75 C
319 22-02-2019 02:30:00 9.3 C 90 % 7.75 C
320 22-02-2019 02:35:00 9.3 C 90 % 7.75 C
321 22-02-2019 02:40:00 9.2 C 90 % 7.65 C
322 22-02-2019 02:45:00 9.2 C 91 % 7.81 C
323 22-02-2019 02:50:00 9.3 C 91 % 7.91 C
324 22-02-2019 02:55:00 9.3 C 92 % 8.07 C
325 22-02-2019 03:00:00 9.4 C 92 % 8.17 C
Sensor: Nr:Datum:Temp:Feuchte:Taupunkt:
Aussen-T/F 326 22-02-2019 03:05:00 9.4 C 91 % 8.01 C
327 22-02-2019 03:10:00 9.4 C 92 % 8.17 C
328 22-02-2019 03:15:00 9.4 C 92 % 8.17 C
329 22-02-2019 03:20:00 9.5 C 92 % 8.27 C
330 22-02-2019 03:25:00 9.5 C 92 % 8.27 C
331 22-02-2019 03:30:00 9.6 C 92 % 8.37 C
332 22-02-2019 03:35:00 9.6 C 93 % 8.53 C
333 22-02-2019 03:40:00 9.7 C 93 % 8.62 C
334 22-02-2019 03:45:00 9.7 C 92 % 8.46 C
335 22-02-2019 03:50:00 9.7 C 92 % 8.46 C
336 22-02-2019 03:55:00 9.7 C 92 % 8.46 C
337 22-02-2019 04:00:00 9.8 C 92 % 8.56 C
338 22-02-2019 04:05:00 9.8 C 92 % 8.56 C
339 22-02-2019 04:10:00 9.8 C 92 % 8.56 C
340 22-02-2019 04:15:00 9.8 C 93 % 8.72 C
341 22-02-2019 04:20:00 9.8 C 93 % 8.72 C
342 22-02-2019 04:25:00 9.7 C 93 % 8.62 C
343 22-02-2019 04:30:00 9.7 C 93 % 8.62 C
344 22-02-2019 04:35:00 9.6 C 93 % 8.53 C
345 22-02-2019 04:40:00 9.6 C 93 % 8.53 C
346 22-02-2019 04:45:00 9.5 C 93 % 8.43 C
347 22-02-2019 04:50:00 9.5 C 94 % 8.58 C
348 22-02-2019 04:55:00 9.4 C 94 % 8.48 C
349 22-02-2019 05:00:00 9.4 C 94 % 8.48 C
350 22-02-2019 05:05:00 9.4 C 94 % 8.48 C
Sensor: Nr:Datum:Temp:Feuchte:Taupunkt:
Aussen-T/F 351 22-02-2019 05:10:00 9.4 C 94 % 8.48 C
352 22-02-2019 05:15:00 9.4 C 94 % 8.48 C
353 22-02-2019 05:20:00 9.4 C 94 % 8.48 C
354 22-02-2019 05:25:00 9.3 C 94 % 8.39 C
355 22-02-2019 05:30:00 9.3 C 94 % 8.39 C
356 22-02-2019 05:35:00 9.3 C 94 % 8.39 C
357 22-02-2019 05:40:00 9.3 C 94 % 8.39 C
358 22-02-2019 05:45:00 9.3 C 95 % 8.54 C
359 22-02-2019 05:50:00 9.3 C 95 % 8.54 C
360 22-02-2019 05:55:00 9.3 C 95 % 8.54 C
361 22-02-2019 06:00:00 9.3 C 95 % 8.54 C
362 22-02-2019 06:05:00 9.3 C 95 % 8.54 C
363 22-02-2019 06:10:00 9.3 C 95 % 8.54 C
364 22-02-2019 06:15:00 9.4 C 95 % 8.64 C
365 22-02-2019 06:20:00 9.4 C 95 % 8.64 C
366 22-02-2019 06:25:00 9.4 C 95 % 8.64 C
367 22-02-2019 06:30:00 9.4 C 95 % 8.64 C
368 22-02-2019 06:35:00 9.4 C 95 % 8.64 C
369 22-02-2019 06:40:00 9.3 C 95 % 8.54 C
370 22-02-2019 06:45:00 9.3 C 95 % 8.54 C
371 22-02-2019 06:50:00 9.3 C 95 % 8.54 C
372 22-02-2019 06:55:00 9.3 C 95 % 8.54 C
373 22-02-2019 07:00:00 9.3 C 95 % 8.54 C
374 22-02-2019 07:05:00 9.3 C 95 % 8.54 C
375 22-02-2019 07:10:00 9.3 C 95 % 8.54 C
Sensor: Nr:Datum:Temp:Feuchte:Taupunkt:
Aussen-T/F 376 22-02-2019 07:15:00 9.2 C 95 % 8.44 C
377 22-02-2019 07:20:00 9.2 C 95 % 8.44 C
378 22-02-2019 07:25:00 9.2 C 95 % 8.44 C
379 22-02-2019 07:30:00 9.2 C 95 % 8.44 C
380 22-02-2019 07:35:00 9.2 C 96 % 8.6 C
381 22-02-2019 07:40:00 9.2 C 96 % 8.6 C
382 22-02-2019 07:45:00 9.2 C 96 % 8.6 C
383 22-02-2019 07:50:00 9.2 C 96 % 8.6 C
384 22-02-2019 07:55:00 9.2 C 96 % 8.6 C
385 22-02-2019 08:00:00 9.1 C 96 % 8.5 C
386 22-02-2019 08:05:00 9.1 C 96 % 8.5 C
387 22-02-2019 08:10:00 9.1 C 96 % 8.5 C
388 22-02-2019 08:15:00 9.1 C 96 % 8.5 C
389 22-02-2019 08:20:00 9.1 C 96 % 8.5 C
390 22-02-2019 08:25:00 9.1 C 96 % 8.5 C
391 22-02-2019 08:30:00 9.2 C 96 % 8.6 C
392 22-02-2019 08:35:00 9.2 C 96 % 8.6 C
393 22-02-2019 08:40:00 9.2 C 96 % 8.6 C
394 22-02-2019 08:45:00 9.2 C 96 % 8.6 C
395 22-02-2019 08:50:00 9.3 C 96 % 8.7 C
396 22-02-2019 08:55:00 9.3 C 96 % 8.7 C
397 22-02-2019 09:00:00 9.4 C 96 % 8.8 C
398 22-02-2019 09:05:00 9.4 C 96 % 8.8 C
399 22-02-2019 09:10:00 9.5 C 96 % 8.89 C
400 22-02-2019 09:15:00 9.5 C 96 % 8.89 C
Sensor: Nr:Datum:Temp:Feuchte:Taupunkt:
Aussen-T/F 401 22-02-2019 09:20:00 9.5 C 96 % 8.89 C
402 22-02-2019 09:25:00 9.5 C 96 % 8.89 C
403 22-02-2019 09:30:00 9.5 C 96 % 8.89 C
404 22-02-2019 09:35:00 9.5 C 96 % 8.89 C
405 22-02-2019 09:40:00 9.5 C 96 % 8.89 C
406 22-02-2019 09:45:00 9.6 C 96 % 8.99 C
407 22-02-2019 09:50:00 9.6 C 96 % 8.99 C
408 22-02-2019 09:55:00 9.6 C 96 % 8.99 C
409 22-02-2019 10:00:00 9.7 C 96 % 9.09 C
410 22-02-2019 10:05:00 9.7 C 96 % 9.09 C
411 22-02-2019 10:10:00 9.8 C 96 % 9.19 C
412 22-02-2019 10:15:00 9.8 C 96 % 9.19 C
413 22-02-2019 10:20:00 9.8 C 96 % 9.19 C
414 22-02-2019 10:25:00 9.9 C 96 % 9.29 C
415 22-02-2019 10:30:00 9.9 C 96 % 9.29 C
416 22-02-2019 10:35:00 10 C 96 % 9.39 C
417 22-02-2019 10:40:00 10.1 C 96 % 9.49 C
418 22-02-2019 10:45:00 10.1 C 96 % 9.49 C
419 22-02-2019 10:50:00 10.2 C 96 % 9.59 C
420 22-02-2019 10:55:00 10.2 C 96 % 9.59 C
421 22-02-2019 11:00:00 10.3 C 96 % 9.69 C
422 22-02-2019 11:05:00 10.3 C 96 % 9.69 C
423 22-02-2019 11:10:00 10.5 C 96 % 9.89 C
424 22-02-2019 11:15:00 10.6 C 96 % 9.99 C
425 22-02-2019 11:20:00 10.6 C 96 % 9.99 C
Sensor: Nr:Datum:Temp:Feuchte:Taupunkt:
Aussen-T/F 426 22-02-2019 11:25:00 10.6 C 95 % 9.83 C
427 22-02-2019 11:30:00 10.7 C 95 % 9.93 C
428 22-02-2019 11:35:00 10.7 C 95 % 9.93 C
429 22-02-2019 11:40:00 10.7 C 94 % 9.77 C
430 22-02-2019 11:45:00 10.8 C 93 % 9.71 C
431 22-02-2019 11:50:00 10.9 C 93 % 9.81 C
432 22-02-2019 11:55:00 11 C 93 % 9.91 C
433 22-02-2019 12:00:00 11.2 C 92 % 9.95 C
434 22-02-2019 12:05:00 11.2 C 91 % 9.79 C
435 22-02-2019 12:10:00 11.3 C 91 % 9.89 C
436 22-02-2019 12:15:00 11.4 C 89 % 9.65 C
437 22-02-2019 12:20:00 11.4 C 89 % 9.65 C
438 22-02-2019 12:25:00 11.6 C 88 % 9.68 C
439 22-02-2019 12:30:00 11.7 C 88 % 9.78 C
440 22-02-2019 12:35:00 11.8 C 87 % 9.71 C
441 22-02-2019 12:40:00 11.8 C 85 % 9.36 C
442 22-02-2019 12:45:00 11.9 C 85 % 9.46 C
443 22-02-2019 12:50:00 11.9 C 85 % 9.46 C
444 22-02-2019 12:55:00 12 C 85 % 9.56 C
445 22-02-2019 13:00:00 12.1 C 85 % 9.66 C
446 22-02-2019 13:05:00 12.1 C 84 % 9.48 C
447 22-02-2019 13:10:00 12.1 C 84 % 9.48 C
448 22-02-2019 13:15:00 12.1 C 84 % 9.48 C
449 22-02-2019 13:20:00 12.2 C 84 % 9.58 C
450 22-02-2019 13:25:00 12.5 C 82 % 9.51 C
Sensor: Nr:Datum:Temp:Feuchte:Taupunkt:
Aussen-T/F 451 22-02-2019 13:30:00 12.8 C 82 % 9.81 C
452 22-02-2019 13:35:00 12.8 C 80 % 9.44 C
453 22-02-2019 13:40:00 12.8 C 80 % 9.44 C
454 22-02-2019 13:45:00 12.8 C 80 % 9.44 C
455 22-02-2019 13:50:00 12.7 C 80 % 9.34 C
456 22-02-2019 13:55:00 12.6 C 80 % 9.25 C
457 22-02-2019 14:00:00 12.6 C 80 % 9.25 C
458 22-02-2019 14:05:00 12.6 C 80 % 9.25 C
459 22-02-2019 14:10:00 12.6 C 79 % 9.06 C
460 22-02-2019 14:15:00 12.7 C 79 % 9.16 C
461 22-02-2019 14:20:00 12.7 C 78 % 8.97 C
462 22-02-2019 14:25:00 12.8 C 78 % 9.06 C
463 22-02-2019 14:30:00 12.8 C 78 % 9.06 C
464 22-02-2019 14:35:00 12.9 C 79 % 9.35 C
465 22-02-2019 14:40:00 13 C 76 % 8.87 C
466 22-02-2019 14:45:00 13.1 C 76 % 8.97 C
467 22-02-2019 14:50:00 13.1 C 76 % 8.97 C
468 22-02-2019 14:55:00 13.1 C 76 % 8.97 C
469 22-02-2019 15:00:00 13.2 C 75 % 8.87 C
470 22-02-2019 15:05:00 13.3 C 76 % 9.16 C
471 22-02-2019 15:10:00 13.3 C 75 % 8.97 C
472 22-02-2019 15:15:00 13.4 C 74 % 8.87 C
473 22-02-2019 15:20:00 13.4 C 74 % 8.87 C
474 22-02-2019 15:25:00 13.4 C 73 % 8.66 C
475 22-02-2019 15:30:00 13.3 C 74 % 8.77 C
Sensor: Nr:Datum:Temp:Feuchte:Taupunkt:
Aussen-T/F 476 22-02-2019 15:35:00 13.3 C 74 % 8.77 C
477 22-02-2019 15:40:00 13.2 C 74 % 8.67 C
478 22-02-2019 15:45:00 13.2 C 74 % 8.67 C
479 22-02-2019 15:50:00 13.2 C 75 % 8.87 C
480 22-02-2019 15:55:00 13.1 C 74 % 8.58 C
481 22-02-2019 16:00:00 13.1 C 74 % 8.58 C
482 22-02-2019 16:05:00 13.1 C 75 % 8.77 C
483 22-02-2019 16:10:00 13.1 C 75 % 8.77 C
484 22-02-2019 16:15:00 12.9 C 74 % 8.38 C
485 22-02-2019 16:20:00 12.9 C 73 % 8.18 C
486 22-02-2019 16:25:00 12.8 C 73 % 8.09 C
487 22-02-2019 16:30:00 12.8 C 72 % 7.88 C
488 22-02-2019 16:35:00 12.7 C 72 % 7.79 C
489 22-02-2019 16:40:00 12.7 C 72 % 7.79 C
490 22-02-2019 16:45:00 12.7 C 74 % 8.19 C
491 22-02-2019 16:50:00 12.7 C 74 % 8.19 C
492 22-02-2019 16:55:00 12.6 C 73 % 7.89 C
493 22-02-2019 17:00:00 12.5 C 74 % 8 C
494 22-02-2019 17:05:00 12.4 C 74 % 7.9 C
495 22-02-2019 17:10:00 12.3 C 75 % 8 C
496 22-02-2019 17:15:00 12.2 C 73 % 7.51 C
497 22-02-2019 17:20:00 12.2 C 74 % 7.71 C
498 22-02-2019 17:25:00 12.1 C 76 % 8 C
499 22-02-2019 17:30:00 11.9 C 77 % 8 C
500 22-02-2019 17:35:00 11.7 C 77 % 7.81 C
Sensor: Nr:Datum:Temp:Feuchte:Taupunkt:
Aussen-T/F 501 22-02-2019 17:40:00 11.4 C 78 % 7.71 C
502 22-02-2019 17:45:00 11.3 C 78 % 7.61 C
503 22-02-2019 17:50:00 11.1 C 79 % 7.6 C
504 22-02-2019 17:55:00 10.8 C 79 % 7.31 C
505 22-02-2019 18:00:00 10.4 C 80 % 7.1 C
506 22-02-2019 18:05:00 10.1 C 80 % 6.81 C
507 22-02-2019 18:10:00 9.8 C 81 % 6.7 C
508 22-02-2019 18:15:00 9.4 C 82 % 6.49 C
509 22-02-2019 18:20:00 9.2 C 82 % 6.29 C
510 22-02-2019 18:25:00 9 C 83 % 6.27 C
511 22-02-2019 18:30:00 8.8 C 84 % 6.25 C
512 22-02-2019 18:35:00 8.7 C 84 % 6.15 C
513 22-02-2019 18:40:00 8.6 C 85 % 6.23 C
514 22-02-2019 18:45:00 8.4 C 85 % 6.03 C
515 22-02-2019 18:50:00 8.3 C 85 % 5.93 C
516 22-02-2019 18:55:00 8.2 C 86 % 6 C
517 22-02-2019 19:00:00 8.2 C 86 % 6 C
518 22-02-2019 19:05:00 8.3 C 86 % 6.1 C
519 22-02-2019 19:10:00 8.3 C 87 % 6.27 C
520 22-02-2019 19:15:00 8.4 C 87 % 6.37 C
521 22-02-2019 19:20:00 8.5 C 86 % 6.3 C
522 22-02-2019 19:25:00 8.6 C 86 % 6.39 C
523 22-02-2019 19:30:00 8.6 C 86 % 6.39 C
524 22-02-2019 19:35:00 8.6 C 86 % 6.39 C
525 22-02-2019 19:40:00 8.7 C 86 % 6.49 C
Sensor: Nr:Datum:Temp:Feuchte:Taupunkt:
Aussen-T/F 526 22-02-2019 19:45:00 8.7 C 86 % 6.49 C
527 22-02-2019 19:50:00 8.8 C 86 % 6.59 C
528 22-02-2019 19:55:00 8.9 C 86 % 6.69 C
529 22-02-2019 20:00:00 8.9 C 85 % 6.52 C
530 22-02-2019 20:05:00 9 C 85 % 6.62 C
531 22-02-2019 20:10:00 9 C 85 % 6.62 C
532 22-02-2019 20:15:00 9.1 C 85 % 6.72 C
533 22-02-2019 20:20:00 9.1 C 85 % 6.72 C
534 22-02-2019 20:25:00 9.1 C 85 % 6.72 C
535 22-02-2019 20:30:00 9.1 C 85 % 6.72 C
536 22-02-2019 20:35:00 9 C 85 % 6.62 C
537 22-02-2019 20:40:00 8.9 C 86 % 6.69 C
538 22-02-2019 20:45:00 8.9 C 86 % 6.69 C
539 22-02-2019 20:50:00 8.9 C 86 % 6.69 C
540 22-02-2019 20:55:00 8.9 C 86 % 6.69 C
541 22-02-2019 21:00:00 8.8 C 86 % 6.59 C
542 22-02-2019 21:05:00 8.8 C 86 % 6.59 C
543 22-02-2019 21:10:00 8.8 C 86 % 6.59 C
544 22-02-2019 21:15:00 8.8 C 86 % 6.59 C
545 22-02-2019 21:20:00 8.7 C 87 % 6.66 C
546 22-02-2019 21:25:00 8.7 C 86 % 6.49 C
547 22-02-2019 21:30:00 8.6 C 86 % 6.39 C
548 22-02-2019 21:35:00 8.4 C 86 % 6.2 C
549 22-02-2019 21:40:00 8.3 C 86 % 6.1 C
550 22-02-2019 21:45:00 8.1 C 86 % 5.9 C
Sensor: Nr:Datum:Temp:Feuchte:Taupunkt:
Aussen-T/F 551 22-02-2019 21:50:00 7.9 C 86 % 5.71 C
552 22-02-2019 21:55:00 7.8 C 87 % 5.78 C
553 22-02-2019 22:00:00 7.6 C 87 % 5.58 C
554 22-02-2019 22:05:00 7.4 C 88 % 5.55 C
555 22-02-2019 22:10:00 7.3 C 88 % 5.45 C
556 22-02-2019 22:15:00 7.2 C 88 % 5.35 C
557 22-02-2019 22:20:00 7.1 C 89 % 5.41 C
558 22-02-2019 22:25:00 7 C 89 % 5.31 C
559 22-02-2019 22:30:00 6.9 C 89 % 5.22 C
560 22-02-2019 22:35:00 6.8 C 89 % 5.12 C
561 22-02-2019 22:40:00 6.7 C 90 % 5.18 C
562 22-02-2019 22:45:00 6.6 C 90 % 5.08 C
563 22-02-2019 22:50:00 6.4 C 90 % 4.88 C
564 22-02-2019 22:55:00 6.3 C 90 % 4.78 C
565 22-02-2019 23:00:00 6.2 C 90 % 4.69 C
566 22-02-2019 23:05:00 6.1 C 91 % 4.74 C
567 22-02-2019 23:10:00 6.1 C 91 % 4.74 C
568 22-02-2019 23:15:00 6 C 91 % 4.65 C
569 22-02-2019 23:20:00 6 C 92 % 4.8 C
570 22-02-2019 23:25:00 5.9 C 92 % 4.7 C
571 22-02-2019 23:30:00 5.9 C 92 % 4.7 C
572 22-02-2019 23:35:00 5.9 C 92 % 4.7 C
573 22-02-2019 23:40:00 5.9 C 92 % 4.7 C
574 22-02-2019 23:45:00 5.9 C 92 % 4.7 C
575 22-02-2019 23:50:00 5.8 C 92 % 4.6 C
Sensor: Nr:Datum:Temp:Feuchte:Taupunkt:
Aussen-T/F 576 22-02-2019 23:55:00 5.7 C 92 % 4.5 C
577 23-02-2019 00:00:00 5.7 C 92 % 4.5 C
578 23-02-2019 00:05:00 5.7 C 92 % 4.5 C
579 23-02-2019 00:10:00 5.6 C 92 % 4.41 C
580 23-02-2019 00:15:00 5.4 C 92 % 4.21 C
581 23-02-2019 00:20:00 5.3 C 92 % 4.11 C
582 23-02-2019 00:25:00 5.3 C 92 % 4.11 C
583 23-02-2019 00:30:00 5.2 C 92 % 4.01 C
584 23-02-2019 00:35:00 5.2 C 92 % 4.01 C
585 23-02-2019 00:40:00 5.2 C 93 % 4.16 C
586 23-02-2019 00:45:00 5.1 C 93 % 4.06 C
587 23-02-2019 00:50:00 5.1 C 93 % 4.06 C
588 23-02-2019 00:55:00 5 C 93 % 3.96 C
589 23-02-2019 01:00:00 4.9 C 93 % 3.87 C
590 23-02-2019 01:05:00 4.8 C 93 % 3.77 C
591 23-02-2019 01:10:00 4.8 C 93 % 3.77 C
592 23-02-2019 01:15:00 4.7 C 93 % 3.67 C
593 23-02-2019 01:20:00 4.7 C 93 % 3.67 C
594 23-02-2019 01:25:00 4.6 C 93 % 3.57 C
595 23-02-2019 01:30:00 4.4 C 93 % 3.37 C
596 23-02-2019 01:35:00 4.4 C 93 % 3.37 C
597 23-02-2019 01:40:00 4.4 C 93 % 3.37 C
598 23-02-2019 01:45:00 4.3 C 94 % 3.42 C
599 23-02-2019 01:50:00 4.3 C 94 % 3.42 C
600 23-02-2019 01:55:00 4.3 C 94 % 3.42 C
Sensor: Nr:Datum:Temp:Feuchte:Taupunkt:
Aussen-T/F 601 23-02-2019 02:00:00 4.3 C 94 % 3.42 C
602 23-02-2019 02:05:00 4.3 C 94 % 3.42 C
603 23-02-2019 02:10:00 4.4 C 94 % 3.52 C
604 23-02-2019 02:15:00 4.4 C 94 % 3.52 C
605 23-02-2019 02:20:00 4.3 C 94 % 3.42 C
606 23-02-2019 02:25:00 4.3 C 94 % 3.42 C
607 23-02-2019 02:30:00 4.2 C 94 % 3.32 C
608 23-02-2019 02:35:00 4.1 C 94 % 3.22 C
609 23-02-2019 02:40:00 4 C 94 % 3.12 C
610 23-02-2019 02:45:00 4 C 94 % 3.12 C
611 23-02-2019 02:50:00 4 C 94 % 3.12 C
612 23-02-2019 02:55:00 3.9 C 94 % 3.02 C
613 23-02-2019 03:00:00 3.8 C 94 % 2.93 C
614 23-02-2019 03:05:00 3.8 C 95 % 3.07 C
615 23-02-2019 03:10:00 3.8 C 95 % 3.07 C
616 23-02-2019 03:15:00 3.8 C 95 % 3.07 C
617 23-02-2019 03:20:00 3.9 C 95 % 3.17 C
618 23-02-2019 03:25:00 3.8 C 95 % 3.07 C
619 23-02-2019 03:30:00 3.7 C 95 % 2.98 C
620 23-02-2019 03:35:00 3.7 C 95 % 2.98 C
621 23-02-2019 03:40:00 3.8 C 95 % 3.07 C
622 23-02-2019 03:45:00 3.8 C 95 % 3.07 C
623 23-02-2019 03:50:00 3.9 C 95 % 3.17 C
624 23-02-2019 03:55:00 4 C 95 % 3.27 C
625 23-02-2019 04:00:00 4.1 C 95 % 3.37 C
Sensor: Nr:Datum:Temp:Feuchte:Taupunkt:
Aussen-T/F 626 23-02-2019 04:05:00 4.2 C 95 % 3.47 C
627 23-02-2019 04:10:00 4.2 C 95 % 3.47 C
628 23-02-2019 04:15:00 4.3 C 95 % 3.57 C
629 23-02-2019 04:20:00 4.3 C 95 % 3.57 C
630 23-02-2019 04:25:00 4.3 C 95 % 3.57 C
631 23-02-2019 04:30:00 4.4 C 95 % 3.67 C
632 23-02-2019 04:35:00 4.3 C 95 % 3.57 C
633 23-02-2019 04:40:00 4.3 C 95 % 3.57 C
634 23-02-2019 04:45:00 4.3 C 95 % 3.57 C
635 23-02-2019 04:50:00 4.3 C 95 % 3.57 C
636 23-02-2019 04:55:00 4.2 C 95 % 3.47 C
637 23-02-2019 05:00:00 4.2 C 95 % 3.47 C
638 23-02-2019 05:05:00 4.2 C 95 % 3.47 C
639 23-02-2019 05:10:00 4.3 C 95 % 3.57 C
640 23-02-2019 05:15:00 4.3 C 95 % 3.57 C
641 23-02-2019 05:20:00 4.5 C 94 % 3.62 C
642 23-02-2019 05:25:00 4.6 C 94 % 3.72 C
643 23-02-2019 05:30:00 4.6 C 93 % 3.57 C
644 23-02-2019 05:35:00 4.7 C 93 % 3.67 C
645 23-02-2019 05:40:00 4.7 C 93 % 3.67 C
646 23-02-2019 05:45:00 4.7 C 92 % 3.51 C
647 23-02-2019 05:50:00 4.7 C 92 % 3.51 C
648 23-02-2019 05:55:00 4.8 C 91 % 3.46 C
649 23-02-2019 06:00:00 4.8 C 91 % 3.46 C
650 23-02-2019 06:05:00 4.8 C 91 % 3.46 C
Sensor: Nr:Datum:Temp:Feuchte:Taupunkt:
Aussen-T/F 651 23-02-2019 06:10:00 4.9 C 90 % 3.4 C
652 23-02-2019 06:15:00 4.8 C 91 % 3.46 C
653 23-02-2019 06:20:00 4.8 C 91 % 3.46 C
654 23-02-2019 06:25:00 4.8 C 89 % 3.14 C
655 23-02-2019 06:30:00 4.8 C 89 % 3.14 C
656 23-02-2019 06:35:00 4.8 C 89 % 3.14 C
657 23-02-2019 06:40:00 4.9 C 89 % 3.24 C
658 23-02-2019 06:45:00 4.9 C 90 % 3.4 C
659 23-02-2019 06:50:00 4.9 C 89 % 3.24 C
660 23-02-2019 06:55:00 4.8 C 89 % 3.14 C
661 23-02-2019 07:00:00 4.8 C 88 % 2.99 C
662 23-02-2019 07:05:00 4.8 C 88 % 2.99 C
663 23-02-2019 07:10:00 4.8 C 88 % 2.99 C
664 23-02-2019 07:15:00 4.7 C 87 % 2.73 C
665 23-02-2019 07:20:00 4.8 C 87 % 2.82 C
666 23-02-2019 07:25:00 4.8 C 87 % 2.82 C
667 23-02-2019 07:30:00 4.8 C 87 % 2.82 C
668 23-02-2019 07:35:00 4.8 C 86 % 2.66 C
669 23-02-2019 07:40:00 4.8 C 86 % 2.66 C
670 23-02-2019 07:45:00 4.8 C 87 % 2.82 C
671 23-02-2019 07:50:00 4.8 C 86 % 2.66 C
672 23-02-2019 07:55:00 4.8 C 86 % 2.66 C
673 23-02-2019 08:00:00 4.8 C 86 % 2.66 C
674 23-02-2019 08:05:00 4.8 C 87 % 2.82 C
675 23-02-2019 08:10:00 4.8 C 86 % 2.66 C
Sensor: Nr:Datum:Temp:Feuchte:Taupunkt:
Aussen-T/F 676 23-02-2019 08:15:00 4.8 C 85 % 2.5 C
677 23-02-2019 08:20:00 4.8 C 85 % 2.5 C
678 23-02-2019 08:25:00 4.8 C 85 % 2.5 C
679 23-02-2019 08:30:00 4.9 C 85 % 2.6 C
680 23-02-2019 08:35:00 4.9 C 85 % 2.6 C
681 23-02-2019 08:40:00 4.9 C 84 % 2.43 C
682 23-02-2019 08:45:00 4.9 C 84 % 2.43 C
683 23-02-2019 08:50:00 4.9 C 84 % 2.43 C
684 23-02-2019 08:55:00 4.9 C 84 % 2.43 C
685 23-02-2019 09:00:00 4.9 C 84 % 2.43 C
686 23-02-2019 09:05:00 4.9 C 83 % 2.26 C
687 23-02-2019 09:10:00 4.8 C 83 % 2.16 C
688 23-02-2019 09:15:00 4.8 C 83 % 2.16 C
689 23-02-2019 09:20:00 4.8 C 84 % 2.33 C
690 23-02-2019 09:25:00 4.8 C 84 % 2.33 C
691 23-02-2019 09:30:00 4.8 C 84 % 2.33 C
692 23-02-2019 09:35:00 4.7 C 84 % 2.23 C
693 23-02-2019 09:40:00 4.7 C 83 % 2.07 C
694 23-02-2019 09:45:00 4.7 C 83 % 2.07 C
695 23-02-2019 09:50:00 4.7 C 83 % 2.07 C
696 23-02-2019 09:55:00 4.7 C 83 % 2.07 C
697 23-02-2019 10:00:00 4.7 C 83 % 2.07 C
698 23-02-2019 10:05:00 4.7 C 83 % 2.07 C
699 23-02-2019 10:10:00 4.7 C 83 % 2.07 C
700 23-02-2019 10:15:00 4.8 C 83 % 2.16 C
Sensor: Nr:Datum:Temp:Feuchte:Taupunkt:
Aussen-T/F 701 23-02-2019 10:20:00 4.8 C 82 % 1.99 C
702 23-02-2019 10:25:00 4.8 C 82 % 1.99 C
703 23-02-2019 10:30:00 4.9 C 82 % 2.09 C
704 23-02-2019 10:35:00 5 C 81 % 2.02 C
705 23-02-2019 10:40:00 5.1 C 81 % 2.12 C
706 23-02-2019 10:45:00 5.2 C 81 % 2.21 C
707 23-02-2019 10:50:00 5.3 C 81 % 2.31 C
708 23-02-2019 10:55:00 5.4 C 80 % 2.23 C
709 23-02-2019 11:00:00 5.4 C 81 % 2.41 C
710 23-02-2019 11:05:00 5.6 C 81 % 2.6 C
711 23-02-2019 11:10:00 5.7 C 80 % 2.53 C
712 23-02-2019 11:15:00 5.8 C 80 % 2.62 C
713 23-02-2019 11:20:00 5.9 C 80 % 2.72 C
714 23-02-2019 11:25:00 6.1 C 80 % 2.92 C
715 23-02-2019 11:30:00 6.2 C 79 % 2.84 C
716 23-02-2019 11:35:00 6.3 C 79 % 2.93 C
717 23-02-2019 11:40:00 6.4 C 78 % 2.85 C
718 23-02-2019 11:45:00 6.6 C 77 % 2.86 C
719 23-02-2019 11:50:00 6.7 C 77 % 2.96 C
720 23-02-2019 11:55:00 6.8 C 76 % 2.87 C
721 23-02-2019 12:00:00 6.9 C 76 % 2.97 C
722 23-02-2019 12:05:00 7.1 C 75 % 2.98 C
723 23-02-2019 12:10:00 7.2 C 74 % 2.89 C
724 23-02-2019 12:15:00 7.3 C 74 % 2.98 C
725 23-02-2019 12:20:00 7.5 C 73 % 2.98 C
Sensor: Nr:Datum:Temp:Feuchte:Taupunkt:
Aussen-T/F 726 23-02-2019 12:25:00 7.7 C 72 % 2.98 C
727 23-02-2019 12:30:00 7.8 C 71 % 2.88 C
728 23-02-2019 12:35:00 7.8 C 71 % 2.88 C
729 23-02-2019 12:40:00 7.9 C 70 % 2.78 C
730 23-02-2019 12:45:00 8 C 71 % 3.07 C
731 23-02-2019 12:50:00 8.1 C 70 % 2.97 C
732 23-02-2019 12:55:00 8.2 C 71 % 3.26 C
733 23-02-2019 13:00:00 8.3 C 69 % 2.96 C
734 23-02-2019 13:05:00 8.4 C 68 % 2.85 C
735 23-02-2019 13:10:00 8.4 C 69 % 3.05 C
736 23-02-2019 13:15:00 8.7 C 68 % 3.13 C
737 23-02-2019 13:20:00 8.9 C 68 % 3.32 C
738 23-02-2019 13:25:00 9.1 C 67 % 3.31 C
739 23-02-2019 13:30:00 9.3 C 66 % 3.28 C
740 23-02-2019 13:35:00 9.3 C 66 % 3.28 C
741 23-02-2019 13:40:00 9.4 C 67 % 3.59 C
742 23-02-2019 13:45:00 9.6 C 65 % 3.35 C
743 23-02-2019 13:50:00 9.6 C 65 % 3.35 C
744 23-02-2019 13:55:00 9.7 C 64 % 3.23 C
745 23-02-2019 14:00:00 9.7 C 64 % 3.23 C
746 23-02-2019 14:05:00 9.7 C 63 % 3.01 C
747 23-02-2019 14:10:00 9.7 C 64 % 3.23 C
748 23-02-2019 14:15:00 9.8 C 63 % 3.1 C
749 23-02-2019 14:20:00 9.8 C 62 % 2.88 C
750 23-02-2019 14:25:00 9.9 C 62 % 2.97 C
Sensor: Nr:Datum:Temp:Feuchte:Taupunkt:
Aussen-T/F 751 23-02-2019 14:30:00 10 C 61 % 2.84 C
752 23-02-2019 14:35:00 10.1 C 60 % 2.7 C
753 23-02-2019 14:40:00 10.2 C 59 % 2.56 C
754 23-02-2019 14:45:00 10.3 C 54 % 1.41 C
755 23-02-2019 14:50:00 10.4 C 52 % 0.98 C
756 23-02-2019 14:55:00 10.6 C 49 % 0.35 C
757 23-02-2019 15:00:00 10.6 C 47 % -0.23 C
758 23-02-2019 15:05:00 10.7 C 46 % -0.43 C
759 23-02-2019 15:10:00 10.8 C 48 % 0.24 C
760 23-02-2019 15:15:00 10.8 C 46 % -0.34 C
761 23-02-2019 15:20:00 10.8 C 46 % -0.34 C
762 23-02-2019 15:25:00 10.8 C 46 % -0.34 C
763 23-02-2019 15:30:00 10.8 C 45 % -0.64 C
764 23-02-2019 15:35:00 10.8 C 42 % -1.58 C
765 23-02-2019 15:40:00 10.8 C 42 % -1.58 C
766 23-02-2019 15:45:00 10.8 C 43 % -1.26 C
767 23-02-2019 15:50:00 10.8 C 42 % -1.58 C
768 23-02-2019 15:55:00 10.9 C 44 % -0.86 C
769 23-02-2019 16:00:00 10.9 C 43 % -1.17 C
770 23-02-2019 16:05:00 10.9 C 43 % -1.17 C
771 23-02-2019 16:10:00 11.1 C 46 % -0.07 C
772 23-02-2019 16:15:00 11.1 C 52 % 1.63 C
773 23-02-2019 16:20:00 11 C 43 % -1.08 C
774 23-02-2019 16:25:00 10.9 C 42 % -1.49 C
775 23-02-2019 16:30:00 10.8 C 44 % -0.95 C
Sensor: Nr:Datum:Temp:Feuchte:Taupunkt:
Aussen-T/F 776 23-02-2019 16:35:00 10.8 C 47 % -0.04 C
777 23-02-2019 16:40:00 10.6 C 46 % -0.52 C
778 23-02-2019 16:45:00 10.4 C 52 % 0.98 C
779 23-02-2019 16:50:00 10.2 C 53 % 1.06 C
780 23-02-2019 16:55:00 9.9 C 54 % 1.04 C
781 23-02-2019 17:00:00 9.6 C 56 % 1.27 C
782 23-02-2019 17:05:00 9.3 C 59 % 1.71 C
783 23-02-2019 17:10:00 8.9 C 61 % 1.8 C
784 23-02-2019 17:15:00 8.7 C 62 % 1.84 C
785 23-02-2019 17:20:00 8.3 C 62 % 1.46 C
786 23-02-2019 17:25:00 8 C 64 % 1.62 C
787 23-02-2019 17:30:00 7.8 C 64 % 1.43 C
788 23-02-2019 17:35:00 7.5 C 65 % 1.36 C
789 23-02-2019 17:40:00 7.3 C 65 % 1.17 C
790 23-02-2019 17:45:00 7.1 C 66 % 1.19 C
791 23-02-2019 17:50:00 6.8 C 67 % 1.11 C
792 23-02-2019 17:55:00 6.6 C 67 % 0.92 C
793 23-02-2019 18:00:00 6.4 C 69 % 1.14 C
794 23-02-2019 18:05:00 6.2 C 70 % 1.15 C
795 23-02-2019 18:10:00 5.9 C 70 % 0.86 C
796 23-02-2019 18:15:00 5.7 C 70 % 0.67 C
797 23-02-2019 18:20:00 5.6 C 71 % 0.77 C
798 23-02-2019 18:25:00 5.4 C 71 % 0.58 C
799 23-02-2019 18:30:00 5.3 C 71 % 0.48 C
800 23-02-2019 18:35:00 5.2 C 71 % 0.38 C
Sensor: Nr:Datum:Temp:Feuchte:Taupunkt:
Aussen-T/F 801 23-02-2019 18:40:00 5.1 C 72 % 0.48 C
802 23-02-2019 18:45:00 5 C 72 % 0.38 C
803 23-02-2019 18:50:00 4.9 C 72 % 0.29 C
804 23-02-2019 18:55:00 4.8 C 72 % 0.19 C
805 23-02-2019 19:00:00 4.7 C 73 % 0.28 C
806 23-02-2019 19:05:00 4.7 C 73 % 0.28 C
807 23-02-2019 19:10:00 4.6 C 73 % 0.19 C
808 23-02-2019 19:15:00 4.6 C 74 % 0.38 C
809 23-02-2019 19:20:00 4.5 C 74 % 0.28 C
810 23-02-2019 19:25:00 4.4 C 73 % 0 C
811 23-02-2019 19:30:00 4.3 C 74 % 0.09 C
812 23-02-2019 19:35:00 4.3 C 75 % 0.27 C
813 23-02-2019 19:40:00 4.2 C 75 % 0.17 C
814 23-02-2019 19:45:00 4.1 C 74 % -0.11 C
815 23-02-2019 19:50:00 4.1 C 75 % 0.08 C
816 23-02-2019 19:55:00 3.9 C 75 % -0.12 C
817 23-02-2019 20:00:00 3.9 C 75 % -0.12 C
818 23-02-2019 20:05:00 3.8 C 75 % -0.21 C
819 23-02-2019 20:10:00 3.7 C 75 % -0.31 C
820 23-02-2019 20:15:00 3.7 C 75 % -0.31 C
821 23-02-2019 20:20:00 3.6 C 75 % -0.41 C
822 23-02-2019 20:25:00 3.5 C 76 % -0.32 C
823 23-02-2019 20:30:00 3.4 C 76 % -0.42 C
824 23-02-2019 20:35:00 3.3 C 77 % -0.34 C
825 23-02-2019 20:40:00 3.2 C 77 % -0.43 C
Sensor: Nr:Datum:Temp:Feuchte:Taupunkt:
Aussen-T/F 826 23-02-2019 20:45:00 3 C 77 % -0.63 C
827 23-02-2019 20:50:00 2.8 C 77 % -0.82 C
828 23-02-2019 20:55:00 2.7 C 78 % -0.74 C
829 23-02-2019 21:00:00 2.6 C 78 % -0.84 C
830 23-02-2019 21:05:00 2.4 C 79 % -0.86 C
831 23-02-2019 21:10:00 2.3 C 78 % -1.13 C
832 23-02-2019 21:15:00 2.2 C 78 % -1.23 C
833 23-02-2019 21:20:00 2.2 C 79 % -1.05 C
834 23-02-2019 21:25:00 2.1 C 79 % -1.15 C
835 23-02-2019 21:30:00 2.1 C 80 % -0.98 C
836 23-02-2019 21:35:00 2 C 79 % -1.25 C
837 23-02-2019 21:40:00 1.8 C 80 % -1.27 C
838 23-02-2019 21:45:00 1.7 C 80 % -1.37 C
839 23-02-2019 21:50:00 1.6 C 81 % -1.3 C
840 23-02-2019 21:55:00 1.4 C 81 % -1.49 C
841 23-02-2019 22:00:00 1.3 C 81 % -1.59 C
842 23-02-2019 22:05:00 1.2 C 82 % -1.52 C
843 23-02-2019 22:10:00 1.2 C 82 % -1.52 C
844 23-02-2019 22:15:00 1.1 C 83 % -1.46 C
845 23-02-2019 22:20:00 1.1 C 84 % -1.29 C
846 23-02-2019 22:25:00 1.1 C 84 % -1.29 C
847 23-02-2019 22:30:00 1.1 C 83 % -1.46 C
848 23-02-2019 22:35:00 0.9 C 83 % -1.65 C
849 23-02-2019 22:40:00 0.8 C 83 % -1.75 C
850 23-02-2019 22:45:00 0.7 C 83 % -1.85 C
Sensor: Nr:Datum:Temp:Feuchte:Taupunkt:
Aussen-T/F 851 23-02-2019 22:50:00 0.7 C 83 % -1.85 C
852 23-02-2019 22:55:00 0.6 C 83 % -1.95 C
853 23-02-2019 23:00:00 0.6 C 84 % -1.78 C
854 23-02-2019 23:05:00 0.6 C 84 % -1.78 C
855 23-02-2019 23:10:00 0.5 C 83 % -2.04 C
856 23-02-2019 23:15:00 0.4 C 83 % -2.14 C
857 23-02-2019 23:20:00 0.4 C 84 % -1.98 C
858 23-02-2019 23:25:00 0.5 C 83 % -2.04 C
859 23-02-2019 23:30:00 0.4 C 83 % -2.14 C
860 23-02-2019 23:35:00 0.5 C 83 % -2.04 C
861 23-02-2019 23:40:00 0.4 C 83 % -2.14 C
862 23-02-2019 23:45:00 0.4 C 84 % -1.98 C
863 23-02-2019 23:50:00 0.4 C 84 % -1.98 C
864 23-02-2019 23:55:00 0.4 C 84 % -1.98 C
865 24-02-2019 00:00:00 0.2 C 84 % -2.18 C
866 24-02-2019 00:05:00 0.1 C 84 % -2.27 C
867 24-02-2019 00:10:00 -0.1 C 84 % -2.47 C
868 24-02-2019 00:15:00 -0.2 C 85 % -2.41 C
869 24-02-2019 00:20:00 -0.3 C 85 % -2.51 C
870 24-02-2019 00:25:00 -0.3 C 85 % -2.51 C
871 24-02-2019 00:30:00 -0.3 C 86 % -2.35 C
872 24-02-2019 00:35:00 -0.3 C 86 % -2.35 C
873 24-02-2019 00:40:00 -0.4 C 86 % -2.45 C
874 24-02-2019 00:45:00 -0.4 C 86 % -2.45 C
875 24-02-2019 00:50:00 -0.5 C 87 % -2.39 C
Sensor: Nr:Datum:Temp:Feuchte:Taupunkt:
Aussen-T/F 876 24-02-2019 00:55:00 -0.6 C 87 % -2.49 C
877 24-02-2019 01:00:00 -0.6 C 87 % -2.49 C
878 24-02-2019 01:05:00 -0.6 C 87 % -2.49 C
879 24-02-2019 01:10:00 -0.6 C 87 % -2.49 C
880 24-02-2019 01:15:00 -0.6 C 87 % -2.49 C
881 24-02-2019 01:20:00 -0.6 C 87 % -2.49 C
882 24-02-2019 01:25:00 -0.6 C 87 % -2.49 C
883 24-02-2019 01:30:00 -0.7 C 87 % -2.59 C
884 24-02-2019 01:35:00 -0.7 C 87 % -2.59 C
885 24-02-2019 01:40:00 -0.7 C 87 % -2.59 C
886 24-02-2019 01:45:00 -0.7 C 87 % -2.59 C
887 24-02-2019 01:50:00 -0.8 C 87 % -2.69 C
888 24-02-2019 01:55:00 -0.8 C 87 % -2.69 C
889 24-02-2019 02:00:00 -0.9 C 87 % -2.79 C
890 24-02-2019 02:05:00 -1 C 87 % -2.88 C
891 24-02-2019 02:10:00 -1.1 C 88 % -2.83 C
892 24-02-2019 02:15:00 -1.1 C 88 % -2.83 C
893 24-02-2019 02:20:00 -1.1 C 88 % -2.83 C
894 24-02-2019 02:25:00 -1.2 C 88 % -2.93 C
895 24-02-2019 02:30:00 -1.2 C 88 % -2.93 C
896 24-02-2019 02:35:00 -1.2 C 88 % -2.93 C
897 24-02-2019 02:40:00 -1.3 C 88 % -3.03 C
898 24-02-2019 02:45:00 -1.3 C 88 % -3.03 C
899 24-02-2019 02:50:00 -1.3 C 88 % -3.03 C
900 24-02-2019 02:55:00 -1.3 C 89 % -2.88 C
Sensor: Nr:Datum:Temp:Feuchte:Taupunkt:
Aussen-T/F 901 24-02-2019 03:00:00 -1.3 C 89 % -2.88 C
902 24-02-2019 03:05:00 -1.4 C 89 % -2.97 C
903 24-02-2019 03:10:00 -1.4 C 89 % -2.97 C
904 24-02-2019 03:15:00 -1.4 C 89 % -2.97 C
905 24-02-2019 03:20:00 -1.4 C 89 % -2.97 C
906 24-02-2019 03:25:00 -1.5 C 89 % -3.07 C
907 24-02-2019 03:30:00 -1.5 C 89 % -3.07 C
908 24-02-2019 03:35:00 -1.6 C 89 % -3.17 C
909 24-02-2019 03:40:00 -1.6 C 89 % -3.17 C
910 24-02-2019 03:45:00 -1.6 C 89 % -3.17 C
911 24-02-2019 03:50:00 -1.6 C 90 % -3.02 C
912 24-02-2019 03:55:00 -1.7 C 90 % -3.12 C
913 24-02-2019 04:00:00 -1.7 C 90 % -3.12 C
914 24-02-2019 04:05:00 -1.7 C 90 % -3.12 C
915 24-02-2019 04:10:00 -1.7 C 90 % -3.12 C
916 24-02-2019 04:15:00 -1.6 C 90 % -3.02 C
917 24-02-2019 04:20:00 -1.7 C 90 % -3.12 C
918 24-02-2019 04:25:00 -1.7 C 90 % -3.12 C
919 24-02-2019 04:30:00 -1.7 C 90 % -3.12 C
920 24-02-2019 04:35:00 -1.8 C 90 % -3.22 C
921 24-02-2019 04:40:00 -1.8 C 90 % -3.22 C
922 24-02-2019 04:45:00 -1.8 C 90 % -3.22 C
923 24-02-2019 04:50:00 -1.8 C 90 % -3.22 C
924 24-02-2019 04:55:00 -1.8 C 90 % -3.22 C
925 24-02-2019 05:00:00 -1.8 C 90 % -3.22 C
Sensor: Nr:Datum:Temp:Feuchte:Taupunkt:
Aussen-T/F 926 24-02-2019 05:05:00 -1.8 C 90 % -3.22 C
927 24-02-2019 05:10:00 -1.8 C 90 % -3.22 C
928 24-02-2019 05:15:00 -1.8 C 90 % -3.22 C
929 24-02-2019 05:20:00 -1.8 C 90 % -3.22 C
930 24-02-2019 05:25:00 -1.9 C 90 % -3.32 C
931 24-02-2019 05:30:00 -1.9 C 90 % -3.32 C
932 24-02-2019 05:35:00 -1.9 C 90 % -3.32 C
933 24-02-2019 05:40:00 -2 C 90 % -3.42 C
934 24-02-2019 05:45:00 -2 C 90 % -3.42 C
935 24-02-2019 05:50:00 -1.9 C 90 % -3.32 C
936 24-02-2019 05:55:00 -1.9 C 90 % -3.32 C
937 24-02-2019 06:00:00 -1.9 C 90 % -3.32 C
938 24-02-2019 06:05:00 -1.9 C 90 % -3.32 C
939 24-02-2019 06:10:00 -2 C 90 % -3.42 C
940 24-02-2019 06:15:00 -2 C 90 % -3.42 C
941 24-02-2019 06:20:00 -2.1 C 90 % -3.52 C
942 24-02-2019 06:25:00 -2.1 C 90 % -3.52 C
943 24-02-2019 06:30:00 -2.1 C 91 % -3.37 C
944 24-02-2019 06:35:00 -2.1 C 91 % -3.37 C
945 24-02-2019 06:40:00 -2.1 C 91 % -3.37 C
946 24-02-2019 06:45:00 -2.1 C 91 % -3.37 C
947 24-02-2019 06:50:00 -2.2 C 91 % -3.47 C
948 24-02-2019 06:55:00 -2.2 C 91 % -3.47 C
949 24-02-2019 07:00:00 -2.2 C 91 % -3.47 C
950 24-02-2019 07:05:00 -2.3 C 91 % -3.57 C
Sensor: Nr:Datum:Temp:Feuchte:Taupunkt:
Aussen-T/F 951 24-02-2019 07:10:00 -2.3 C 91 % -3.57 C
952 24-02-2019 07:15:00 -2.3 C 91 % -3.57 C
953 24-02-2019 07:20:00 -2.4 C 91 % -3.66 C
954 24-02-2019 07:25:00 -2.4 C 91 % -3.66 C
955 24-02-2019 07:30:00 -2.4 C 91 % -3.66 C
956 24-02-2019 07:35:00 -2.4 C 91 % -3.66 C
957 24-02-2019 07:40:00 -2.4 C 91 % -3.66 C
958 24-02-2019 07:45:00 -2.4 C 92 % -3.52 C
959 24-02-2019 07:50:00 -2.4 C 92 % -3.52 C
960 24-02-2019 07:55:00 -2.4 C 92 % -3.52 C
961 24-02-2019 08:00:00 -2.3 C 92 % -3.42 C
962 24-02-2019 08:05:00 -2.3 C 92 % -3.42 C
963 24-02-2019 08:10:00 -2.2 C 92 % -3.32 C
964 24-02-2019 08:15:00 -2.2 C 92 % -3.32 C
965 24-02-2019 08:20:00 -2.2 C 92 % -3.32 C
966 24-02-2019 08:25:00 -2.1 C 92 % -3.22 C
967 24-02-2019 08:30:00 -2.1 C 92 % -3.22 C
968 24-02-2019 08:35:00 -2 C 92 % -3.12 C
969 24-02-2019 08:40:00 -2 C 92 % -3.12 C
970 24-02-2019 08:45:00 -2 C 92 % -3.12 C
971 24-02-2019 08:50:00 -2 C 92 % -3.12 C
972 24-02-2019 08:55:00 -1.9 C 92 % -3.02 C
973 24-02-2019 09:00:00 -1.9 C 92 % -3.02 C
974 24-02-2019 09:05:00 -1.8 C 92 % -2.92 C
975 24-02-2019 09:10:00 -1.8 C 92 % -2.92 C
Sensor: Nr:Datum:Temp:Feuchte:Taupunkt:
Aussen-T/F 976 24-02-2019 09:15:00 -1.7 C 92 % -2.83 C
977 24-02-2019 09:20:00 -1.6 C 92 % -2.73 C
978 24-02-2019 09:25:00 -1.6 C 92 % -2.73 C
979 24-02-2019 09:30:00 -1.5 C 92 % -2.63 C
980 24-02-2019 09:35:00 -1.4 C 92 % -2.53 C
981 24-02-2019 09:40:00 -1.3 C 92 % -2.43 C
982 24-02-2019 09:45:00 -1.2 C 92 % -2.33 C
983 24-02-2019 09:50:00 -1.1 C 92 % -2.23 C
984 24-02-2019 09:55:00 -1 C 91 % -2.28 C
985 24-02-2019 10:00:00 -0.9 C 91 % -2.18 C
986 24-02-2019 10:05:00 -0.8 C 91 % -2.08 C
987 24-02-2019 10:10:00 -0.6 C 90 % -2.03 C
988 24-02-2019 10:15:00 -0.4 C 90 % -1.84 C
989 24-02-2019 10:20:00 -0.2 C 90 % -1.64 C
990 24-02-2019 10:25:00 0 C 89 % -1.59 C
991 24-02-2019 10:30:00 0.3 C 89 % -1.29 C
992 24-02-2019 10:35:00 0.7 C 88 % -1.05 C
993 24-02-2019 10:40:00 1 C 88 % -0.76 C
994 24-02-2019 10:45:00 1.4 C 87 % -0.52 C
995 24-02-2019 10:50:00 1.7 C 86 % -0.38 C
996 24-02-2019 10:55:00 2.2 C 85 % -0.05 C
997 24-02-2019 11:00:00 2.6 C 83 % 0.01 C
998 24-02-2019 11:05:00 2.9 C 82 % 0.14 C
999 24-02-2019 11:10:00 3.2 C 82 % 0.43 C
1000 24-02-2019 11:15:00 3.4 C 81 % 0.46 C
Sensor: Nr:Datum:Temp:Feuchte:Taupunkt:
Aussen-T/F 1001 24-02-2019 11:20:00 3.7 C 80 % 0.58 C
1002 24-02-2019 11:25:00 3.9 C 79 % 0.6 C
1003 24-02-2019 11:30:00 4.2 C 76 % 0.36 C
1004 24-02-2019 11:35:00 4.6 C 75 % 0.56 C
1005 24-02-2019 11:40:00 4.8 C 76 % 0.94 C
1006 24-02-2019 11:45:00 5.1 C 74 % 0.86 C
1007 24-02-2019 11:50:00 5.3 C 74 % 1.05 C
1008 24-02-2019 11:55:00 5.4 C 73 % 0.96 C
1009 24-02-2019 12:00:00 5.6 C 73 % 1.15 C
1010 24-02-2019 12:05:00 5.7 C 72 % 1.06 C
1011 24-02-2019 12:10:00 5.9 C 72 % 1.25 C
1012 24-02-2019 12:15:00 6.3 C 70 % 1.24 C
1013 24-02-2019 12:20:00 6.6 C 69 % 1.33 C
1014 24-02-2019 12:25:00 6.9 C 68 % 1.41 C
1015 24-02-2019 12:30:00 7.4 C 67 % 1.69 C
1016 24-02-2019 12:35:00 8.1 C 66 % 2.14 C
1017 24-02-2019 12:40:00 8.6 C 63 % 1.97 C
1018 24-02-2019 12:45:00 8.8 C 58 % 1 C
1019 24-02-2019 12:50:00 9.1 C 58 % 1.29 C
1020 24-02-2019 12:55:00 9.2 C 57 % 1.14 C
1021 24-02-2019 13:00:00 9.2 C 55 % 0.64 C
1022 24-02-2019 13:05:00 9.3 C 49 % -0.85 C
1023 24-02-2019 13:10:00 9.4 C 48 % -1.04 C
1024 24-02-2019 13:15:00 9.7 C 46 % -1.34 C
1025 24-02-2019 13:20:00 9.9 C 42 % -2.39 C
Sensor: Nr:Datum:Temp:Feuchte:Taupunkt:
Aussen-T/F 1026 24-02-2019 13:25:00 10.3 C 45 % -1.1 C
1027 24-02-2019 13:30:00 10.6 C 44 % -1.13 C
1028 24-02-2019 13:35:00 10.9 C 44 % -0.86 C
1029 24-02-2019 13:40:00 11.2 C 40 % -1.88 C
1030 24-02-2019 13:45:00 11.4 C 40 % -1.7 C
1031 24-02-2019 13:50:00 11.7 C 40 % -1.43 C
1032 24-02-2019 13:55:00 11.9 C 37 % -2.31 C
1033 24-02-2019 14:00:00 11.9 C 35 % -3.05 C
1034 24-02-2019 14:05:00 11.9 C 36 % -2.68 C
1035 24-02-2019 14:10:00 11.9 C 36 % -2.68 C
1036 24-02-2019 14:15:00 11.9 C 36 % -2.68 C
1037 24-02-2019 14:20:00 11.9 C 38 % -1.95 C
1038 24-02-2019 14:25:00 11.8 C 37 % -2.4 C
1039 24-02-2019 14:30:00 11.8 C 37 % -2.4 C
1040 24-02-2019 14:35:00 11.8 C 38 % -2.04 C
1041 24-02-2019 14:40:00 11.8 C 40 % -1.34 C
1042 24-02-2019 14:45:00 11.9 C 36 % -2.68 C
1043 24-02-2019 14:50:00 12 C 35 % -2.97 C
1044 24-02-2019 14:55:00 12.1 C 34 % -3.27 C
1045 24-02-2019 15:00:00 12.2 C 36 % -2.41 C
1046 24-02-2019 15:05:00 12.3 C 35 % -2.7 C
1047 24-02-2019 15:10:00 12.4 C 35 % -2.61 C
1048 24-02-2019 15:15:00 12.4 C 35 % -2.61 C
1049 24-02-2019 15:20:00 12.5 C 34 % -2.91 C
1050 24-02-2019 15:25:00 12.6 C 36 % -2.06 C
Sensor: Nr:Datum:Temp:Feuchte:Taupunkt:
Aussen-T/F 1051 24-02-2019 15:30:00 12.6 C 39 % -0.97 C
1052 24-02-2019 15:35:00 12.6 C 44 % 0.69 C
1053 24-02-2019 15:40:00 12.4 C 42 % -0.14 C
1054 24-02-2019 15:45:00 12.4 C 44 % 0.5 C
1055 24-02-2019 15:50:00 12.3 C 44 % 0.41 C
1056 24-02-2019 15:55:00 12.3 C 44 % 0.41 C
1057 24-02-2019 16:00:00 12.3 C 45 % 0.72 C
1058 24-02-2019 16:05:00 12.2 C 46 % 0.94 C
1059 24-02-2019 16:10:00 12.3 C 41 % -0.56 C
1060 24-02-2019 16:15:00 12.4 C 44 % 0.5 C
1061 24-02-2019 16:20:00 12.3 C 45 % 0.72 C
1062 24-02-2019 16:25:00 12.2 C 44 % 0.32 C
1063 24-02-2019 16:30:00 11.9 C 46 % 0.66 C
1064 24-02-2019 16:35:00 11.6 C 47 % 0.69 C
1065 24-02-2019 16:40:00 11.3 C 48 % 0.7 C
1066 24-02-2019 16:45:00 11.2 C 50 % 1.18 C
1067 24-02-2019 16:50:00 11.1 C 51 % 1.36 C
1068 24-02-2019 16:55:00 10.9 C 51 % 1.17 C
1069 24-02-2019 17:00:00 10.8 C 52 % 1.35 C
1070 24-02-2019 17:05:00 10.7 C 52 % 1.26 C
1071 24-02-2019 17:10:00 10.7 C 52 % 1.26 C
1072 24-02-2019 17:15:00 10.5 C 52 % 1.07 C
1073 24-02-2019 17:20:00 10.4 C 52 % 0.98 C
1074 24-02-2019 17:25:00 10.3 C 52 % 0.89 C
1075 24-02-2019 17:30:00 10.3 C 52 % 0.89 C
Sensor: Nr:Datum:Temp:Feuchte:Taupunkt:
Aussen-T/F 1076 24-02-2019 17:35:00 10.3 C 52 % 0.89 C
1077 24-02-2019 17:40:00 10.2 C 53 % 1.06 C
1078 24-02-2019 17:45:00 10 C 53 % 0.87 C
1079 24-02-2019 17:50:00 9.8 C 53 % 0.69 C
1080 24-02-2019 17:55:00 9.6 C 54 % 0.76 C
1081 24-02-2019 18:00:00 9.3 C 55 % 0.74 C
1082 24-02-2019 18:05:00 9.1 C 56 % 0.8 C
1083 24-02-2019 18:10:00 8.8 C 56 % 0.52 C
1084 24-02-2019 18:15:00 8.7 C 56 % 0.43 C
1085 24-02-2019 18:20:00 8.6 C 56 % 0.33 C
1086 24-02-2019 18:25:00 8.4 C 56 % 0.15 C
1087 24-02-2019 18:30:00 8.4 C 57 % 0.39 C
1088 24-02-2019 18:35:00 8.3 C 56 % 0.05 C
1089 24-02-2019 18:40:00 8.2 C 57 % 0.2 C
1090 24-02-2019 18:45:00 8 C 58 % 0.25 C
1091 24-02-2019 18:50:00 7.8 C 59 % 0.3 C
1092 24-02-2019 18:55:00 7.7 C 58 % -0.03 C
1093 24-02-2019 19:00:00 7.6 C 59 % 0.11 C
1094 24-02-2019 19:05:00 7.4 C 59 % -0.07 C
1095 24-02-2019 19:10:00 7.2 C 60 % -0.03 C
1096 24-02-2019 19:15:00 7.2 C 60 % -0.03 C
1097 24-02-2019 19:20:00 7.1 C 59 % -0.36 C
1098 24-02-2019 19:25:00 7 C 62 % 0.23 C
1099 24-02-2019 19:30:00 6.8 C 61 % -0.18 C
1100 24-02-2019 19:35:00 6.7 C 61 % -0.28 C
Sensor: Nr:Datum:Temp:Feuchte:Taupunkt:
Aussen-T/F 1101 24-02-2019 19:40:00 6.6 C 62 % -0.15 C
1102 24-02-2019 19:45:00 6.4 C 62 % -0.34 C
1103 24-02-2019 19:50:00 6.3 C 64 % 0 C
1104 24-02-2019 19:55:00 6.1 C 64 % -0.19 C
1105 24-02-2019 20:00:00 5.9 C 62 % -0.81 C
1106 24-02-2019 20:05:00 5.8 C 65 % -0.26 C
1107 24-02-2019 20:10:00 5.7 C 64 % -0.56 C
1108 24-02-2019 20:15:00 5.5 C 64 % -0.75 C
1109 24-02-2019 20:20:00 5.2 C 65 % -0.83 C
1110 24-02-2019 20:25:00 4.9 C 67 % -0.7 C
1111 24-02-2019 20:30:00 4.6 C 69 % -0.58 C
1112 24-02-2019 20:35:00 4.4 C 68 % -0.98 C
1113 24-02-2019 20:40:00 4.3 C 67 % -1.27 C
1114 24-02-2019 20:45:00 4.4 C 68 % -0.98 C
1115 24-02-2019 20:50:00 4.3 C 68 % -1.07 C
1116 24-02-2019 20:55:00 4.2 C 70 % -0.77 C
1117 24-02-2019 21:00:00 4.1 C 71 % -0.67 C
1118 24-02-2019 21:05:00 3.9 C 70 % -1.06 C
1119 24-02-2019 21:10:00 3.8 C 71 % -0.96 C
1120 24-02-2019 21:15:00 3.7 C 71 % -1.06 C
1121 24-02-2019 21:20:00 3.7 C 71 % -1.06 C
1122 24-02-2019 21:25:00 3.5 C 72 % -1.06 C
1123 24-02-2019 21:30:00 3.3 C 71 % -1.44 C
1124 24-02-2019 21:35:00 3.1 C 72 % -1.45 C
1125 24-02-2019 21:40:00 2.9 C 73 % -1.45 C
Sensor: Nr:Datum:Temp:Feuchte:Taupunkt:
Aussen-T/F 1126 24-02-2019 21:45:00 2.8 C 73 % -1.55 C
1127 24-02-2019 21:50:00 2.8 C 72 % -1.73 C
1128 24-02-2019 21:55:00 2.8 C 71 % -1.92 C
1129 24-02-2019 22:00:00 2.8 C 71 % -1.92 C
1130 24-02-2019 22:05:00 2.8 C 74 % -1.36 C
1131 24-02-2019 22:10:00 2.6 C 76 % -1.19 C
1132 24-02-2019 22:15:00 2.5 C 77 % -1.11 C
1133 24-02-2019 22:20:00 2.4 C 76 % -1.39 C
1134 24-02-2019 22:25:00 2.4 C 76 % -1.39 C
1135 24-02-2019 22:30:00 2.4 C 74 % -1.75 C
1136 24-02-2019 22:35:00 2.5 C 74 % -1.65 C
1137 24-02-2019 22:40:00 2.6 C 74 % -1.56 C
1138 24-02-2019 22:45:00 2.6 C 74 % -1.56 C
1139 24-02-2019 22:50:00 2.5 C 74 % -1.65 C
1140 24-02-2019 22:55:00 2.4 C 74 % -1.75 C
1141 24-02-2019 23:00:00 2.2 C 75 % -1.76 C
1142 24-02-2019 23:05:00 2.1 C 76 % -1.68 C
1143 24-02-2019 23:10:00 1.9 C 77 % -1.69 C
1144 24-02-2019 23:15:00 1.7 C 78 % -1.71 C
1145 24-02-2019 23:20:00 1.6 C 79 % -1.64 C
1146 24-02-2019 23:25:00 1.5 C 79 % -1.74 C
1147 24-02-2019 23:30:00 1.6 C 78 % -1.81 C
1148 24-02-2019 23:35:00 1.7 C 77 % -1.89 C
1149 24-02-2019 23:40:00 1.8 C 77 % -1.79 C
1150 24-02-2019 23:45:00 1.8 C 77 % -1.79 C
Sensor: Nr:Datum:Temp:Feuchte:Taupunkt:
Aussen-T/F 1151 24-02-2019 23:50:00 1.9 C 77 % -1.69 C
1152 24-02-2019 23:55:00 2 C 76 % -1.77 C
1153 25-02-2019 00:00:00 1.8 C 76 % -1.97 C
1154 25-02-2019 00:05:00 1.8 C 77 % -1.79 C
1155 25-02-2019 00:10:00 1.7 C 77 % -1.89 C
1156 25-02-2019 00:15:00 1.4 C 77 % -2.18 C
1157 25-02-2019 00:20:00 1.3 C 78 % -2.1 C
1158 25-02-2019 00:25:00 1.2 C 79 % -2.03 C
1159 25-02-2019 00:30:00 1.1 C 80 % -1.96 C
1160 25-02-2019 00:35:00 0.9 C 80 % -2.15 C
1161 25-02-2019 00:40:00 0.8 C 80 % -2.25 C
1162 25-02-2019 00:45:00 0.7 C 81 % -2.18 C
1163 25-02-2019 00:50:00 0.7 C 81 % -2.18 C
1164 25-02-2019 00:55:00 0.7 C 81 % -2.18 C
1165 25-02-2019 01:00:00 1 C 81 % -1.88 C
1166 25-02-2019 01:05:00 1.2 C 80 % -1.86 C
1167 25-02-2019 01:10:00 1.3 C 80 % -1.76 C
1168 25-02-2019 01:15:00 1.1 C 80 % -1.96 C
1169 25-02-2019 01:20:00 0.9 C 81 % -1.98 C
1170 25-02-2019 01:25:00 0.9 C 81 % -1.98 C
1171 25-02-2019 01:30:00 0.9 C 81 % -1.98 C
1172 25-02-2019 01:35:00 1 C 81 % -1.88 C
1173 25-02-2019 01:40:00 0.9 C 81 % -1.98 C
1174 25-02-2019 01:45:00 0.7 C 81 % -2.18 C
1175 25-02-2019 01:50:00 0.6 C 82 % -2.11 C
Sensor: Nr:Datum:Temp:Feuchte:Taupunkt:
Aussen-T/F 1176 25-02-2019 01:55:00 0.6 C 83 % -1.95 C
1177 25-02-2019 02:00:00 0.7 C 83 % -1.85 C
1178 25-02-2019 02:05:00 0.6 C 82 % -2.11 C
1179 25-02-2019 02:10:00 0.4 C 82 % -2.3 C
1180 25-02-2019 02:15:00 0.3 C 83 % -2.24 C
1181 25-02-2019 02:20:00 0.2 C 83 % -2.34 C
1182 25-02-2019 02:25:00 0 C 83 % -2.53 C
1183 25-02-2019 02:30:00 -0.1 C 84 % -2.47 C
1184 25-02-2019 02:35:00 -0.1 C 84 % -2.47 C
1185 25-02-2019 02:40:00 -0.2 C 85 % -2.41 C
1186 25-02-2019 02:45:00 -0.2 C 85 % -2.41 C
1187 25-02-2019 02:50:00 -0.1 C 85 % -2.31 C
1188 25-02-2019 02:55:00 0.1 C 85 % -2.11 C
1189 25-02-2019 03:00:00 0.2 C 84 % -2.18 C
1190 25-02-2019 03:05:00 0.3 C 84 % -2.08 C
1191 25-02-2019 03:10:00 0.3 C 84 % -2.08 C
1192 25-02-2019 03:15:00 0.3 C 83 % -2.24 C
1193 25-02-2019 03:20:00 0.2 C 83 % -2.34 C
1194 25-02-2019 03:25:00 0.1 C 83 % -2.44 C
1195 25-02-2019 03:30:00 -0.1 C 83 % -2.63 C
1196 25-02-2019 03:35:00 -0.2 C 84 % -2.57 C
1197 25-02-2019 03:40:00 -0.2 C 85 % -2.41 C
1198 25-02-2019 03:45:00 -0.3 C 85 % -2.51 C
1199 25-02-2019 03:50:00 -0.3 C 85 % -2.51 C
1200 25-02-2019 03:55:00 -0.4 C 85 % -2.61 C
Sensor: Nr:Datum:Temp:Feuchte:Taupunkt:
Aussen-T/F 1201 25-02-2019 04:00:00 -0.5 C 85 % -2.71 C
1202 25-02-2019 04:05:00 -0.5 C 86 % -2.55 C
1203 25-02-2019 04:10:00 -0.5 C 86 % -2.55 C
1204 25-02-2019 04:15:00 -0.5 C 86 % -2.55 C
1205 25-02-2019 04:20:00 -0.6 C 86 % -2.65 C
1206 25-02-2019 04:25:00 -0.6 C 86 % -2.65 C
1207 25-02-2019 04:30:00 -0.6 C 86 % -2.65 C
1208 25-02-2019 04:35:00 -0.6 C 86 % -2.65 C
1209 25-02-2019 04:40:00 -0.6 C 86 % -2.65 C
1210 25-02-2019 04:45:00 -0.7 C 86 % -2.74 C
1211 25-02-2019 04:50:00 -0.7 C 87 % -2.59 C
1212 25-02-2019 04:55:00 -0.6 C 87 % -2.49 C
1213 25-02-2019 05:00:00 -0.6 C 87 % -2.49 C
1214 25-02-2019 05:05:00 -0.6 C 87 % -2.49 C
1215 25-02-2019 05:10:00 -0.6 C 87 % -2.49 C
1216 25-02-2019 05:15:00 -0.6 C 87 % -2.49 C
1217 25-02-2019 05:20:00 -0.7 C 87 % -2.59 C
1218 25-02-2019 05:25:00 -0.8 C 87 % -2.69 C
1219 25-02-2019 05:30:00 -0.8 C 87 % -2.69 C
1220 25-02-2019 05:35:00 -0.8 C 87 % -2.69 C
1221 25-02-2019 05:40:00 -0.9 C 87 % -2.79 C
1222 25-02-2019 05:45:00 -0.8 C 88 % -2.53 C
1223 25-02-2019 05:50:00 -0.7 C 88 % -2.44 C
1224 25-02-2019 05:55:00 -0.6 C 88 % -2.34 C
1225 25-02-2019 06:00:00 -0.6 C 88 % -2.34 C
Sensor: Nr:Datum:Temp:Feuchte:Taupunkt:
Aussen-T/F 1226 25-02-2019 06:05:00 -0.6 C 87 % -2.49 C
1227 25-02-2019 06:10:00 -0.7 C 87 % -2.59 C
1228 25-02-2019 06:15:00 -0.8 C 87 % -2.69 C
1229 25-02-2019 06:20:00 -0.8 C 88 % -2.53 C
1230 25-02-2019 06:25:00 -0.8 C 88 % -2.53 C
1231 25-02-2019 06:30:00 -0.9 C 88 % -2.63 C
1232 25-02-2019 06:35:00 -1 C 88 % -2.73 C
1233 25-02-2019 06:40:00 -1.1 C 88 % -2.83 C
1234 25-02-2019 06:45:00 -1.1 C 88 % -2.83 C
1235 25-02-2019 06:50:00 -1.1 C 89 % -2.68 C
1236 25-02-2019 06:55:00 -0.9 C 89 % -2.48 C
1237 25-02-2019 07:00:00 -0.9 C 88 % -2.63 C
1238 25-02-2019 07:05:00 -1 C 88 % -2.73 C
1239 25-02-2019 07:10:00 -1.1 C 88 % -2.83 C
1240 25-02-2019 07:15:00 -1.1 C 88 % -2.83 C
1241 25-02-2019 07:20:00 -1.2 C 88 % -2.93 C
1242 25-02-2019 07:25:00 -1.2 C 88 % -2.93 C
1243 25-02-2019 07:30:00 -1.3 C 88 % -3.03 C
1244 25-02-2019 07:35:00 -1.3 C 88 % -3.03 C
1245 25-02-2019 07:40:00 -1.3 C 88 % -3.03 C
1246 25-02-2019 07:45:00 -1.4 C 88 % -3.13 C
1247 25-02-2019 07:50:00 -1.4 C 89 % -2.97 C
1248 25-02-2019 07:55:00 -1.4 C 89 % -2.97 C
1249 25-02-2019 08:00:00 -1.4 C 89 % -2.97 C
1250 25-02-2019 08:05:00 -1.3 C 90 % -2.73 C
Sensor: Nr:Datum:Temp:Feuchte:Taupunkt:
Aussen-T/F 1251 25-02-2019 08:10:00 -1.2 C 90 % -2.63 C
1252 25-02-2019 08:15:00 -1.2 C 90 % -2.63 C
1253 25-02-2019 08:20:00 -1.2 C 89 % -2.78 C
1254 25-02-2019 08:25:00 -1.3 C 89 % -2.88 C
1255 25-02-2019 08:30:00 -1.2 C 90 % -2.63 C
1256 25-02-2019 08:35:00 -1.2 C 90 % -2.63 C
1257 25-02-2019 08:40:00 -1.1 C 90 % -2.53 C
1258 25-02-2019 08:45:00 -1.1 C 90 % -2.53 C
1259 25-02-2019 08:50:00 -1.1 C 90 % -2.53 C
1260 25-02-2019 08:55:00 -1.1 C 90 % -2.53 C
1261 25-02-2019 09:00:00 -0.9 C 90 % -2.33 C
1262 25-02-2019 09:05:00 -0.9 C 89 % -2.48 C
1263 25-02-2019 09:10:00 -0.9 C 89 % -2.48 C
1264 25-02-2019 09:15:00 -0.9 C 89 % -2.48 C
1265 25-02-2019 09:20:00 -0.8 C 89 % -2.38 C
1266 25-02-2019 09:25:00 -0.8 C 89 % -2.38 C
1267 25-02-2019 09:30:00 -0.7 C 89 % -2.28 C
1268 25-02-2019 09:35:00 -0.6 C 89 % -2.18 C
1269 25-02-2019 09:40:00 -0.6 C 89 % -2.18 C
1270 25-02-2019 09:45:00 -0.5 C 88 % -2.24 C
1271 25-02-2019 09:50:00 -0.4 C 88 % -2.14 C
1272 25-02-2019 09:55:00 -0.3 C 88 % -2.04 C
1273 25-02-2019 10:00:00 -0.3 C 88 % -2.04 C
1274 25-02-2019 10:05:00 -0.2 C 88 % -1.94 C
1275 25-02-2019 10:10:00 0 C 88 % -1.74 C
Sensor: Nr:Datum:Temp:Feuchte:Taupunkt:
Aussen-T/F 1276 25-02-2019 10:15:00 0.1 C 87 % -1.8 C
1277 25-02-2019 10:20:00 0.3 C 87 % -1.6 C
1278 25-02-2019 10:25:00 0.5 C 87 % -1.41 C
1279 25-02-2019 10:30:00 0.7 C 88 % -1.05 C
1280 25-02-2019 10:35:00 1 C 87 % -0.91 C
1281 25-02-2019 10:40:00 1.3 C 87 % -0.62 C
1282 25-02-2019 10:45:00 1.7 C 87 % -0.23 C
1283 25-02-2019 10:50:00 2.1 C 86 % 0.01 C
1284 25-02-2019 10:55:00 2.6 C 85 % 0.34 C
1285 25-02-2019 11:00:00 2.9 C 82 % 0.14 C
1286 25-02-2019 11:05:00 3.3 C 81 % 0.36 C
1287 25-02-2019 11:10:00 3.7 C 82 % 0.92 C
1288 25-02-2019 11:15:00 3.9 C 79 % 0.6 C
1289 25-02-2019 11:20:00 4.3 C 78 % 0.81 C
1290 25-02-2019 11:25:00 4.6 C 77 % 0.92 C
1291 25-02-2019 11:30:00 4.9 C 78 % 1.39 C
1292 25-02-2019 11:35:00 5.1 C 77 % 1.41 C
1293 25-02-2019 11:40:00 5.4 C 77 % 1.7 C
1294 25-02-2019 11:45:00 5.8 C 76 % 1.91 C
1295 25-02-2019 11:50:00 6 C 74 % 1.73 C
1296 25-02-2019 11:55:00 6.2 C 72 % 1.54 C
1297 25-02-2019 12:00:00 6.5 C 72 % 1.83 C
1298 25-02-2019 12:05:00 6.8 C 72 % 2.12 C
1299 25-02-2019 12:10:00 7.3 C 71 % 2.4 C
1300 25-02-2019 12:15:00 7.7 C 70 % 2.58 C
Sensor: Nr:Datum:Temp:Feuchte:Taupunkt:
Aussen-T/F 1301 25-02-2019 12:20:00 8.1 C 69 % 2.77 C
1302 25-02-2019 12:25:00 8.4 C 69 % 3.05 C
1303 25-02-2019 12:30:00 8.9 C 68 % 3.32 C
1304 25-02-2019 12:35:00 9.5 C 66 % 3.47 C
1305 25-02-2019 12:40:00 9.9 C 64 % 3.42 C
1306 25-02-2019 12:45:00 10.3 C 62 % 3.35 C
1307 25-02-2019 12:50:00 10.5 C 62 % 3.54 C
1308 25-02-2019 12:55:00 10.6 C 61 % 3.4 C
1309 25-02-2019 13:00:00 10.7 C 61 % 3.5 C
1310 25-02-2019 13:05:00 11 C 62 % 4.01 C
1311 25-02-2019 13:10:00 11.3 C 60 % 3.83 C
1312 25-02-2019 13:15:00 11.6 C 53 % 2.36 C
1313 25-02-2019 13:20:00 11.9 C 54 % 2.9 C
1314 25-02-2019 13:25:00 12.3 C 47 % 1.33 C
1315 25-02-2019 13:30:00 12.7 C 51 % 2.84 C
1316 25-02-2019 13:35:00 13.1 C 50 % 2.93 C
1317 25-02-2019 13:40:00 13.4 C 53 % 4.03 C
1318 25-02-2019 13:45:00 13.8 C 51 % 3.85 C
1319 25-02-2019 13:50:00 14.2 C 50 % 3.94 C
1320 25-02-2019 13:55:00 14.6 C 48 % 3.73 C
1321 25-02-2019 14:00:00 14.8 C 49 % 4.2 C
1322 25-02-2019 14:05:00 14.9 C 48 % 4 C
1323 25-02-2019 14:10:00 15 C 49 % 4.39 C
1324 25-02-2019 14:15:00 15.1 C 48 % 4.18 C
1325 25-02-2019 14:20:00 15 C 45 % 3.18 C
Sensor: Nr:Datum:Temp:Feuchte:Taupunkt:
Aussen-T/F 1326 25-02-2019 14:25:00 14.9 C 45 % 3.09 C
1327 25-02-2019 14:30:00 14.7 C 46 % 3.22 C
1328 25-02-2019 14:35:00 14.6 C 46 % 3.12 C
1329 25-02-2019 14:40:00 14.4 C 44 % 2.32 C
1330 25-02-2019 14:45:00 14.4 C 46 % 2.94 C
1331 25-02-2019 14:50:00 14.5 C 46 % 3.03 C
1332 25-02-2019 14:55:00 14.6 C 48 % 3.73 C
1333 25-02-2019 15:00:00 14.5 C 48 % 3.63 C
1334 25-02-2019 15:05:00 14.5 C 46 % 3.03 C
1335 25-02-2019 15:10:00 14.5 C 47 % 3.34 C
1336 25-02-2019 15:15:00 14.4 C 50 % 4.12 C
1337 25-02-2019 15:20:00 14.4 C 47 % 3.25 C
1338 25-02-2019 15:25:00 14.3 C 49 % 3.74 C
1339 25-02-2019 15:30:00 14.2 C 50 % 3.94 C
1340 25-02-2019 15:35:00 14 C 51 % 4.04 C
1341 25-02-2019 15:40:00 13.9 C 52 % 4.22 C
1342 25-02-2019 15:45:00 13.8 C 52 % 4.13 C
1343 25-02-2019 15:50:00 13.8 C 52 % 4.13 C
1344 25-02-2019 15:55:00 13.8 C 51 % 3.85 C
1345 25-02-2019 16:00:00 13.9 C 51 % 3.94 C
1346 25-02-2019 16:05:00 13.9 C 51 % 3.94 C
1347 25-02-2019 16:10:00 14.1 C 51 % 4.13 C
1348 25-02-2019 16:15:00 14.1 C 46 % 2.67 C
1349 25-02-2019 16:20:00 14.3 C 51 % 4.31 C
1350 25-02-2019 16:25:00 14.5 C 48 % 3.63 C
Sensor: Nr:Datum:Temp:Feuchte:Taupunkt:
Aussen-T/F 1351 25-02-2019 16:30:00 14.7 C 50 % 4.4 C
1352 25-02-2019 16:35:00 14.7 C 50 % 4.4 C
1353 25-02-2019 16:40:00 14.6 C 48 % 3.73 C
1354 25-02-2019 16:45:00 14.6 C 49 % 4.02 C
1355 25-02-2019 16:50:00 14.6 C 50 % 4.31 C
1356 25-02-2019 16:55:00 14.5 C 50 % 4.21 C
1357 25-02-2019 17:00:00 14.4 C 51 % 4.4 C
1358 25-02-2019 17:05:00 14.2 C 51 % 4.22 C
1359 25-02-2019 17:10:00 14.1 C 52 % 4.4 C
1360 25-02-2019 17:15:00 13.9 C 52 % 4.22 C
1361 25-02-2019 17:20:00 13.7 C 53 % 4.31 C
1362 25-02-2019 17:25:00 13.6 C 53 % 4.21 C
1363 25-02-2019 17:30:00 13.6 C 54 % 4.48 C
1364 25-02-2019 17:35:00 13.6 C 53 % 4.21 C
1365 25-02-2019 17:40:00 13.4 C 53 % 4.03 C
1366 25-02-2019 17:45:00 13.3 C 54 % 4.2 C
1367 25-02-2019 17:50:00 13.1 C 54 % 4.01 C
1368 25-02-2019 17:55:00 12.8 C 55 % 4 C
1369 25-02-2019 18:00:00 12.6 C 56 % 4.07 C
1370 25-02-2019 18:05:00 12.2 C 56 % 3.69 C
1371 25-02-2019 18:10:00 11.8 C 58 % 3.82 C
1372 25-02-2019 18:15:00 11.4 C 58 % 3.44 C
1373 25-02-2019 18:20:00 11.2 C 59 % 3.5 C
1374 25-02-2019 18:25:00 11 C 60 % 3.55 C
1375 25-02-2019 18:30:00 10.8 C 60 % 3.36 C
Sensor: Nr:Datum:Temp:Feuchte:Taupunkt:
Aussen-T/F 1376 25-02-2019 18:35:00 10.7 C 61 % 3.5 C
1377 25-02-2019 18:40:00 10.6 C 62 % 3.63 C
1378 25-02-2019 18:45:00 10.4 C 62 % 3.44 C
1379 25-02-2019 18:50:00 10.3 C 63 % 3.58 C
1380 25-02-2019 18:55:00 10.2 C 63 % 3.48 C
1381 25-02-2019 19:00:00 10 C 63 % 3.29 C
1382 25-02-2019 19:05:00 9.8 C 64 % 3.32 C
1383 25-02-2019 19:10:00 9.6 C 65 % 3.35 C
1384 25-02-2019 19:15:00 9.4 C 66 % 3.38 C
1385 25-02-2019 19:20:00 9.2 C 67 % 3.4 C
1386 25-02-2019 19:25:00 8.9 C 68 % 3.32 C
1387 25-02-2019 19:30:00 8.8 C 68 % 3.23 C
1388 25-02-2019 19:35:00 8.8 C 68 % 3.23 C
1389 25-02-2019 19:40:00 8.8 C 68 % 3.23 C
1390 25-02-2019 19:45:00 8.7 C 68 % 3.13 C
1391 25-02-2019 19:50:00 8.6 C 68 % 3.04 C
1392 25-02-2019 19:55:00 8.3 C 69 % 2.96 C
1393 25-02-2019 20:00:00 8.1 C 70 % 2.97 C
1394 25-02-2019 20:05:00 8 C 71 % 3.07 C
1395 25-02-2019 20:10:00 7.8 C 71 % 2.88 C
1396 25-02-2019 20:15:00 7.4 C 72 % 2.69 C
1397 25-02-2019 20:20:00 7.1 C 72 % 2.4 C
1398 25-02-2019 20:25:00 6.9 C 73 % 2.4 C
1399 25-02-2019 20:30:00 6.8 C 74 % 2.5 C
1400 25-02-2019 20:35:00 6.8 C 75 % 2.69 C
Sensor: Nr:Datum:Temp:Feuchte:Taupunkt:
Aussen-T/F 1401 25-02-2019 20:40:00 6.6 C 74 % 2.31 C
1402 25-02-2019 20:45:00 6.4 C 74 % 2.11 C
1403 25-02-2019 20:50:00 6.3 C 74 % 2.02 C
1404 25-02-2019 20:55:00 6.3 C 75 % 2.2 C
1405 25-02-2019 21:00:00 6.3 C 75 % 2.2 C
1406 25-02-2019 21:05:00 6.1 C 75 % 2.01 C
1407 25-02-2019 21:10:00 5.9 C 75 % 1.82 C
1408 25-02-2019 21:15:00 5.9 C 75 % 1.82 C
1409 25-02-2019 21:20:00 5.8 C 75 % 1.72 C
1410 25-02-2019 21:25:00 5.6 C 76 % 1.71 C
1411 25-02-2019 21:30:00 5.4 C 77 % 1.7 C
1412 25-02-2019 21:35:00 5.3 C 77 % 1.6 C
1413 25-02-2019 21:40:00 5.2 C 78 % 1.69 C
1414 25-02-2019 21:45:00 5.2 C 78 % 1.69 C
1415 25-02-2019 21:50:00 5.1 C 79 % 1.77 C
1416 25-02-2019 21:55:00 5.1 C 79 % 1.77 C
1417 25-02-2019 22:00:00 5 C 79 % 1.67 C
1418 25-02-2019 22:05:00 5 C 78 % 1.49 C
1419 25-02-2019 22:10:00 4.9 C 78 % 1.39 C
1420 25-02-2019 22:15:00 4.8 C 79 % 1.47 C
1421 25-02-2019 22:20:00 4.8 C 79 % 1.47 C
1422 25-02-2019 22:25:00 4.7 C 79 % 1.38 C
1423 25-02-2019 22:30:00 4.5 C 79 % 1.18 C
1424 25-02-2019 22:35:00 4.4 C 80 % 1.26 C
1425 25-02-2019 22:40:00 4.2 C 80 % 1.07 C
Sensor: Nr:Datum:Temp:Feuchte:Taupunkt:
Aussen-T/F 1426 25-02-2019 22:45:00 4.2 C 80 % 1.07 C
1427 25-02-2019 22:50:00 4.1 C 80 % 0.97 C
1428 25-02-2019 22:55:00 4 C 82 % 1.21 C
1429 25-02-2019 23:00:00 3.9 C 82 % 1.12 C
1430 25-02-2019 23:05:00 3.8 C 83 % 1.19 C
1431 25-02-2019 23:10:00 3.8 C 83 % 1.19 C
1432 25-02-2019 23:15:00 3.7 C 82 % 0.92 C
1433 25-02-2019 23:20:00 3.4 C 82 % 0.63 C
1434 25-02-2019 23:25:00 3.2 C 83 % 0.6 C
1435 25-02-2019 23:30:00 3.1 C 84 % 0.67 C
1436 25-02-2019 23:35:00 3 C 84 % 0.57 C
1437 25-02-2019 23:40:00 2.8 C 84 % 0.37 C
1438 25-02-2019 23:45:00 2.7 C 85 % 0.44 C
1439 25-02-2019 23:50:00 2.8 C 86 % 0.7 C
1440 25-02-2019 23:55:00 2.8 C 85 % 0.54 C
1441 26-02-2019 00:00:00 2.7 C 85 % 0.44 C
1442 26-02-2019 00:05:00 2.8 C 86 % 0.7 C
1443 26-02-2019 00:10:00 2.7 C 85 % 0.44 C
1444 26-02-2019 00:15:00 2.6 C 86 % 0.5 C
1445 26-02-2019 00:20:00 2.6 C 86 % 0.5 C
1446 26-02-2019 00:25:00 2.6 C 86 % 0.5 C
1447 26-02-2019 00:30:00 2.6 C 87 % 0.66 C
1448 26-02-2019 00:35:00 2.5 C 86 % 0.4 C
1449 26-02-2019 00:40:00 2.3 C 85 % 0.04 C
1450 26-02-2019 00:45:00 2 C 86 % -0.09 C
Sensor: Nr:Datum:Temp:Feuchte:Taupunkt:
Aussen-T/F 1451 26-02-2019 00:50:00 1.9 C 87 % -0.03 C
1452 26-02-2019 00:55:00 1.8 C 88 % 0.03 C
1453 26-02-2019 01:00:00 1.8 C 89 % 0.19 C
1454 26-02-2019 01:05:00 1.9 C 89 % 0.28 C
1455 26-02-2019 01:10:00 1.9 C 89 % 0.28 C
1456 26-02-2019 01:15:00 1.9 C 88 % 0.13 C
1457 26-02-2019 01:20:00 1.8 C 89 % 0.19 C
1458 26-02-2019 01:25:00 1.9 C 89 % 0.28 C
1459 26-02-2019 01:30:00 1.9 C 89 % 0.28 C
1460 26-02-2019 01:35:00 2.1 C 90 % 0.64 C
1461 26-02-2019 01:40:00 2.2 C 89 % 0.58 C
1462 26-02-2019 01:45:00 2.1 C 88 % 0.33 C
1463 26-02-2019 01:50:00 1.9 C 88 % 0.13 C
1464 26-02-2019 01:55:00 1.8 C 88 % 0.03 C
1465 26-02-2019 02:00:00 1.6 C 89 % -0.01 C
1466 26-02-2019 02:05:00 1.6 C 89 % -0.01 C
1467 26-02-2019 02:10:00 1.7 C 90 % 0.24 C
1468 26-02-2019 02:15:00 1.7 C 90 % 0.24 C
1469 26-02-2019 02:20:00 1.6 C 89 % -0.01 C
1470 26-02-2019 02:25:00 1.4 C 89 % -0.21 C
1471 26-02-2019 02:30:00 1.3 C 89 % -0.31 C
1472 26-02-2019 02:35:00 1.3 C 90 % -0.15 C
1473 26-02-2019 02:40:00 1.2 C 90 % -0.25 C
1474 26-02-2019 02:45:00 1.3 C 91 % 0 C
1475 26-02-2019 02:50:00 1.1 C 90 % -0.35 C
Sensor: Nr:Datum:Temp:Feuchte:Taupunkt:
Aussen-T/F 1476 26-02-2019 02:55:00 0.9 C 89 % -0.7 C
1477 26-02-2019 03:00:00 0.7 C 90 % -0.75 C
1478 26-02-2019 03:05:00 0.6 C 90 % -0.85 C
1479 26-02-2019 03:10:00 0.5 C 90 % -0.95 C
1480 26-02-2019 03:15:00 0.4 C 91 % -0.89 C
1481 26-02-2019 03:20:00 0.5 C 91 % -0.79 C
1482 26-02-2019 03:25:00 0.5 C 91 % -0.79 C
1483 26-02-2019 03:30:00 0.6 C 92 % -0.55 C
1484 26-02-2019 03:35:00 0.8 C 92 % -0.35 C
1485 26-02-2019 03:40:00 0.8 C 92 % -0.35 C
1486 26-02-2019 03:45:00 0.7 C 91 % -0.6 C
1487 26-02-2019 03:50:00 0.7 C 92 % -0.45 C
1488 26-02-2019 03:55:00 0.8 C 92 % -0.35 C
1489 26-02-2019 04:00:00 0.7 C 92 % -0.45 C
1490 26-02-2019 04:05:00 0.4 C 91 % -0.89 C
1491 26-02-2019 04:10:00 0.3 C 92 % -0.84 C
1492 26-02-2019 04:15:00 0.3 C 92 % -0.84 C
1493 26-02-2019 04:20:00 0.4 C 92 % -0.74 C
1494 26-02-2019 04:25:00 0.4 C 92 % -0.74 C
1495 26-02-2019 04:30:00 0.4 C 92 % -0.74 C
1496 26-02-2019 04:35:00 0.3 C 92 % -0.84 C
1497 26-02-2019 04:40:00 0.2 C 92 % -0.94 C
1498 26-02-2019 04:45:00 0.1 C 92 % -1.04 C
1499 26-02-2019 04:50:00 0.2 C 93 % -0.79 C
1500 26-02-2019 04:55:00 0.2 C 93 % -0.79 C
Sensor: Nr:Datum:Temp:Feuchte:Taupunkt:
Aussen-T/F 1501 26-02-2019 05:00:00 0.2 C 93 % -0.79 C
1502 26-02-2019 05:05:00 0.1 C 93 % -0.89 C
1503 26-02-2019 05:10:00 0.1 C 93 % -0.89 C
1504 26-02-2019 05:15:00 0.1 C 93 % -0.89 C
1505 26-02-2019 05:20:00 0 C 93 % -0.99 C
1506 26-02-2019 05:25:00 0.1 C 93 % -0.89 C
1507 26-02-2019 05:30:00 0.2 C 93 % -0.79 C
1508 26-02-2019 05:35:00 0.3 C 93 % -0.7 C
1509 26-02-2019 05:40:00 0.4 C 94 % -0.45 C
1510 26-02-2019 05:45:00 0.4 C 93 % -0.6 C
1511 26-02-2019 05:50:00 0.4 C 93 % -0.6 C
1512 26-02-2019 05:55:00 0.3 C 93 % -0.7 C
1513 26-02-2019 06:00:00 0.2 C 92 % -0.94 C
1514 26-02-2019 06:05:00 -0.1 C 92 % -1.24 C
1515 26-02-2019 06:10:00 -0.2 C 92 % -1.34 C
1516 26-02-2019 06:15:00 -0.3 C 92 % -1.44 C
1517 26-02-2019 06:20:00 -0.3 C 93 % -1.29 C
1518 26-02-2019 06:25:00 -0.4 C 93 % -1.39 C
1519 26-02-2019 06:30:00 -0.4 C 93 % -1.39 C
1520 26-02-2019 06:35:00 -0.4 C 93 % -1.39 C
1521 26-02-2019 06:40:00 -0.4 C 93 % -1.39 C
1522 26-02-2019 06:45:00 -0.6 C 93 % -1.59 C
1523 26-02-2019 06:50:00 -0.5 C 93 % -1.49 C
1524 26-02-2019 06:55:00 -0.4 C 94 % -1.25 C
1525 26-02-2019 07:00:00 -0.2 C 94 % -1.05 C
Sensor: Nr:Datum:Temp:Feuchte:Taupunkt:
Aussen-T/F 1526 26-02-2019 07:05:00 -0.2 C 94 % -1.05 C
1527 26-02-2019 07:10:00 -0.2 C 94 % -1.05 C
1528 26-02-2019 07:15:00 -0.3 C 93 % -1.29 C
1529 26-02-2019 07:20:00 -0.4 C 93 % -1.39 C
1530 26-02-2019 07:25:00 -0.6 C 93 % -1.59 C
1531 26-02-2019 07:30:00 -0.8 C 93 % -1.79 C
1532 26-02-2019 07:35:00 -0.8 C 93 % -1.79 C
1533 26-02-2019 07:40:00 -0.8 C 94 % -1.64 C
1534 26-02-2019 07:45:00 -0.6 C 94 % -1.44 C
1535 26-02-2019 07:50:00 -0.5 C 94 % -1.34 C
1536 26-02-2019 07:55:00 -0.4 C 94 % -1.25 C
1537 26-02-2019 08:00:00 -0.4 C 94 % -1.25 C
1538 26-02-2019 08:05:00 -0.3 C 94 % -1.15 C
1539 26-02-2019 08:10:00 -0.3 C 94 % -1.15 C
1540 26-02-2019 08:15:00 -0.3 C 94 % -1.15 C
1541 26-02-2019 08:20:00 -0.3 C 94 % -1.15 C
1542 26-02-2019 08:25:00 -0.3 C 94 % -1.15 C
1543 26-02-2019 08:30:00 -0.2 C 94 % -1.05 C
1544 26-02-2019 08:35:00 -0.1 C 95 % -0.8 C
1545 26-02-2019 08:40:00 0 C 95 % -0.7 C
1546 26-02-2019 08:45:00 0.2 C 95 % -0.5 C
1547 26-02-2019 08:50:00 0.3 C 95 % -0.4 C
1548 26-02-2019 08:55:00 0.4 C 95 % -0.31 C
1549 26-02-2019 09:00:00 0.4 C 94 % -0.45 C
1550 26-02-2019 09:05:00 0.4 C 94 % -0.45 C
Sensor: Nr:Datum:Temp:Feuchte:Taupunkt:
Aussen-T/F 1551 26-02-2019 09:10:00 0.5 C 94 % -0.35 C
1552 26-02-2019 09:15:00 0.6 C 95 % -0.11 C
1553 26-02-2019 09:20:00 0.7 C 95 % -0.01 C
1554 26-02-2019 09:25:00 0.8 C 95 % 0.09 C
1555 26-02-2019 09:30:00 0.9 C 95 % 0.19 C
1556 26-02-2019 09:35:00 0.9 C 95 % 0.19 C
1557 26-02-2019 09:40:00 0.9 C 95 % 0.19 C
1558 26-02-2019 09:45:00 1.1 C 95 % 0.39 C
1559 26-02-2019 09:50:00 1.2 C 95 % 0.49 C
1560 26-02-2019 09:55:00 1.3 C 95 % 0.59 C
1561 26-02-2019 10:00:00 1.6 C 95 % 0.89 C
1562 26-02-2019 10:05:00 1.7 C 95 % 0.99 C
1563 26-02-2019 10:10:00 1.8 C 95 % 1.09 C
1564 26-02-2019 10:15:00 1.9 C 95 % 1.19 C
1565 26-02-2019 10:20:00 2.1 C 95 % 1.38 C
1566 26-02-2019 10:25:00 2.3 C 95 % 1.58 C
1567 26-02-2019 10:30:00 2.5 C 95 % 1.78 C
1568 26-02-2019 10:35:00 2.9 C 95 % 2.18 C
1569 26-02-2019 10:40:00 3.2 C 94 % 2.33 C
1570 26-02-2019 10:45:00 3.5 C 94 % 2.63 C
1571 26-02-2019 10:50:00 3.8 C 93 % 2.77 C
1572 26-02-2019 10:55:00 4 C 92 % 2.82 C
1573 26-02-2019 11:00:00 4.3 C 91 % 2.96 C
1574 26-02-2019 11:05:00 4.5 C 90 % 3.01 C
1575 26-02-2019 11:10:00 4.8 C 90 % 3.3 C
Sensor: Nr:Datum:Temp:Feuchte:Taupunkt:
Aussen-T/F 1576 26-02-2019 11:15:00 5.1 C 90 % 3.6 C
1577 26-02-2019 11:20:00 5.4 C 90 % 3.89 C
1578 26-02-2019 11:25:00 5.7 C 89 % 4.03 C
1579 26-02-2019 11:30:00 5.9 C 87 % 3.91 C
1580 26-02-2019 11:35:00 6.2 C 85 % 3.87 C
1581 26-02-2019 11:40:00 6.4 C 84 % 3.9 C
1582 26-02-2019 11:45:00 6.7 C 82 % 3.85 C
1583 26-02-2019 11:50:00 6.9 C 81 % 3.87 C
1584 26-02-2019 11:55:00 7.1 C 81 % 4.07 C
1585 26-02-2019 12:00:00 7.3 C 81 % 4.26 C
1586 26-02-2019 12:05:00 7.5 C 80 % 4.28 C
1587 26-02-2019 12:10:00 7.8 C 76 % 3.84 C
1588 26-02-2019 12:15:00 8.3 C 75 % 4.14 C
1589 26-02-2019 12:20:00 8.8 C 73 % 4.24 C
1590 26-02-2019 12:25:00 9.3 C 73 % 4.72 C
1591 26-02-2019 12:30:00 9.8 C 71 % 4.8 C
1592 26-02-2019 12:35:00 10.3 C 69 % 4.87 C
1593 26-02-2019 12:40:00 10.8 C 69 % 5.35 C
1594 26-02-2019 12:45:00 11.2 C 65 % 4.87 C
1595 26-02-2019 12:50:00 11.4 C 68 % 5.71 C
1596 26-02-2019 12:55:00 11.6 C 69 % 6.11 C
1597 26-02-2019 13:00:00 11.7 C 68 % 6 C
1598 26-02-2019 13:05:00 11.9 C 68 % 6.19 C
1599 26-02-2019 13:10:00 12.3 C 70 % 6.99 C
1600 26-02-2019 13:15:00 12.7 C 69 % 7.17 C
Sensor: Nr:Datum:Temp:Feuchte:Taupunkt:
Aussen-T/F 1601 26-02-2019 13:20:00 13.2 C 67 % 7.21 C
1602 26-02-2019 13:25:00 13.7 C 66 % 7.47 C
1603 26-02-2019 13:30:00 14.1 C 66 % 7.85 C
1604 26-02-2019 13:35:00 14.5 C 65 % 8.01 C
1605 26-02-2019 13:40:00 14.9 C 64 % 8.16 C
1606 26-02-2019 13:45:00 15.4 C 61 % 7.93 C
1607 26-02-2019 13:50:00 15.8 C 60 % 8.06 C
1608 26-02-2019 13:55:00 16.1 C 59 % 8.09 C
1609 26-02-2019 14:00:00 16.4 C 58 % 8.12 C
1610 26-02-2019 14:05:00 16.6 C 55 % 7.53 C
1611 26-02-2019 14:10:00 16.7 C 55 % 7.62 C
1612 26-02-2019 14:15:00 16.8 C 54 % 7.45 C
1613 26-02-2019 14:20:00 16.7 C 54 % 7.36 C
1614 26-02-2019 14:25:00 16.4 C 54 % 7.08 C
1615 26-02-2019 14:30:00 16.2 C 54 % 6.89 C
1616 26-02-2019 14:35:00 15.9 C 54 % 6.61 C
1617 26-02-2019 14:40:00 15.7 C 56 % 6.96 C
1618 26-02-2019 14:45:00 15.6 C 56 % 6.86 C
1619 26-02-2019 14:50:00 15.5 C 57 % 7.03 C
1620 26-02-2019 14:55:00 15.4 C 57 % 6.93 C
1621 26-02-2019 15:00:00 15.3 C 55 % 6.32 C
1622 26-02-2019 15:05:00 15.4 C 57 % 6.93 C
1623 26-02-2019 15:10:00 15.5 C 56 % 6.77 C
1624 26-02-2019 15:15:00 15.5 C 56 % 6.77 C
1625 26-02-2019 15:20:00 15.5 C 55 % 6.51 C
Sensor: Nr:Datum:Temp:Feuchte:Taupunkt:
Aussen-T/F 1626 26-02-2019 15:25:00 15.5 C 55 % 6.51 C
1627 26-02-2019 15:30:00 15.4 C 55 % 6.42 C
1628 26-02-2019 15:35:00 15.4 C 54 % 6.15 C
1629 26-02-2019 15:40:00 15.6 C 55 % 6.6 C
1630 26-02-2019 15:45:00 15.6 C 55 % 6.6 C
1631 26-02-2019 15:50:00 15.6 C 55 % 6.6 C
1632 26-02-2019 15:55:00 15.6 C 55 % 6.6 C
1633 26-02-2019 16:00:00 15.6 C 54 % 6.34 C
1634 26-02-2019 16:05:00 15.7 C 54 % 6.43 C
1635 26-02-2019 16:10:00 15.7 C 54 % 6.43 C
1636 26-02-2019 16:15:00 15.7 C 54 % 6.43 C
1637 26-02-2019 16:20:00 15.7 C 55 % 6.69 C
1638 26-02-2019 16:25:00 15.6 C 54 % 6.34 C
1639 26-02-2019 16:30:00 15.5 C 55 % 6.51 C
1640 26-02-2019 16:35:00 15.4 C 56 % 6.68 C
1641 26-02-2019 16:40:00 15.2 C 57 % 6.75 C
1642 26-02-2019 16:45:00 15.1 C 57 % 6.65 C
1643 26-02-2019 16:50:00 15.1 C 58 % 6.91 C
1644 26-02-2019 16:55:00 15 C 58 % 6.81 C
1645 26-02-2019 17:00:00 14.9 C 58 % 6.72 C
1646 26-02-2019 17:05:00 14.9 C 58 % 6.72 C
1647 26-02-2019 17:10:00 14.9 C 58 % 6.72 C
1648 26-02-2019 17:15:00 14.8 C 59 % 6.87 C
1649 26-02-2019 17:20:00 14.8 C 59 % 6.87 C
1650 26-02-2019 17:25:00 14.9 C 59 % 6.97 C
Sensor: Nr:Datum:Temp:Feuchte:Taupunkt:
Aussen-T/F 1651 26-02-2019 17:30:00 14.9 C 58 % 6.72 C
1652 26-02-2019 17:35:00 14.8 C 58 % 6.63 C
1653 26-02-2019 17:40:00 14.8 C 58 % 6.63 C
1654 26-02-2019 17:45:00 14.7 C 59 % 6.78 C
1655 26-02-2019 17:50:00 14.5 C 59 % 6.59 C
1656 26-02-2019 17:55:00 14.2 C 59 % 6.31 C
1657 26-02-2019 18:00:00 13.9 C 60 % 6.27 C
1658 26-02-2019 18:05:00 13.6 C 61 % 6.23 C
1659 26-02-2019 18:10:00 13.3 C 61 % 5.95 C
1660 26-02-2019 18:15:00 13 C 62 % 5.9 C
1661 26-02-2019 18:20:00 12.8 C 63 % 5.94 C
1662 26-02-2019 18:25:00 12.6 C 64 % 5.98 C
1663 26-02-2019 18:30:00 12.3 C 64 % 5.69 C
1664 26-02-2019 18:35:00 12.2 C 64 % 5.6 C
1665 26-02-2019 18:40:00 12.1 C 65 % 5.73 C
1666 26-02-2019 18:45:00 11.9 C 66 % 5.76 C
1667 26-02-2019 18:50:00 11.7 C 66 % 5.57 C
1668 26-02-2019 18:55:00 11.4 C 67 % 5.5 C
1669 26-02-2019 19:00:00 11.3 C 68 % 5.62 C
1670 26-02-2019 19:05:00 11.1 C 68 % 5.43 C
1671 26-02-2019 19:10:00 10.8 C 69 % 5.35 C
1672 26-02-2019 19:15:00 10.7 C 70 % 5.46 C
1673 26-02-2019 19:20:00 10.6 C 71 % 5.57 C
1674 26-02-2019 19:25:00 10.4 C 71 % 5.38 C
1675 26-02-2019 19:30:00 10.4 C 72 % 5.58 C
Sensor: Nr:Datum:Temp:Feuchte:Taupunkt:
Aussen-T/F 1676 26-02-2019 19:35:00 10.3 C 72 % 5.48 C
1677 26-02-2019 19:40:00 10.1 C 72 % 5.29 C
1678 26-02-2019 19:45:00 9.7 C 73 % 5.1 C
1679 26-02-2019 19:50:00 9.4 C 75 % 5.2 C
1680 26-02-2019 19:55:00 9.3 C 75 % 5.1 C
1681 26-02-2019 20:00:00 9.2 C 74 % 4.81 C
1682 26-02-2019 20:05:00 8.8 C 74 % 4.43 C
1683 26-02-2019 20:10:00 8.6 C 75 % 4.43 C
1684 26-02-2019 20:15:00 8.5 C 76 % 4.52 C
1685 26-02-2019 20:20:00 8.4 C 77 % 4.61 C
1686 26-02-2019 20:25:00 8.1 C 77 % 4.32 C
1687 26-02-2019 20:30:00 7.9 C 77 % 4.12 C
1688 26-02-2019 20:35:00 7.9 C 77 % 4.12 C
1689 26-02-2019 20:40:00 7.9 C 77 % 4.12 C
1690 26-02-2019 20:45:00 7.8 C 77 % 4.03 C
1691 26-02-2019 20:50:00 7.7 C 77 % 3.93 C
1692 26-02-2019 20:55:00 7.4 C 78 % 3.82 C
1693 26-02-2019 21:00:00 7.3 C 79 % 3.91 C
1694 26-02-2019 21:05:00 7.2 C 79 % 3.81 C
1695 26-02-2019 21:10:00 7 C 79 % 3.61 C
1696 26-02-2019 21:15:00 6.9 C 80 % 3.7 C
1697 26-02-2019 21:20:00 6.7 C 81 % 3.68 C
1698 26-02-2019 21:25:00 6.8 C 83 % 4.12 C
1699 26-02-2019 21:30:00 6.8 C 82 % 3.95 C
1700 26-02-2019 21:35:00 6.8 C 81 % 3.77 C
Sensor: Nr:Datum:Temp:Feuchte:Taupunkt:
Aussen-T/F 1701 26-02-2019 21:40:00 6.7 C 81 % 3.68 C
1702 26-02-2019 21:45:00 6.6 C 82 % 3.75 C
1703 26-02-2019 21:50:00 6.4 C 82 % 3.56 C
1704 26-02-2019 21:55:00 6.4 C 82 % 3.56 C
1705 26-02-2019 22:00:00 6.3 C 82 % 3.46 C
1706 26-02-2019 22:05:00 6.2 C 83 % 3.53 C
1707 26-02-2019 22:10:00 6.2 C 83 % 3.53 C
1708 26-02-2019 22:15:00 6.2 C 82 % 3.36 C
1709 26-02-2019 22:20:00 5.9 C 82 % 3.07 C
1710 26-02-2019 22:25:00 5.7 C 83 % 3.04 C
1711 26-02-2019 22:30:00 5.6 C 84 % 3.12 C
1712 26-02-2019 22:35:00 5.4 C 84 % 2.92 C
1713 26-02-2019 22:40:00 5.2 C 84 % 2.72 C
1714 26-02-2019 22:45:00 4.9 C 85 % 2.6 C
1715 26-02-2019 22:50:00 4.9 C 86 % 2.76 C
1716 26-02-2019 22:55:00 4.9 C 87 % 2.92 C
1717 26-02-2019 23:00:00 4.8 C 85 % 2.5 C
1718 26-02-2019 23:05:00 4.7 C 86 % 2.56 C
1719 26-02-2019 23:10:00 4.7 C 87 % 2.73 C
1720 26-02-2019 23:15:00 4.8 C 88 % 2.99 C
1721 26-02-2019 23:20:00 4.8 C 87 % 2.82 C
1722 26-02-2019 23:25:00 4.8 C 87 % 2.82 C
1723 26-02-2019 23:30:00 4.6 C 86 % 2.47 C
1724 26-02-2019 23:35:00 4.4 C 86 % 2.27 C
1725 26-02-2019 23:40:00 4.3 C 87 % 2.33 C
Sensor: Nr:Datum:Temp:Feuchte:Taupunkt:
Aussen-T/F 1726 26-02-2019 23:45:00 4.3 C 88 % 2.49 C
1727 26-02-2019 23:50:00 4.3 C 89 % 2.65 C
1728 26-02-2019 23:55:00 4.3 C 88 % 2.49 C
1729 27-02-2019 00:00:00 4.1 C 88 % 2.3 C
1730 27-02-2019 00:05:00 4 C 88 % 2.2 C
1731 27-02-2019 00:10:00 3.8 C 89 % 2.16 C
1732 27-02-2019 00:15:00 3.6 C 88 % 1.8 C
1733 27-02-2019 00:20:00 3.6 C 89 % 1.96 C
1734 27-02-2019 00:25:00 3.6 C 90 % 2.12 C
1735 27-02-2019 00:30:00 3.6 C 90 % 2.12 C
1736 27-02-2019 00:35:00 3.5 C 90 % 2.02 C
1737 27-02-2019 00:40:00 3.3 C 89 % 1.67 C
1738 27-02-2019 00:45:00 3.1 C 89 % 1.47 C
1739 27-02-2019 00:50:00 3.2 C 91 % 1.88 C
1740 27-02-2019 00:55:00 3.3 C 91 % 1.98 C
1741 27-02-2019 01:00:00 3.2 C 90 % 1.72 C
1742 27-02-2019 01:05:00 3 C 90 % 1.52 C
1743 27-02-2019 01:10:00 2.9 C 90 % 1.43 C
1744 27-02-2019 01:15:00 2.8 C 91 % 1.48 C
1745 27-02-2019 01:20:00 2.8 C 91 % 1.48 C
1746 27-02-2019 01:25:00 2.9 C 92 % 1.73 C
1747 27-02-2019 01:30:00 3 C 92 % 1.83 C
1748 27-02-2019 01:35:00 2.9 C 91 % 1.58 C
1749 27-02-2019 01:40:00 2.8 C 91 % 1.48 C
1750 27-02-2019 01:45:00 2.7 C 92 % 1.53 C
Sensor: Nr:Datum:Temp:Feuchte:Taupunkt:
Aussen-T/F 1751 27-02-2019 01:50:00 2.7 C 92 % 1.53 C
1752 27-02-2019 01:55:00 2.5 C 91 % 1.18 C
1753 27-02-2019 02:00:00 2.3 C 91 % 0.99 C
1754 27-02-2019 02:05:00 2.3 C 91 % 0.99 C
1755 27-02-2019 02:10:00 2.2 C 92 % 1.04 C
1756 27-02-2019 02:15:00 2.2 C 92 % 1.04 C
1757 27-02-2019 02:20:00 2 C 92 % 0.84 C
1758 27-02-2019 02:25:00 2.1 C 93 % 1.09 C
1759 27-02-2019 02:30:00 2.3 C 93 % 1.29 C
1760 27-02-2019 02:35:00 2.6 C 94 % 1.73 C
1761 27-02-2019 02:40:00 2.6 C 94 % 1.73 C
1762 27-02-2019 02:45:00 2.4 C 92 % 1.24 C
1763 27-02-2019 02:50:00 2.1 C 92 % 0.94 C
1764 27-02-2019 02:55:00 1.9 C 92 % 0.74 C
1765 27-02-2019 03:00:00 1.9 C 93 % 0.89 C
1766 27-02-2019 03:05:00 1.9 C 93 % 0.89 C
1767 27-02-2019 03:10:00 1.9 C 93 % 0.89 C
1768 27-02-2019 03:15:00 1.7 C 92 % 0.54 C
1769 27-02-2019 03:20:00 1.6 C 93 % 0.59 C
1770 27-02-2019 03:25:00 1.5 C 93 % 0.49 C
1771 27-02-2019 03:30:00 1.3 C 93 % 0.3 C
1772 27-02-2019 03:35:00 1.2 C 93 % 0.2 C
1773 27-02-2019 03:40:00 1.3 C 94 % 0.44 C
1774 27-02-2019 03:45:00 1.3 C 93 % 0.3 C
1775 27-02-2019 03:50:00 1 C 93 % 0 C
Sensor: Nr:Datum:Temp:Feuchte:Taupunkt:
Aussen-T/F 1776 27-02-2019 03:55:00 0.9 C 93 % -0.1 C
1777 27-02-2019 04:00:00 1 C 94 % 0.15 C
1778 27-02-2019 04:05:00 0.9 C 93 % -0.1 C
1779 27-02-2019 04:10:00 0.9 C 94 % 0.05 C
1780 27-02-2019 04:15:00 1 C 94 % 0.15 C
1781 27-02-2019 04:20:00 0.9 C 94 % 0.05 C
1782 27-02-2019 04:25:00 0.8 C 93 % -0.2 C
1783 27-02-2019 04:30:00 0.7 C 94 % -0.15 C
1784 27-02-2019 04:35:00 0.7 C 94 % -0.15 C
1785 27-02-2019 04:40:00 0.7 C 94 % -0.15 C
1786 27-02-2019 04:45:00 0.6 C 94 % -0.25 C
1787 27-02-2019 04:50:00 0.6 C 94 % -0.25 C
1788 27-02-2019 04:55:00 0.6 C 94 % -0.25 C
1789 27-02-2019 05:00:00 0.7 C 94 % -0.15 C
1790 27-02-2019 05:05:00 0.7 C 94 % -0.15 C
1791 27-02-2019 05:10:00 0.6 C 94 % -0.25 C
1792 27-02-2019 05:15:00 0.6 C 95 % -0.11 C
1793 27-02-2019 05:20:00 0.6 C 95 % -0.11 C
1794 27-02-2019 05:25:00 0.6 C 95 % -0.11 C
1795 27-02-2019 05:30:00 0.5 C 94 % -0.35 C
1796 27-02-2019 05:35:00 0.4 C 94 % -0.45 C
1797 27-02-2019 05:40:00 0.4 C 94 % -0.45 C
1798 27-02-2019 05:45:00 0.4 C 95 % -0.31 C
1799 27-02-2019 05:50:00 0.3 C 95 % -0.4 C
1800 27-02-2019 05:55:00 0.2 C 94 % -0.65 C
Sensor: Nr:Datum:Temp:Feuchte:Taupunkt:
Aussen-T/F 1801 27-02-2019 06:00:00 0.2 C 94 % -0.65 C
1802 27-02-2019 06:05:00 0.2 C 95 % -0.5 C
1803 27-02-2019 06:10:00 0.2 C 95 % -0.5 C
1804 27-02-2019 06:15:00 0.1 C 95 % -0.6 C
1805 27-02-2019 06:20:00 0 C 95 % -0.7 C
1806 27-02-2019 06:25:00 0.1 C 95 % -0.6 C
1807 27-02-2019 06:30:00 0.2 C 95 % -0.5 C
1808 27-02-2019 06:35:00 0.3 C 95 % -0.4 C
1809 27-02-2019 06:40:00 0.3 C 95 % -0.4 C
1810 27-02-2019 06:45:00 0.1 C 95 % -0.6 C
1811 27-02-2019 06:50:00 -0.1 C 95 % -0.8 C
1812 27-02-2019 06:55:00 -0.1 C 95 % -0.8 C
1813 27-02-2019 07:00:00 -0.2 C 95 % -0.9 C
1814 27-02-2019 07:05:00 -0.2 C 95 % -0.9 C
1815 27-02-2019 07:10:00 -0.2 C 95 % -0.9 C
1816 27-02-2019 07:15:00 -0.2 C 95 % -0.9 C
1817 27-02-2019 07:20:00 -0.3 C 95 % -1 C
1818 27-02-2019 07:25:00 -0.4 C 95 % -1.1 C
1819 27-02-2019 07:30:00 -0.6 C 95 % -1.3 C
1820 27-02-2019 07:35:00 -0.6 C 95 % -1.3 C
1821 27-02-2019 07:40:00 -0.6 C 95 % -1.3 C
1822 27-02-2019 07:45:00 -0.4 C 95 % -1.1 C
1823 27-02-2019 07:50:00 -0.4 C 95 % -1.1 C
1824 27-02-2019 07:55:00 -0.4 C 95 % -1.1 C
1825 27-02-2019 08:00:00 -0.4 C 95 % -1.1 C
Sensor: Nr:Datum:Temp:Feuchte:Taupunkt:
Aussen-T/F 1826 27-02-2019 08:05:00 -0.4 C 95 % -1.1 C
1827 27-02-2019 08:10:00 -0.4 C 95 % -1.1 C
1828 27-02-2019 08:15:00 -0.4 C 95 % -1.1 C
1829 27-02-2019 08:20:00 -0.4 C 95 % -1.1 C
1830 27-02-2019 08:25:00 -0.4 C 95 % -1.1 C
1831 27-02-2019 08:30:00 -0.3 C 96 % -0.86 C
1832 27-02-2019 08:35:00 -0.2 C 96 % -0.76 C
1833 27-02-2019 08:40:00 -0.2 C 96 % -0.76 C
1834 27-02-2019 08:45:00 -0.1 C 96 % -0.66 C
1835 27-02-2019 08:50:00 0 C 96 % -0.56 C
1836 27-02-2019 08:55:00 0.1 C 96 % -0.46 C
1837 27-02-2019 09:00:00 0.1 C 96 % -0.46 C
1838 27-02-2019 09:05:00 0.2 C 96 % -0.36 C
1839 27-02-2019 09:10:00 0.2 C 96 % -0.36 C
1840 27-02-2019 09:15:00 0.2 C 96 % -0.36 C
1841 27-02-2019 09:20:00 0.2 C 96 % -0.36 C
1842 27-02-2019 09:25:00 0.3 C 96 % -0.26 C
1843 27-02-2019 09:30:00 0.3 C 96 % -0.26 C
1844 27-02-2019 09:35:00 0.4 C 96 % -0.16 C
1845 27-02-2019 09:40:00 0.6 C 96 % 0.04 C
1846 27-02-2019 09:45:00 0.7 C 96 % 0.14 C
1847 27-02-2019 09:50:00 0.8 C 96 % 0.24 C
1848 27-02-2019 09:55:00 1 C 96 % 0.44 C
1849 27-02-2019 10:00:00 1.2 C 96 % 0.63 C
1850 27-02-2019 10:05:00 1.3 C 96 % 0.73 C
Sensor: Nr:Datum:Temp:Feuchte:Taupunkt:
Aussen-T/F 1851 27-02-2019 10:10:00 1.4 C 96 % 0.83 C
1852 27-02-2019 10:15:00 1.6 C 97 % 1.18 C
1853 27-02-2019 10:20:00 1.7 C 96 % 1.13 C
1854 27-02-2019 10:25:00 2 C 97 % 1.58 C
1855 27-02-2019 10:30:00 2.4 C 97 % 1.97 C
1856 27-02-2019 10:35:00 2.8 C 97 % 2.37 C
1857 27-02-2019 10:40:00 3.2 C 97 % 2.77 C
1858 27-02-2019 10:45:00 3.4 C 97 % 2.97 C
1859 27-02-2019 10:50:00 3.7 C 97 % 3.27 C
1860 27-02-2019 10:55:00 4.1 C 97 % 3.67 C
1861 27-02-2019 11:00:00 4.3 C 97 % 3.87 C
1862 27-02-2019 11:05:00 4.5 C 97 % 4.07 C
1863 27-02-2019 11:10:00 4.7 C 97 % 4.27 C
1864 27-02-2019 11:15:00 5 C 97 % 4.56 C
1865 27-02-2019 11:20:00 5.2 C 97 % 4.76 C
1866 27-02-2019 11:25:00 5.4 C 97 % 4.96 C
1867 27-02-2019 11:30:00 5.7 C 96 % 5.11 C
1868 27-02-2019 11:35:00 5.8 C 95 % 5.06 C
1869 27-02-2019 11:40:00 6 C 94 % 5.11 C
1870 27-02-2019 11:45:00 6.2 C 93 % 5.15 C
1871 27-02-2019 11:50:00 6.5 C 91 % 5.14 C
1872 27-02-2019 11:55:00 6.7 C 90 % 5.18 C
1873 27-02-2019 12:00:00 7 C 89 % 5.31 C
1874 27-02-2019 12:05:00 7.4 C 90 % 5.87 C
1875 27-02-2019 12:10:00 7.8 C 88 % 5.94 C
Sensor: Nr:Datum:Temp:Feuchte:Taupunkt:
Aussen-T/F 1876 27-02-2019 12:15:00 8.4 C 89 % 6.7 C
1877 27-02-2019 12:20:00 9.1 C 87 % 7.05 C
1878 27-02-2019 12:25:00 9.6 C 85 % 7.21 C
1879 27-02-2019 12:30:00 10.2 C 83 % 7.45 C
1880 27-02-2019 12:35:00 10.8 C 81 % 7.67 C
1881 27-02-2019 12:40:00 11.3 C 80 % 7.98 C
1882 27-02-2019 12:45:00 11.7 C 74 % 7.23 C
1883 27-02-2019 12:50:00 11.8 C 74 % 7.32 C
1884 27-02-2019 12:55:00 12 C 73 % 7.32 C
1885 27-02-2019 13:00:00 12.4 C 73 % 7.7 C
1886 27-02-2019 13:05:00 12.7 C 73 % 7.99 C
1887 27-02-2019 13:10:00 13.1 C 72 % 8.17 C
1888 27-02-2019 13:15:00 13.5 C 72 % 8.56 C
1889 27-02-2019 13:20:00 14.1 C 68 % 8.29 C
1890 27-02-2019 13:25:00 14.6 C 67 % 8.55 C
1891 27-02-2019 13:30:00 15.1 C 65 % 8.58 C
1892 27-02-2019 13:35:00 15.4 C 63 % 8.4 C
1893 27-02-2019 13:40:00 15.8 C 62 % 8.54 C
1894 27-02-2019 13:45:00 16.2 C 59 % 8.19 C
1895 27-02-2019 13:50:00 16.4 C 58 % 8.12 C
1896 27-02-2019 13:55:00 17 C 56 % 8.17 C
1897 27-02-2019 14:00:00 17.6 C 54 % 8.19 C
1898 27-02-2019 14:05:00 17.8 C 53 % 8.1 C
1899 27-02-2019 14:10:00 17.9 C 53 % 8.19 C
1900 27-02-2019 14:15:00 17.9 C 52 % 7.91 C
Sensor: Nr:Datum:Temp:Feuchte:Taupunkt:
Aussen-T/F 1901 27-02-2019 14:20:00 17.8 C 52 % 7.82 C
1902 27-02-2019 14:25:00 17.5 C 52 % 7.54 C
1903 27-02-2019 14:30:00 17.1 C 51 % 6.89 C
1904 27-02-2019 14:35:00 16.8 C 51 % 6.62 C
1905 27-02-2019 14:40:00 16.6 C 52 % 6.71 C
1906 27-02-2019 14:45:00 16.5 C 50 % 6.05 C
1907 27-02-2019 14:50:00 16.4 C 53 % 6.81 C
1908 27-02-2019 14:55:00 16.4 C 53 % 6.81 C
1909 27-02-2019 15:00:00 16.3 C 53 % 6.71 C
1910 27-02-2019 15:05:00 16.3 C 51 % 6.16 C
1911 27-02-2019 15:10:00 16.2 C 51 % 6.06 C
1912 27-02-2019 15:15:00 16.2 C 52 % 6.34 C
1913 27-02-2019 15:20:00 16.1 C 51 % 5.97 C
1914 27-02-2019 15:25:00 16 C 51 % 5.88 C
1915 27-02-2019 15:30:00 15.9 C 51 % 5.79 C
1916 27-02-2019 15:35:00 15.9 C 52 % 6.07 C
1917 27-02-2019 15:40:00 16 C 52 % 6.16 C
1918 27-02-2019 15:45:00 16.1 C 51 % 5.97 C
1919 27-02-2019 15:50:00 16.1 C 51 % 5.97 C
1920 27-02-2019 15:55:00 16.2 C 51 % 6.06 C
1921 27-02-2019 16:00:00 16.3 C 51 % 6.16 C
1922 27-02-2019 16:05:00 16.3 C 50 % 5.87 C
1923 27-02-2019 16:10:00 16.4 C 50 % 5.96 C
1924 27-02-2019 16:15:00 16.5 C 50 % 6.05 C
1925 27-02-2019 16:20:00 16.5 C 51 % 6.34 C
Sensor: Nr:Datum:Temp:Feuchte:Taupunkt:
Aussen-T/F 1926 27-02-2019 16:25:00 16.4 C 49 % 5.67 C
1927 27-02-2019 16:30:00 16.3 C 50 % 5.87 C
1928 27-02-2019 16:35:00 16.2 C 50 % 5.78 C
1929 27-02-2019 16:40:00 16.2 C 51 % 6.06 C
1930 27-02-2019 16:45:00 16.1 C 51 % 5.97 C
1931 27-02-2019 16:50:00 16 C 52 % 6.16 C
1932 27-02-2019 16:55:00 15.8 C 52 % 5.97 C
1933 27-02-2019 17:00:00 15.8 C 52 % 5.97 C
1934 27-02-2019 17:05:00 15.8 C 52 % 5.97 C
1935 27-02-2019 17:10:00 15.8 C 53 % 6.25 C
1936 27-02-2019 17:15:00 15.7 C 52 % 5.88 C
1937 27-02-2019 17:20:00 15.7 C 52 % 5.88 C
1938 27-02-2019 17:25:00 15.7 C 51 % 5.6 C
1939 27-02-2019 17:30:00 15.8 C 51 % 5.69 C
1940 27-02-2019 17:35:00 15.8 C 50 % 5.41 C
1941 27-02-2019 17:40:00 15.8 C 50 % 5.41 C
1942 27-02-2019 17:45:00 15.8 C 50 % 5.41 C
1943 27-02-2019 17:50:00 15.6 C 50 % 5.23 C
1944 27-02-2019 17:55:00 15.3 C 49 % 4.66 C
1945 27-02-2019 18:00:00 15 C 51 % 4.96 C
1946 27-02-2019 18:05:00 14.6 C 52 % 4.87 C
1947 27-02-2019 18:10:00 14.3 C 54 % 5.13 C
1948 27-02-2019 18:15:00 13.9 C 52 % 4.22 C
1949 27-02-2019 18:20:00 13.8 C 55 % 4.93 C
1950 27-02-2019 18:25:00 13.6 C 54 % 4.48 C
Sensor: Nr:Datum:Temp:Feuchte:Taupunkt:
Aussen-T/F 1951 27-02-2019 18:30:00 13.5 C 55 % 4.65 C
1952 27-02-2019 18:35:00 13.3 C 56 % 4.72 C
1953 27-02-2019 18:40:00 13 C 56 % 4.44 C
1954 27-02-2019 18:45:00 12.8 C 57 % 4.5 C
1955 27-02-2019 18:50:00 12.6 C 58 % 4.57 C
1956 27-02-2019 18:55:00 12.3 C 58 % 4.28 C
1957 27-02-2019 19:00:00 12.2 C 59 % 4.43 C
1958 27-02-2019 19:05:00 11.9 C 59 % 4.15 C
1959 27-02-2019 19:10:00 11.7 C 60 % 4.2 C
1960 27-02-2019 19:15:00 11.5 C 61 % 4.25 C
1961 27-02-2019 19:20:00 11.3 C 62 % 4.29 C
1962 27-02-2019 19:25:00 11.1 C 64 % 4.56 C
1963 27-02-2019 19:30:00 10.8 C 65 % 4.49 C
1964 27-02-2019 19:35:00 10.5 C 66 % 4.43 C
1965 27-02-2019 19:40:00 10.2 C 67 % 4.36 C
1966 27-02-2019 19:45:00 10 C 67 % 4.16 C
1967 27-02-2019 19:50:00 9.8 C 68 % 4.18 C
1968 27-02-2019 19:55:00 9.7 C 69 % 4.3 C
1969 27-02-2019 20:00:00 9.5 C 70 % 4.31 C
1970 27-02-2019 20:05:00 9.4 C 69 % 4.01 C
1971 27-02-2019 20:10:00 9.3 C 70 % 4.12 C
1972 27-02-2019 20:15:00 9.1 C 69 % 3.72 C
1973 27-02-2019 20:20:00 9.1 C 70 % 3.93 C
1974 27-02-2019 20:25:00 8.8 C 70 % 3.64 C
1975 27-02-2019 20:30:00 8.7 C 70 % 3.54 C
Sensor: Nr:Datum:Temp:Feuchte:Taupunkt:
Aussen-T/F 1976 27-02-2019 20:35:00 8.6 C 70 % 3.45 C
1977 27-02-2019 20:40:00 8.3 C 71 % 3.36 C
1978 27-02-2019 20:45:00 8.1 C 72 % 3.37 C
1979 27-02-2019 20:50:00 7.8 C 72 % 3.08 C
1980 27-02-2019 20:55:00 7.7 C 72 % 2.98 C
1981 27-02-2019 21:00:00 7.4 C 73 % 2.89 C
1982 27-02-2019 21:05:00 7.3 C 74 % 2.98 C
1983 27-02-2019 21:10:00 7.3 C 73 % 2.79 C
1984 27-02-2019 21:15:00 7.2 C 74 % 2.89 C
1985 27-02-2019 21:20:00 7.1 C 76 % 3.16 C
1986 27-02-2019 21:25:00 6.9 C 76 % 2.97 C
1987 27-02-2019 21:30:00 6.8 C 76 % 2.87 C
1988 27-02-2019 21:35:00 6.5 C 77 % 2.77 C
1989 27-02-2019 21:40:00 6.4 C 78 % 2.85 C
1990 27-02-2019 21:45:00 6.4 C 77 % 2.67 C
1991 27-02-2019 21:50:00 6.3 C 77 % 2.57 C
1992 27-02-2019 21:55:00 6 C 78 % 2.46 C
1993 27-02-2019 22:00:00 5.8 C 80 % 2.62 C
1994 27-02-2019 22:05:00 5.8 C 81 % 2.8 C
1995 27-02-2019 22:10:00 5.9 C 80 % 2.72 C
1996 27-02-2019 22:15:00 5.8 C 79 % 2.45 C
1997 27-02-2019 22:20:00 5.7 C 80 % 2.53 C
1998 27-02-2019 22:25:00 5.6 C 80 % 2.43 C
1999 27-02-2019 22:30:00 5.5 C 81 % 2.51 C
2000 27-02-2019 22:35:00 5.4 C 81 % 2.41 C
Sensor: Nr:Datum:Temp:Feuchte:Taupunkt:
Aussen-T/F 2001 27-02-2019 22:40:00 5.3 C 81 % 2.31 C
2002 27-02-2019 22:45:00 5.3 C 81 % 2.31 C
2003 27-02-2019 22:50:00 5.3 C 81 % 2.31 C
2004 27-02-2019 22:55:00 5.2 C 81 % 2.21 C
2005 27-02-2019 23:00:00 5.2 C 81 % 2.21 C
2006 27-02-2019 23:05:00 5.2 C 81 % 2.21 C
2007 27-02-2019 23:10:00 5.1 C 82 % 2.29 C
2008 27-02-2019 23:15:00 5.1 C 81 % 2.12 C
2009 27-02-2019 23:20:00 5.1 C 82 % 2.29 C
2010 27-02-2019 23:25:00 4.9 C 82 % 2.09 C
2011 27-02-2019 23:30:00 4.7 C 82 % 1.9 C
2012 27-02-2019 23:35:00 4.6 C 83 % 1.97 C
2013 27-02-2019 23:40:00 4.5 C 84 % 2.04 C
2014 27-02-2019 23:45:00 4.5 C 85 % 2.2 C
2015 27-02-2019 23:50:00 4.5 C 84 % 2.04 C
2016 27-02-2019 23:55:00 4.6 C 84 % 2.14 C
2017 28-02-2019 00:00:00 4.5 C 84 % 2.04 C
2018 28-02-2019 00:05:00 4.6 C 85 % 2.3 C
2019 28-02-2019 00:10:00 4.7 C 85 % 2.4 C
2020 28-02-2019 00:15:00 4.8 C 85 % 2.5 C
2021 28-02-2019 00:20:00 5.1 C 85 % 2.79 C
2022 28-02-2019 00:25:00 5.4 C 84 % 2.92 C
2023 28-02-2019 00:30:00 5.6 C 83 % 2.95 C
2024 28-02-2019 00:35:00 5.7 C 82 % 2.87 C
2025 28-02-2019 00:40:00 5.8 C 82 % 2.97 C
Sensor: Nr:Datum:Temp:Feuchte:Taupunkt:
Aussen-T/F 2026 28-02-2019 00:45:00 5.9 C 81 % 2.9 C
2027 28-02-2019 00:50:00 6 C 80 % 2.82 C
2028 28-02-2019 00:55:00 6.1 C 80 % 2.92 C
2029 28-02-2019 01:00:00 6.1 C 80 % 2.92 C
2030 28-02-2019 01:05:00 5.9 C 79 % 2.54 C
2031 28-02-2019 01:10:00 5.8 C 79 % 2.45 C
2032 28-02-2019 01:15:00 5.4 C 79 % 2.06 C
2033 28-02-2019 01:20:00 5.2 C 81 % 2.21 C
2034 28-02-2019 01:25:00 5 C 81 % 2.02 C
2035 28-02-2019 01:30:00 4.7 C 82 % 1.9 C
2036 28-02-2019 01:35:00 4.5 C 83 % 1.87 C
2037 28-02-2019 01:40:00 4.3 C 83 % 1.67 C
2038 28-02-2019 01:45:00 4.1 C 84 % 1.65 C
2039 28-02-2019 01:50:00 4.1 C 85 % 1.81 C
2040 28-02-2019 01:55:00 4.1 C 86 % 1.97 C
2041 28-02-2019 02:00:00 4.1 C 86 % 1.97 C
2042 28-02-2019 02:05:00 4.1 C 86 % 1.97 C
2043 28-02-2019 02:10:00 4.2 C 86 % 2.07 C
2044 28-02-2019 02:15:00 4.1 C 85 % 1.81 C
2045 28-02-2019 02:20:00 3.8 C 85 % 1.52 C
2046 28-02-2019 02:25:00 3.6 C 86 % 1.48 C
2047 28-02-2019 02:30:00 3.4 C 86 % 1.29 C
2048 28-02-2019 02:35:00 3.3 C 87 % 1.35 C
2049 28-02-2019 02:40:00 3.3 C 88 % 1.51 C
2050 28-02-2019 02:45:00 3.4 C 89 % 1.76 C
Sensor: Nr:Datum:Temp:Feuchte:Taupunkt:
Aussen-T/F 2051 28-02-2019 02:50:00 3.4 C 89 % 1.76 C
2052 28-02-2019 02:55:00 3.4 C 88 % 1.61 C
2053 28-02-2019 03:00:00 3.3 C 88 % 1.51 C
2054 28-02-2019 03:05:00 3.1 C 87 % 1.15 C
2055 28-02-2019 03:10:00 2.9 C 88 % 1.11 C
2056 28-02-2019 03:15:00 2.9 C 89 % 1.27 C
2057 28-02-2019 03:20:00 2.8 C 89 % 1.17 C
2058 28-02-2019 03:25:00 2.8 C 90 % 1.33 C
2059 28-02-2019 03:30:00 2.9 C 90 % 1.43 C
2060 28-02-2019 03:35:00 3 C 90 % 1.52 C
2061 28-02-2019 03:40:00 3.1 C 90 % 1.62 C
2062 28-02-2019 03:45:00 3 C 89 % 1.37 C
2063 28-02-2019 03:50:00 2.8 C 89 % 1.17 C
2064 28-02-2019 03:55:00 2.7 C 89 % 1.07 C
2065 28-02-2019 04:00:00 2.6 C 89 % 0.97 C
2066 28-02-2019 04:05:00 2.4 C 89 % 0.78 C
2067 28-02-2019 04:10:00 2.2 C 88 % 0.42 C
2068 28-02-2019 04:15:00 2 C 89 % 0.38 C
2069 28-02-2019 04:20:00 1.9 C 90 % 0.44 C
2070 28-02-2019 04:25:00 2.1 C 91 % 0.79 C
2071 28-02-2019 04:30:00 2.3 C 92 % 1.14 C
2072 28-02-2019 04:35:00 2.3 C 91 % 0.99 C
2073 28-02-2019 04:40:00 2.3 C 91 % 0.99 C
2074 28-02-2019 04:45:00 2.3 C 91 % 0.99 C
2075 28-02-2019 04:50:00 2.4 C 92 % 1.24 C
Sensor: Nr:Datum:Temp:Feuchte:Taupunkt:
Aussen-T/F 2076 28-02-2019 04:55:00 2.5 C 91 % 1.18 C
2077 28-02-2019 05:00:00 2.6 C 91 % 1.28 C
2078 28-02-2019 05:05:00 2.5 C 91 % 1.18 C
2079 28-02-2019 05:10:00 2.5 C 91 % 1.18 C
2080 28-02-2019 05:15:00 2.4 C 90 % 0.93 C
2081 28-02-2019 05:20:00 2.3 C 91 % 0.99 C
2082 28-02-2019 05:25:00 2.3 C 91 % 0.99 C
2083 28-02-2019 05:30:00 2.3 C 91 % 0.99 C
2084 28-02-2019 05:35:00 2.3 C 91 % 0.99 C
2085 28-02-2019 05:40:00 2.3 C 91 % 0.99 C
2086 28-02-2019 05:45:00 2.3 C 91 % 0.99 C
2087 28-02-2019 05:50:00 2.2 C 91 % 0.89 C
2088 28-02-2019 05:55:00 2.3 C 92 % 1.14 C
2089 28-02-2019 06:00:00 2.5 C 92 % 1.34 C
2090 28-02-2019 06:05:00 2.7 C 92 % 1.53 C
2091 28-02-2019 06:10:00 2.7 C 92 % 1.53 C
2092 28-02-2019 06:15:00 2.7 C 91 % 1.38 C
2093 28-02-2019 06:20:00 2.6 C 91 % 1.28 C
2094 28-02-2019 06:25:00 2.7 C 91 % 1.38 C
2095 28-02-2019 06:30:00 2.9 C 92 % 1.73 C
2096 28-02-2019 06:35:00 3.4 C 92 % 2.23 C
2097 28-02-2019 06:40:00 3.8 C 90 % 2.31 C
2098 28-02-2019 06:45:00 4.2 C 88 % 2.39 C
2099 28-02-2019 06:50:00 4.2 C 87 % 2.23 C
2100 28-02-2019 06:55:00 4.2 C 87 % 2.23 C
Sensor: Nr:Datum:Temp:Feuchte:Taupunkt:
Aussen-T/F 2101 28-02-2019 07:00:00 4.2 C 87 % 2.23 C
2102 28-02-2019 07:05:00 4.2 C 86 % 2.07 C
2103 28-02-2019 07:10:00 4.1 C 86 % 1.97 C
2104 28-02-2019 07:15:00 3.9 C 86 % 1.78 C
2105 28-02-2019 07:20:00 3.9 C 87 % 1.94 C
2106 28-02-2019 07:25:00 3.8 C 87 % 1.84 C
2107 28-02-2019 07:30:00 3.8 C 87 % 1.84 C
2108 28-02-2019 07:35:00 3.7 C 87 % 1.74 C
2109 28-02-2019 07:40:00 3.6 C 88 % 1.8 C
2110 28-02-2019 07:45:00 3.4 C 87 % 1.45 C
2111 28-02-2019 07:50:00 3.3 C 87 % 1.35 C
2112 28-02-2019 07:55:00 3.1 C 87 % 1.15 C
2113 28-02-2019 08:00:00 2.9 C 88 % 1.11 C
2114 28-02-2019 08:05:00 2.7 C 88 % 0.92 C
2115 28-02-2019 08:10:00 2.7 C 88 % 0.92 C
2116 28-02-2019 08:15:00 2.6 C 89 % 0.97 C
2117 28-02-2019 08:20:00 2.7 C 90 % 1.23 C
2118 28-02-2019 08:25:00 2.8 C 90 % 1.33 C
2119 28-02-2019 08:30:00 2.9 C 91 % 1.58 C
2120 28-02-2019 08:35:00 3.1 C 91 % 1.78 C
2121 28-02-2019 08:40:00 3.3 C 91 % 1.98 C
2122 28-02-2019 08:45:00 3.6 C 92 % 2.42 C
2123 28-02-2019 08:50:00 3.7 C 91 % 2.37 C
2124 28-02-2019 08:55:00 3.9 C 91 % 2.57 C
2125 28-02-2019 09:00:00 4.1 C 91 % 2.77 C
Sensor: Nr:Datum:Temp:Feuchte:Taupunkt:
Aussen-T/F 2126 28-02-2019 09:05:00 4.2 C 90 % 2.71 C
2127 28-02-2019 09:10:00 4.3 C 90 % 2.81 C
2128 28-02-2019 09:15:00 4.4 C 89 % 2.75 C
2129 28-02-2019 09:20:00 4.5 C 89 % 2.85 C
2130 28-02-2019 09:25:00 4.6 C 89 % 2.95 C
2131 28-02-2019 09:30:00 4.7 C 89 % 3.05 C
2132 28-02-2019 09:35:00 4.8 C 88 % 2.99 C
2133 28-02-2019 09:40:00 4.9 C 88 % 3.08 C
2134 28-02-2019 09:45:00 5.1 C 88 % 3.28 C
2135 28-02-2019 09:50:00 5.2 C 88 % 3.38 C
2136 28-02-2019 09:55:00 5.4 C 89 % 3.74 C
2137 28-02-2019 10:00:00 5.6 C 89 % 3.93 C
2138 28-02-2019 10:05:00 5.8 C 89 % 4.13 C
2139 28-02-2019 10:10:00 6.3 C 88 % 4.46 C
2140 28-02-2019 10:15:00 6.7 C 88 % 4.86 C
2141 28-02-2019 10:20:00 7.1 C 86 % 4.92 C
2142 28-02-2019 10:25:00 7.5 C 85 % 5.15 C
2143 28-02-2019 10:30:00 7.9 C 84 % 5.37 C
2144 28-02-2019 10:35:00 8.4 C 83 % 5.69 C
2145 28-02-2019 10:40:00 8.7 C 82 % 5.8 C
2146 28-02-2019 10:45:00 9 C 81 % 5.92 C
2147 28-02-2019 10:50:00 9.3 C 80 % 6.03 C
2148 28-02-2019 10:55:00 9.6 C 79 % 6.14 C
2149 28-02-2019 11:00:00 9.9 C 78 % 6.25 C
2150 28-02-2019 11:05:00 10.2 C 77 % 6.35 C
Sensor: Nr:Datum:Temp:Feuchte:Taupunkt:
Aussen-T/F 2151 28-02-2019 11:10:00 10.6 C 76 % 6.55 C
2152 28-02-2019 11:15:00 10.9 C 75 % 6.65 C
2153 28-02-2019 11:20:00 11.3 C 73 % 6.64 C
2154 28-02-2019 11:25:00 11.7 C 72 % 6.83 C
2155 28-02-2019 11:30:00 11.9 C 71 % 6.82 C
2156 28-02-2019 11:35:00 12.2 C 70 % 6.9 C
2157 28-02-2019 11:40:00 12.4 C 69 % 6.88 C
2158 28-02-2019 11:45:00 12.5 C 69 % 6.97 C
2159 28-02-2019 11:50:00 12.6 C 69 % 7.07 C
2160 28-02-2019 11:55:00 12.6 C 69 % 7.07 C
2161 28-02-2019 12:00:00 12.7 C 68 % 6.95 C
2162 28-02-2019 12:05:00 12.8 C 69 % 7.26 C
2163 28-02-2019 12:10:00 12.8 C 68 % 7.05 C
2164 28-02-2019 12:15:00 12.9 C 68 % 7.14 C
2165 28-02-2019 12:20:00 13 C 68 % 7.24 C
2166 28-02-2019 12:25:00 13.1 C 67 % 7.12 C
2167 28-02-2019 12:30:00 13.2 C 67 % 7.21 C
2168 28-02-2019 12:35:00 13.4 C 68 % 7.62 C
2169 28-02-2019 12:40:00 13.7 C 66 % 7.47 C
2170 28-02-2019 12:45:00 13.8 C 66 % 7.57 C
2171 28-02-2019 12:50:00 13.9 C 66 % 7.66 C
2172 28-02-2019 12:55:00 13.9 C 66 % 7.66 C
2173 28-02-2019 13:00:00 14.1 C 66 % 7.85 C
2174 28-02-2019 13:05:00 14.2 C 65 % 7.72 C
2175 28-02-2019 13:10:00 14.3 C 66 % 8.04 C
Sensor: Nr:Datum:Temp:Feuchte:Taupunkt:
Aussen-T/F 2176 28-02-2019 13:15:00 14.5 C 64 % 7.78 C
2177 28-02-2019 13:20:00 14.7 C 65 % 8.2 C
2178 28-02-2019 13:25:00 14.9 C 63 % 7.93 C
2179 28-02-2019 13:30:00 15.1 C 64 % 8.35 C
2180 28-02-2019 13:35:00 15.2 C 63 % 8.21 C
2181 28-02-2019 13:40:00 15.4 C 62 % 8.16 C
2182 28-02-2019 13:45:00 15.6 C 62 % 8.35 C
2183 28-02-2019 13:50:00 15.7 C 61 % 8.21 C
2184 28-02-2019 13:55:00 15.8 C 61 % 8.3 C
2185 28-02-2019 14:00:00 16 C 62 % 8.73 C
2186 28-02-2019 14:05:00 16.2 C 61 % 8.68 C
2187 28-02-2019 14:10:00 16.3 C 61 % 8.77 C
2188 28-02-2019 14:15:00 16.4 C 61 % 8.87 C
2189 28-02-2019 14:20:00 16.4 C 61 % 8.87 C
2190 28-02-2019 14:25:00 16.5 C 61 % 8.96 C
2191 28-02-2019 14:30:00 16.6 C 61 % 9.06 C
2192 28-02-2019 14:35:00 16.7 C 61 % 9.15 C
2193 28-02-2019 14:40:00 16.8 C 61 % 9.24 C
2194 28-02-2019 14:45:00 17.1 C 60 % 9.28 C
2195 28-02-2019 14:50:00 17.2 C 60 % 9.37 C
2196 28-02-2019 14:55:00 17.2 C 60 % 9.37 C
2197 28-02-2019 15:00:00 17.2 C 60 % 9.37 C
2198 28-02-2019 15:05:00 17.1 C 60 % 9.28 C
2199 28-02-2019 15:10:00 17 C 62 % 9.67 C
2200 28-02-2019 15:15:00 17 C 61 % 9.43 C
Sensor: Nr:Datum:Temp:Feuchte:Taupunkt:
Aussen-T/F 2201 28-02-2019 15:20:00 16.9 C 61 % 9.34 C
2202 28-02-2019 15:25:00 16.8 C 62 % 9.49 C
2203 28-02-2019 15:30:00 16.8 C 62 % 9.49 C
2204 28-02-2019 15:35:00 16.7 C 62 % 9.39 C
2205 28-02-2019 15:40:00 16.7 C 60 % 8.9 C
2206 28-02-2019 15:45:00 16.5 C 60 % 8.72 C
2207 28-02-2019 15:50:00 16.3 C 61 % 8.77 C
2208 28-02-2019 15:55:00 16.2 C 61 % 8.68 C
2209 28-02-2019 16:00:00 16.2 C 62 % 8.92 C
2210 28-02-2019 16:05:00 16.2 C 64 % 9.39 C
2211 28-02-2019 16:10:00 16.1 C 65 % 9.53 C
2212 28-02-2019 16:15:00 16 C 66 % 9.66 C
2213 28-02-2019 16:20:00 15.9 C 66 % 9.56 C
2214 28-02-2019 16:25:00 15.7 C 66 % 9.37 C
2215 28-02-2019 16:30:00 15.5 C 67 % 9.41 C
2216 28-02-2019 16:35:00 15.3 C 63 % 8.31 C
2217 28-02-2019 16:40:00 14.7 C 60 % 7.03 C
2218 28-02-2019 16:45:00 14 C 61 % 6.61 C
2219 28-02-2019 16:50:00 13.6 C 63 % 6.7 C
2220 28-02-2019 16:55:00 13.3 C 64 % 6.64 C
2221 28-02-2019 17:00:00 13.1 C 64 % 6.45 C
2222 28-02-2019 17:05:00 13 C 65 % 6.58 C
2223 28-02-2019 17:10:00 12.9 C 66 % 6.71 C
2224 28-02-2019 17:15:00 12.9 C 67 % 6.93 C
2225 28-02-2019 17:20:00 12.8 C 67 % 6.83 C
Sensor: Nr:Datum:Temp:Feuchte:Taupunkt:
Aussen-T/F 2226 28-02-2019 17:25:00 12.8 C 68 % 7.05 C
2227 28-02-2019 17:30:00 12.7 C 69 % 7.17 C
2228 28-02-2019 17:35:00 12.6 C 69 % 7.07 C
2229 28-02-2019 17:40:00 12.6 C 69 % 7.07 C
2230 28-02-2019 17:45:00 12.5 C 69 % 6.97 C
2231 28-02-2019 17:50:00 12.5 C 70 % 7.18 C
2232 28-02-2019 17:55:00 12.4 C 70 % 7.09 C
2233 28-02-2019 18:00:00 12.4 C 70 % 7.09 C
2234 28-02-2019 18:05:00 12.4 C 70 % 7.09 C
2235 28-02-2019 18:10:00 12.3 C 71 % 7.2 C
2236 28-02-2019 18:15:00 12.3 C 71 % 7.2 C
2237 28-02-2019 18:20:00 12.2 C 71 % 7.1 C
2238 28-02-2019 18:25:00 12.2 C 71 % 7.1 C
2239 28-02-2019 18:30:00 12.1 C 71 % 7.01 C
2240 28-02-2019 18:35:00 12.1 C 72 % 7.21 C
2241 28-02-2019 18:40:00 12 C 72 % 7.12 C
2242 28-02-2019 18:45:00 11.9 C 73 % 7.22 C
2243 28-02-2019 18:50:00 11.9 C 73 % 7.22 C
2244 28-02-2019 18:55:00 11.8 C 73 % 7.12 C
2245 28-02-2019 19:00:00 11.8 C 74 % 7.32 C
2246 28-02-2019 19:05:00 11.7 C 74 % 7.23 C
2247 28-02-2019 19:10:00 11.6 C 74 % 7.13 C
2248 28-02-2019 19:15:00 11.4 C 75 % 7.13 C
2249 28-02-2019 19:20:00 11.3 C 75 % 7.04 C
2250 28-02-2019 19:25:00 11.2 C 75 % 6.94 C
Sensor: Nr:Datum:Temp:Feuchte:Taupunkt:
Aussen-T/F 2251 28-02-2019 19:30:00 11.1 C 76 % 7.04 C
2252 28-02-2019 19:35:00 11.1 C 76 % 7.04 C
2253 28-02-2019 19:40:00 11 C 77 % 7.13 C
2254 28-02-2019 19:45:00 11 C 77 % 7.13 C
2255 28-02-2019 19:50:00 11 C 77 % 7.13 C
2256 28-02-2019 19:55:00 11 C 78 % 7.32 C
2257 28-02-2019 20:00:00 11 C 78 % 7.32 C
2258 28-02-2019 20:05:00 11.1 C 78 % 7.41 C
2259 28-02-2019 20:10:00 11.1 C 78 % 7.41 C
2260 28-02-2019 20:15:00 11.1 C 78 % 7.41 C
2261 28-02-2019 20:20:00 11.1 C 78 % 7.41 C
2262 28-02-2019 20:25:00 11.1 C 79 % 7.6 C
2263 28-02-2019 20:30:00 11.1 C 79 % 7.6 C
2264 28-02-2019 20:35:00 11.1 C 79 % 7.6 C
2265 28-02-2019 20:40:00 11.1 C 79 % 7.6 C
2266 28-02-2019 20:45:00 11.1 C 79 % 7.6 C
2267 28-02-2019 20:50:00 11.1 C 79 % 7.6 C
2268 28-02-2019 20:55:00 11.1 C 79 % 7.6 C
2269 28-02-2019 21:00:00 11.1 C 80 % 7.79 C
2270 28-02-2019 21:05:00 11.1 C 80 % 7.79 C
2271 28-02-2019 21:10:00 11.1 C 81 % 7.97 C
2272 28-02-2019 21:15:00 11 C 81 % 7.87 C
2273 28-02-2019 21:20:00 10.9 C 81 % 7.77 C
2274 28-02-2019 21:25:00 10.9 C 81 % 7.77 C
2275 28-02-2019 21:30:00 10.9 C 81 % 7.77 C
Sensor: Nr:Datum:Temp:Feuchte:Taupunkt:
Aussen-T/F 2276 28-02-2019 21:35:00 10.9 C 81 % 7.77 C
2277 28-02-2019 21:40:00 10.9 C 81 % 7.77 C
2278 28-02-2019 21:45:00 10.9 C 81 % 7.77 C
2279 28-02-2019 21:50:00 11 C 81 % 7.87 C
2280 28-02-2019 21:55:00 11 C 80 % 7.69 C
2281 28-02-2019 22:00:00 10.9 C 80 % 7.59 C
2282 28-02-2019 22:05:00 10.9 C 81 % 7.77 C
2283 28-02-2019 22:10:00 10.9 C 81 % 7.77 C
2284 28-02-2019 22:15:00 10.9 C 81 % 7.77 C
2285 28-02-2019 22:20:00 10.9 C 82 % 7.95 C
2286 28-02-2019 22:25:00 10.9 C 82 % 7.95 C
2287 28-02-2019 22:30:00 10.8 C 82 % 7.85 C
2288 28-02-2019 22:35:00 10.8 C 82 % 7.85 C
2289 28-02-2019 22:40:00 10.8 C 82 % 7.85 C
2290 28-02-2019 22:45:00 10.8 C 82 % 7.85 C
2291 28-02-2019 22:50:00 10.8 C 83 % 8.03 C
2292 28-02-2019 22:55:00 10.7 C 83 % 7.93 C
2293 28-02-2019 23:00:00 10.7 C 83 % 7.93 C
2294 28-02-2019 23:05:00 10.7 C 83 % 7.93 C
2295 28-02-2019 23:10:00 10.7 C 84 % 8.11 C
2296 28-02-2019 23:15:00 10.6 C 85 % 8.19 C
2297 28-02-2019 23:20:00 10.6 C 85 % 8.19 C
2298 28-02-2019 23:25:00 10.4 C 86 % 8.16 C
2299 28-02-2019 23:30:00 10.3 C 87 % 8.23 C
2300 28-02-2019 23:35:00 10.2 C 88 % 8.3 C
Sensor: Nr:Datum:Temp:Feuchte:Taupunkt:
Aussen-T/F 2301 28-02-2019 23:40:00 9.9 C 89 % 8.17 C
2302 28-02-2019 23:45:00 9.8 C 89 % 8.08 C
2303 28-02-2019 23:50:00 9.7 C 90 % 8.14 C
2304 28-02-2019 23:55:00 9.6 C 90 % 8.04 C
2305 01-03-2019 00:00:00 9.5 C 91 % 8.11 C
2306 01-03-2019 00:05:00 9.4 C 91 % 8.01 C
2307 01-03-2019 00:10:00 9.3 C 92 % 8.07 C
2308 01-03-2019 00:15:00 9.3 C 92 % 8.07 C
2309 01-03-2019 00:20:00 9.2 C 92 % 7.97 C
2310 01-03-2019 00:25:00 9.1 C 92 % 7.87 C
2311 01-03-2019 00:30:00 9.1 C 92 % 7.87 C
2312 01-03-2019 00:35:00 9 C 92 % 7.77 C
2313 01-03-2019 00:40:00 8.9 C 92 % 7.67 C
2314 01-03-2019 00:45:00 8.8 C 92 % 7.57 C
2315 01-03-2019 00:50:00 8.7 C 92 % 7.47 C
2316 01-03-2019 00:55:00 8.6 C 93 % 7.53 C
2317 01-03-2019 01:00:00 8.6 C 93 % 7.53 C
2318 01-03-2019 01:05:00 8.7 C 93 % 7.63 C
2319 01-03-2019 01:10:00 8.8 C 94 % 7.89 C
2320 01-03-2019 01:15:00 8.8 C 94 % 7.89 C
2321 01-03-2019 01:20:00 8.8 C 94 % 7.89 C
2322 01-03-2019 01:25:00 8.7 C 94 % 7.79 C
2323 01-03-2019 01:30:00 8.7 C 94 % 7.79 C
2324 01-03-2019 01:35:00 8.7 C 94 % 7.79 C
2325 01-03-2019 01:40:00 8.6 C 93 % 7.53 C
Sensor: Nr:Datum:Temp:Feuchte:Taupunkt:
Aussen-T/F 2326 01-03-2019 01:45:00 8.6 C 94 % 7.69 C
2327 01-03-2019 01:50:00 8.6 C 94 % 7.69 C
2328 01-03-2019 01:55:00 8.6 C 94 % 7.69 C
2329 01-03-2019 02:00:00 8.6 C 94 % 7.69 C
2330 01-03-2019 02:05:00 8.6 C 94 % 7.69 C
2331 01-03-2019 02:10:00 8.7 C 94 % 7.79 C
2332 01-03-2019 02:15:00 8.7 C 94 % 7.79 C
2333 01-03-2019 02:20:00 8.7 C 93 % 7.63 C
2334 01-03-2019 02:25:00 8.7 C 93 % 7.63 C
2335 01-03-2019 02:30:00 8.8 C 93 % 7.73 C
2336 01-03-2019 02:35:00 8.7 C 93 % 7.63 C
2337 01-03-2019 02:40:00 8.7 C 93 % 7.63 C
2338 01-03-2019 02:45:00 8.7 C 93 % 7.63 C
2339 01-03-2019 02:50:00 8.7 C 93 % 7.63 C
2340 01-03-2019 02:55:00 8.7 C 93 % 7.63 C
2341 01-03-2019 03:00:00 8.7 C 92 % 7.47 C
2342 01-03-2019 03:05:00 8.8 C 92 % 7.57 C
2343 01-03-2019 03:10:00 8.7 C 92 % 7.47 C
2344 01-03-2019 03:15:00 8.7 C 92 % 7.47 C
2345 01-03-2019 03:20:00 8.8 C 92 % 7.57 C
2346 01-03-2019 03:25:00 8.8 C 92 % 7.57 C
2347 01-03-2019 03:30:00 8.8 C 91 % 7.41 C
2348 01-03-2019 03:35:00 8.9 C 91 % 7.51 C
2349 01-03-2019 03:40:00 8.9 C 91 % 7.51 C
2350 01-03-2019 03:45:00 8.9 C 91 % 7.51 C
Sensor: Nr:Datum:Temp:Feuchte:Taupunkt:
Aussen-T/F 2351 01-03-2019 03:50:00 8.8 C 91 % 7.41 C
2352 01-03-2019 03:55:00 8.8 C 91 % 7.41 C
2353 01-03-2019 04:00:00 8.8 C 91 % 7.41 C
2354 01-03-2019 04:05:00 8.8 C 91 % 7.41 C
2355 01-03-2019 04:10:00 8.8 C 91 % 7.41 C
2356 01-03-2019 04:15:00 8.8 C 91 % 7.41 C
2357 01-03-2019 04:20:00 8.8 C 91 % 7.41 C
2358 01-03-2019 04:25:00 8.8 C 91 % 7.41 C
2359 01-03-2019 04:30:00 8.8 C 91 % 7.41 C
2360 01-03-2019 04:35:00 8.7 C 91 % 7.32 C
2361 01-03-2019 04:40:00 8.7 C 91 % 7.32 C
2362 01-03-2019 04:45:00 8.7 C 91 % 7.32 C
2363 01-03-2019 04:50:00 8.7 C 91 % 7.32 C
2364 01-03-2019 04:55:00 8.7 C 91 % 7.32 C
2365 01-03-2019 05:00:00 8.7 C 91 % 7.32 C
2366 01-03-2019 05:05:00 8.7 C 91 % 7.32 C
2367 01-03-2019 05:10:00 8.7 C 91 % 7.32 C
2368 01-03-2019 05:15:00 8.7 C 91 % 7.32 C
2369 01-03-2019 05:20:00 8.7 C 91 % 7.32 C
2370 01-03-2019 05:25:00 8.7 C 92 % 7.47 C
2371 01-03-2019 05:30:00 8.7 C 92 % 7.47 C
2372 01-03-2019 05:35:00 8.6 C 92 % 7.38 C
2373 01-03-2019 05:40:00 8.6 C 92 % 7.38 C
2374 01-03-2019 05:45:00 8.5 C 92 % 7.28 C
2375 01-03-2019 05:50:00 8.5 C 93 % 7.43 C
Sensor: Nr:Datum:Temp:Feuchte:Taupunkt:
Aussen-T/F 2376 01-03-2019 05:55:00 8.5 C 93 % 7.43 C
2377 01-03-2019 06:00:00 8.4 C 93 % 7.34 C
2378 01-03-2019 06:05:00 8.4 C 93 % 7.34 C
2379 01-03-2019 06:10:00 8.4 C 93 % 7.34 C
2380 01-03-2019 06:15:00 8.3 C 94 % 7.39 C
2381 01-03-2019 06:20:00 8.3 C 93 % 7.24 C
2382 01-03-2019 06:25:00 8.2 C 93 % 7.14 C
2383 01-03-2019 06:30:00 8.2 C 94 % 7.29 C
2384 01-03-2019 06:35:00 8.1 C 94 % 7.19 C
2385 01-03-2019 06:40:00 8.1 C 94 % 7.19 C
2386 01-03-2019 06:45:00 8.1 C 94 % 7.19 C
2387 01-03-2019 06:50:00 8 C 94 % 7.09 C
2388 01-03-2019 06:55:00 8 C 94 % 7.09 C
2389 01-03-2019 07:00:00 8 C 94 % 7.09 C
2390 01-03-2019 07:05:00 8.1 C 95 % 7.35 C
2391 01-03-2019 07:10:00 8.1 C 95 % 7.35 C
2392 01-03-2019 07:15:00 8.2 C 95 % 7.45 C
2393 01-03-2019 07:20:00 8.2 C 95 % 7.45 C
2394 01-03-2019 07:25:00 8.2 C 95 % 7.45 C
2395 01-03-2019 07:30:00 8.3 C 95 % 7.55 C
2396 01-03-2019 07:35:00 8.3 C 95 % 7.55 C
2397 01-03-2019 07:40:00 8.3 C 95 % 7.55 C
2398 01-03-2019 07:45:00 8.3 C 95 % 7.55 C
2399 01-03-2019 07:50:00 8.3 C 95 % 7.55 C
2400 01-03-2019 07:55:00 8.3 C 95 % 7.55 C
Sensor: Nr:Datum:Temp:Feuchte:Taupunkt:
Aussen-T/F 2401 01-03-2019 08:00:00 8.3 C 95 % 7.55 C
2402 01-03-2019 08:05:00 8.3 C 95 % 7.55 C
2403 01-03-2019 08:10:00 8.4 C 95 % 7.65 C
2404 01-03-2019 08:15:00 8.4 C 95 % 7.65 C
2405 01-03-2019 08:20:00 8.5 C 95 % 7.75 C
2406 01-03-2019 08:25:00 8.6 C 95 % 7.85 C
2407 01-03-2019 08:30:00 8.6 C 95 % 7.85 C
2408 01-03-2019 08:35:00 8.6 C 95 % 7.85 C
2409 01-03-2019 08:40:00 8.6 C 95 % 7.85 C
2410 01-03-2019 08:45:00 8.7 C 95 % 7.94 C
2411 01-03-2019 08:50:00 8.7 C 95 % 7.94 C
2412 01-03-2019 08:55:00 8.7 C 95 % 7.94 C
2413 01-03-2019 09:00:00 8.7 C 95 % 7.94 C
2414 01-03-2019 09:05:00 8.7 C 95 % 7.94 C
2415 01-03-2019 09:10:00 8.7 C 95 % 7.94 C
2416 01-03-2019 09:15:00 8.7 C 95 % 7.94 C
2417 01-03-2019 09:20:00 8.7 C 95 % 7.94 C
2418 01-03-2019 09:25:00 8.7 C 95 % 7.94 C
2419 01-03-2019 09:30:00 8.7 C 95 % 7.94 C
2420 01-03-2019 09:35:00 8.7 C 95 % 7.94 C
2421 01-03-2019 09:40:00 8.7 C 95 % 7.94 C
2422 01-03-2019 09:45:00 8.7 C 95 % 7.94 C
2423 01-03-2019 09:50:00 8.6 C 95 % 7.85 C
2424 01-03-2019 09:55:00 8.6 C 95 % 7.85 C
2425 01-03-2019 10:00:00 8.6 C 95 % 7.85 C
Sensor: Nr:Datum:Temp:Feuchte:Taupunkt:
Aussen-T/F 2426 01-03-2019 10:05:00 8.6 C 96 % 8 C
2427 01-03-2019 10:10:00 8.6 C 96 % 8 C
2428 01-03-2019 10:15:00 8.6 C 96 % 8 C
2429 01-03-2019 10:20:00 8.6 C 96 % 8 C
2430 01-03-2019 10:25:00 8.6 C 96 % 8 C
2431 01-03-2019 10:30:00 8.6 C 96 % 8 C
2432 01-03-2019 10:35:00 8.7 C 96 % 8.1 C
2433 01-03-2019 10:40:00 8.7 C 96 % 8.1 C
2434 01-03-2019 10:45:00 8.8 C 96 % 8.2 C
2435 01-03-2019 10:50:00 8.8 C 96 % 8.2 C
2436 01-03-2019 10:55:00 8.8 C 96 % 8.2 C
2437 01-03-2019 11:00:00 8.8 C 96 % 8.2 C
2438 01-03-2019 11:05:00 8.7 C 95 % 7.94 C
2439 01-03-2019 11:10:00 8.7 C 95 % 7.94 C
2440 01-03-2019 11:15:00 8.7 C 95 % 7.94 C
2441 01-03-2019 11:20:00 8.7 C 95 % 7.94 C
2442 01-03-2019 11:25:00 8.7 C 95 % 7.94 C
2443 01-03-2019 11:30:00 8.6 C 95 % 7.85 C
2444 01-03-2019 11:35:00 8.7 C 95 % 7.94 C
2445 01-03-2019 11:40:00 8.7 C 95 % 7.94 C
2446 01-03-2019 11:45:00 8.8 C 95 % 8.04 C
2447 01-03-2019 11:50:00 8.9 C 95 % 8.14 C
2448 01-03-2019 11:55:00 9.1 C 95 % 8.34 C
2449 01-03-2019 12:00:00 9.1 C 94 % 8.19 C
2450 01-03-2019 12:05:00 9.1 C 94 % 8.19 C
Sensor: Nr:Datum:Temp:Feuchte:Taupunkt:
Aussen-T/F 2451 01-03-2019 12:10:00 9.1 C 93 % 8.03 C
2452 01-03-2019 12:15:00 9.1 C 92 % 7.87 C
2453 01-03-2019 12:20:00 9.1 C 92 % 7.87 C
2454 01-03-2019 12:25:00 9.1 C 91 % 7.71 C
2455 01-03-2019 12:30:00 9 C 91 % 7.61 C
2456 01-03-2019 12:35:00 9.1 C 90 % 7.55 C
2457 01-03-2019 12:40:00 9 C 90 % 7.45 C
2458 01-03-2019 12:45:00 8.9 C 90 % 7.35 C
2459 01-03-2019 12:50:00 8.8 C 90 % 7.25 C
2460 01-03-2019 12:55:00 8.8 C 90 % 7.25 C
2461 01-03-2019 13:00:00 8.7 C 91 % 7.32 C
2462 01-03-2019 13:05:00 8.7 C 91 % 7.32 C
2463 01-03-2019 13:10:00 8.7 C 91 % 7.32 C
2464 01-03-2019 13:15:00 8.6 C 91 % 7.22 C
2465 01-03-2019 13:20:00 8.5 C 91 % 7.12 C
2466 01-03-2019 13:25:00 8.4 C 91 % 7.02 C
2467 01-03-2019 13:30:00 8.4 C 92 % 7.18 C
2468 01-03-2019 13:35:00 8.4 C 92 % 7.18 C
2469 01-03-2019 13:40:00 8.3 C 92 % 7.08 C
2470 01-03-2019 13:45:00 8.4 C 92 % 7.18 C
2471 01-03-2019 13:50:00 8.4 C 92 % 7.18 C
2472 01-03-2019 13:55:00 8.4 C 92 % 7.18 C
2473 01-03-2019 14:00:00 8.4 C 92 % 7.18 C
2474 01-03-2019 14:05:00 8.4 C 92 % 7.18 C
2475 01-03-2019 14:10:00 8.4 C 92 % 7.18 C
Sensor: Nr:Datum:Temp:Feuchte:Taupunkt:
Aussen-T/F 2476 01-03-2019 14:15:00 8.3 C 91 % 6.92 C
2477 01-03-2019 14:20:00 8.4 C 91 % 7.02 C
2478 01-03-2019 14:25:00 8.4 C 91 % 7.02 C
2479 01-03-2019 14:30:00 8.3 C 90 % 6.76 C
2480 01-03-2019 14:35:00 8.4 C 90 % 6.86 C
2481 01-03-2019 14:40:00 8.4 C 89 % 6.7 C
2482 01-03-2019 14:45:00 8.4 C 89 % 6.7 C
2483 01-03-2019 14:50:00 8.4 C 89 % 6.7 C
2484 01-03-2019 14:55:00 8.4 C 89 % 6.7 C
2485 01-03-2019 15:00:00 8.4 C 89 % 6.7 C
2486 01-03-2019 15:05:00 8.4 C 89 % 6.7 C
2487 01-03-2019 15:10:00 8.4 C 90 % 6.86 C
2488 01-03-2019 15:15:00 8.3 C 89 % 6.6 C
2489 01-03-2019 15:20:00 8.3 C 89 % 6.6 C
2490 01-03-2019 15:25:00 8.3 C 90 % 6.76 C
2491 01-03-2019 15:30:00 8.3 C 90 % 6.76 C
2492 01-03-2019 15:35:00 8.3 C 90 % 6.76 C
2493 01-03-2019 15:40:00 8.3 C 90 % 6.76 C
2494 01-03-2019 15:45:00 8.3 C 90 % 6.76 C
2495 01-03-2019 15:50:00 8.3 C 90 % 6.76 C
2496 01-03-2019 15:55:00 8.3 C 90 % 6.76 C
2497 01-03-2019 16:00:00 8.3 C 90 % 6.76 C
2498 01-03-2019 16:05:00 8.4 C 90 % 6.86 C
2499 01-03-2019 16:10:00 8.4 C 90 % 6.86 C
2500 01-03-2019 16:15:00 8.4 C 90 % 6.86 C
Sensor: Nr:Datum:Temp:Feuchte:Taupunkt:
Aussen-T/F 2501 01-03-2019 16:20:00 8.4 C 90 % 6.86 C
2502 01-03-2019 16:25:00 8.3 C 91 % 6.92 C
2503 01-03-2019 16:30:00 8.3 C 91 % 6.92 C
2504 01-03-2019 16:35:00 8.3 C 90 % 6.76 C
2505 01-03-2019 16:40:00 8.3 C 91 % 6.92 C
2506 01-03-2019 16:45:00 8.3 C 91 % 6.92 C
2507 01-03-2019 16:50:00 8.4 C 91 % 7.02 C
2508 01-03-2019 16:55:00 8.3 C 91 % 6.92 C
2509 01-03-2019 17:00:00 8.3 C 91 % 6.92 C
2510 01-03-2019 17:05:00 8.3 C 91 % 6.92 C
2511 01-03-2019 17:10:00 8.3 C 91 % 6.92 C
2512 01-03-2019 17:15:00 8.3 C 91 % 6.92 C
2513 01-03-2019 17:20:00 8.3 C 91 % 6.92 C
2514 01-03-2019 17:25:00 8.3 C 91 % 6.92 C
2515 01-03-2019 17:30:00 8.2 C 91 % 6.82 C
2516 01-03-2019 17:35:00 8.2 C 91 % 6.82 C
2517 01-03-2019 17:40:00 8.3 C 91 % 6.92 C
2518 01-03-2019 17:45:00 8.3 C 91 % 6.92 C
2519 01-03-2019 17:50:00 8.3 C 91 % 6.92 C
2520 01-03-2019 17:55:00 8.3 C 91 % 6.92 C
2521 01-03-2019 18:00:00 8.2 C 90 % 6.66 C
2522 01-03-2019 18:05:00 8 C 90 % 6.46 C
2523 01-03-2019 18:10:00 7.8 C 90 % 6.27 C
2524 01-03-2019 18:15:00 7.8 C 90 % 6.27 C
2525 01-03-2019 18:20:00 7.7 C 89 % 6 C
Sensor: Nr:Datum:Temp:Feuchte:Taupunkt:
Aussen-T/F 2526 01-03-2019 18:25:00 7.6 C 89 % 5.91 C
2527 01-03-2019 18:30:00 7.6 C 89 % 5.91 C
2528 01-03-2019 18:35:00 7.5 C 89 % 5.81 C
2529 01-03-2019 18:40:00 7.4 C 89 % 5.71 C
2530 01-03-2019 18:45:00 7.3 C 89 % 5.61 C
2531 01-03-2019 18:50:00 7.3 C 89 % 5.61 C
2532 01-03-2019 18:55:00 7.2 C 90 % 5.67 C
2533 01-03-2019 19:00:00 7.2 C 90 % 5.67 C
2534 01-03-2019 19:05:00 7.1 C 90 % 5.57 C
2535 01-03-2019 19:10:00 7.1 C 89 % 5.41 C
2536 01-03-2019 19:15:00 7 C 90 % 5.48 C
2537 01-03-2019 19:20:00 6.9 C 90 % 5.38 C
2538 01-03-2019 19:25:00 6.9 C 90 % 5.38 C
2539 01-03-2019 19:30:00 6.8 C 90 % 5.28 C
2540 01-03-2019 19:35:00 6.8 C 90 % 5.28 C
2541 01-03-2019 19:40:00 6.8 C 90 % 5.28 C
2542 01-03-2019 19:45:00 6.8 C 90 % 5.28 C
2543 01-03-2019 19:50:00 6.7 C 90 % 5.18 C
2544 01-03-2019 19:55:00 6.7 C 90 % 5.18 C
2545 01-03-2019 20:00:00 6.7 C 91 % 5.34 C
2546 01-03-2019 20:05:00 6.7 C 91 % 5.34 C
2547 01-03-2019 20:10:00 6.7 C 91 % 5.34 C
2548 01-03-2019 20:15:00 6.7 C 91 % 5.34 C
2549 01-03-2019 20:20:00 6.6 C 91 % 5.24 C
2550 01-03-2019 20:25:00 6.6 C 91 % 5.24 C
Sensor: Nr:Datum:Temp:Feuchte:Taupunkt:
Aussen-T/F 2551 01-03-2019 20:30:00 6.6 C 91 % 5.24 C
2552 01-03-2019 20:35:00 6.6 C 91 % 5.24 C
2553 01-03-2019 20:40:00 6.6 C 91 % 5.24 C
2554 01-03-2019 20:45:00 6.6 C 91 % 5.24 C
2555 01-03-2019 20:50:00 6.6 C 91 % 5.24 C
2556 01-03-2019 20:55:00 6.5 C 91 % 5.14 C
2557 01-03-2019 21:00:00 6.5 C 91 % 5.14 C
2558 01-03-2019 21:05:00 6.5 C 91 % 5.14 C
2559 01-03-2019 21:10:00 6.4 C 91 % 5.04 C
2560 01-03-2019 21:15:00 6.4 C 91 % 5.04 C
2561 01-03-2019 21:20:00 6.4 C 91 % 5.04 C
2562 01-03-2019 21:25:00 6.4 C 91 % 5.04 C
2563 01-03-2019 21:30:00 6.5 C 90 % 4.98 C
2564 01-03-2019 21:35:00 6.5 C 91 % 5.14 C
2565 01-03-2019 21:40:00 6.5 C 91 % 5.14 C
2566 01-03-2019 21:45:00 6.5 C 90 % 4.98 C
2567 01-03-2019 21:50:00 6.4 C 90 % 4.88 C
2568 01-03-2019 21:55:00 6.4 C 90 % 4.88 C
2569 01-03-2019 22:00:00 6.4 C 90 % 4.88 C
2570 01-03-2019 22:05:00 6.4 C 91 % 5.04 C
2571 01-03-2019 22:10:00 6.3 C 91 % 4.94 C
2572 01-03-2019 22:15:00 6.3 C 91 % 4.94 C
2573 01-03-2019 22:20:00 6.3 C 91 % 4.94 C
2574 01-03-2019 22:25:00 6.3 C 91 % 4.94 C
2575 01-03-2019 22:30:00 6.3 C 91 % 4.94 C
Sensor: Nr:Datum:Temp:Feuchte:Taupunkt:
Aussen-T/F 2576 01-03-2019 22:35:00 6.3 C 90 % 4.78 C
2577 01-03-2019 22:40:00 6.4 C 90 % 4.88 C
2578 01-03-2019 22:45:00 6.4 C 89 % 4.72 C
2579 01-03-2019 22:50:00 6.5 C 89 % 4.82 C
2580 01-03-2019 22:55:00 6.6 C 88 % 4.76 C
2581 01-03-2019 23:00:00 6.6 C 88 % 4.76 C
2582 01-03-2019 23:05:00 6.7 C 88 % 4.86 C
2583 01-03-2019 23:10:00 6.7 C 88 % 4.86 C
2584 01-03-2019 23:15:00 6.6 C 88 % 4.76 C
2585 01-03-2019 23:20:00 6.6 C 88 % 4.76 C
2586 01-03-2019 23:25:00 6.6 C 88 % 4.76 C
2587 01-03-2019 23:30:00 6.6 C 88 % 4.76 C
2588 01-03-2019 23:35:00 6.5 C 89 % 4.82 C
2589 01-03-2019 23:40:00 6.4 C 89 % 4.72 C
2590 01-03-2019 23:45:00 6.4 C 89 % 4.72 C
2591 01-03-2019 23:50:00 6.4 C 90 % 4.88 C
2592 01-03-2019 23:55:00 6.3 C 90 % 4.78 C
2593 02-03-2019 00:00:00 6.3 C 90 % 4.78 C
2594 02-03-2019 00:05:00 6.3 C 89 % 4.62 C
2595 02-03-2019 00:10:00 6.2 C 90 % 4.69 C
2596 02-03-2019 00:15:00 6.2 C 90 % 4.69 C
2597 02-03-2019 00:20:00 6.2 C 90 % 4.69 C
2598 02-03-2019 00:25:00 6.2 C 90 % 4.69 C
2599 02-03-2019 00:30:00 6.2 C 90 % 4.69 C
2600 02-03-2019 00:35:00 6.2 C 89 % 4.53 C
Sensor: Nr:Datum:Temp:Feuchte:Taupunkt:
Aussen-T/F 2601 02-03-2019 00:40:00 6.2 C 88 % 4.36 C
2602 02-03-2019 00:45:00 6.1 C 88 % 4.27 C
2603 02-03-2019 00:50:00 6.1 C 88 % 4.27 C
2604 02-03-2019 00:55:00 6.1 C 88 % 4.27 C
2605 02-03-2019 01:00:00 6.1 C 88 % 4.27 C
2606 02-03-2019 01:05:00 6 C 88 % 4.17 C
2607 02-03-2019 01:10:00 5.9 C 88 % 4.07 C
2608 02-03-2019 01:15:00 5.9 C 89 % 4.23 C
2609 02-03-2019 01:20:00 5.9 C 89 % 4.23 C
2610 02-03-2019 01:25:00 5.8 C 89 % 4.13 C
2611 02-03-2019 01:30:00 5.8 C 89 % 4.13 C
2612 02-03-2019 01:35:00 5.8 C 89 % 4.13 C
2613 02-03-2019 01:40:00 5.8 C 90 % 4.29 C
2614 02-03-2019 01:45:00 5.8 C 90 % 4.29 C
2615 02-03-2019 01:50:00 5.7 C 90 % 4.19 C
2616 02-03-2019 01:55:00 5.7 C 90 % 4.19 C
2617 02-03-2019 02:00:00 5.7 C 90 % 4.19 C
2618 02-03-2019 02:05:00 5.7 C 90 % 4.19 C
2619 02-03-2019 02:10:00 5.7 C 91 % 4.35 C
2620 02-03-2019 02:15:00 5.7 C 91 % 4.35 C
2621 02-03-2019 02:20:00 5.7 C 91 % 4.35 C
2622 02-03-2019 02:25:00 5.6 C 90 % 4.09 C
2623 02-03-2019 02:30:00 5.6 C 91 % 4.25 C
2624 02-03-2019 02:35:00 5.6 C 91 % 4.25 C
2625 02-03-2019 02:40:00 5.6 C 91 % 4.25 C
Sensor: Nr:Datum:Temp:Feuchte:Taupunkt:
Aussen-T/F 2626 02-03-2019 02:45:00 5.6 C 91 % 4.25 C
2627 02-03-2019 02:50:00 5.6 C 91 % 4.25 C
2628 02-03-2019 02:55:00 5.6 C 91 % 4.25 C
2629 02-03-2019 03:00:00 5.6 C 91 % 4.25 C
2630 02-03-2019 03:05:00 5.6 C 91 % 4.25 C
2631 02-03-2019 03:10:00 5.6 C 91 % 4.25 C
2632 02-03-2019 03:15:00 5.6 C 91 % 4.25 C
2633 02-03-2019 03:20:00 5.6 C 91 % 4.25 C
2634 02-03-2019 03:25:00 5.6 C 91 % 4.25 C
2635 02-03-2019 03:30:00 5.7 C 91 % 4.35 C
2636 02-03-2019 03:35:00 5.7 C 91 % 4.35 C
2637 02-03-2019 03:40:00 5.7 C 90 % 4.19 C
2638 02-03-2019 03:45:00 5.7 C 90 % 4.19 C
2639 02-03-2019 03:50:00 5.7 C 90 % 4.19 C
2640 02-03-2019 03:55:00 5.7 C 90 % 4.19 C
2641 02-03-2019 04:00:00 5.7 C 90 % 4.19 C
2642 02-03-2019 04:05:00 5.7 C 91 % 4.35 C
2643 02-03-2019 04:10:00 5.7 C 91 % 4.35 C
2644 02-03-2019 04:15:00 5.6 C 90 % 4.09 C
2645 02-03-2019 04:20:00 5.6 C 91 % 4.25 C
2646 02-03-2019 04:25:00 5.6 C 91 % 4.25 C
2647 02-03-2019 04:30:00 5.7 C 91 % 4.35 C
2648 02-03-2019 04:35:00 5.7 C 91 % 4.35 C
2649 02-03-2019 04:40:00 5.7 C 91 % 4.35 C
2650 02-03-2019 04:45:00 5.8 C 92 % 4.6 C
Sensor: Nr:Datum:Temp:Feuchte:Taupunkt:
Aussen-T/F 2651 02-03-2019 04:50:00 5.8 C 91 % 4.45 C
2652 02-03-2019 04:55:00 5.8 C 91 % 4.45 C
2653 02-03-2019 05:00:00 5.8 C 91 % 4.45 C
2654 02-03-2019 05:05:00 5.9 C 91 % 4.55 C
2655 02-03-2019 05:10:00 5.9 C 91 % 4.55 C
2656 02-03-2019 05:15:00 5.9 C 91 % 4.55 C
2657 02-03-2019 05:20:00 6 C 91 % 4.65 C
2658 02-03-2019 05:25:00 6.1 C 91 % 4.74 C
2659 02-03-2019 05:30:00 6.2 C 91 % 4.84 C
2660 02-03-2019 05:35:00 6.3 C 91 % 4.94 C
2661 02-03-2019 05:40:00 6.3 C 91 % 4.94 C
2662 02-03-2019 05:45:00 6.3 C 91 % 4.94 C
2663 02-03-2019 05:50:00 6.3 C 91 % 4.94 C
2664 02-03-2019 05:55:00 6.3 C 91 % 4.94 C
2665 02-03-2019 06:00:00 6.3 C 91 % 4.94 C
2666 02-03-2019 06:05:00 6.3 C 91 % 4.94 C
2667 02-03-2019 06:10:00 6.3 C 91 % 4.94 C
2668 02-03-2019 06:15:00 6.3 C 91 % 4.94 C
2669 02-03-2019 06:20:00 6.3 C 91 % 4.94 C
2670 02-03-2019 06:25:00 6.3 C 91 % 4.94 C
2671 02-03-2019 06:30:00 6.3 C 91 % 4.94 C
2672 02-03-2019 06:35:00 6.3 C 91 % 4.94 C
2673 02-03-2019 06:40:00 6.3 C 91 % 4.94 C
2674 02-03-2019 06:45:00 6.3 C 91 % 4.94 C
2675 02-03-2019 06:50:00 6.3 C 91 % 4.94 C
Sensor: Nr:Datum:Temp:Feuchte:Taupunkt:
Aussen-T/F 2676 02-03-2019 06:55:00 6.4 C 91 % 5.04 C
2677 02-03-2019 07:00:00 6.4 C 91 % 5.04 C
2678 02-03-2019 07:05:00 6.6 C 91 % 5.24 C
2679 02-03-2019 07:10:00 6.6 C 91 % 5.24 C
2680 02-03-2019 07:15:00 6.6 C 91 % 5.24 C
2681 02-03-2019 07:20:00 6.7 C 91 % 5.34 C
2682 02-03-2019 07:25:00 6.7 C 91 % 5.34 C
2683 02-03-2019 07:30:00 6.7 C 91 % 5.34 C
2684 02-03-2019 07:35:00 6.7 C 91 % 5.34 C
2685 02-03-2019 07:40:00 6.7 C 91 % 5.34 C
2686 02-03-2019 07:45:00 6.7 C 91 % 5.34 C
2687 02-03-2019 07:50:00 6.7 C 91 % 5.34 C
2688 02-03-2019 07:55:00 6.7 C 91 % 5.34 C
2689 02-03-2019 08:00:00 6.8 C 91 % 5.44 C
2690 02-03-2019 08:05:00 6.8 C 91 % 5.44 C
2691 02-03-2019 08:10:00 6.8 C 91 % 5.44 C
2692 02-03-2019 08:15:00 6.9 C 90 % 5.38 C
2693 02-03-2019 08:20:00 6.9 C 91 % 5.54 C
2694 02-03-2019 08:25:00 7 C 91 % 5.63 C
2695 02-03-2019 08:30:00 7.1 C 90 % 5.57 C
2696 02-03-2019 08:35:00 7.1 C 90 % 5.57 C
2697 02-03-2019 08:40:00 7.1 C 90 % 5.57 C
2698 02-03-2019 08:45:00 7.2 C 90 % 5.67 C
2699 02-03-2019 08:50:00 7.2 C 90 % 5.67 C
2700 02-03-2019 08:55:00 7.3 C 90 % 5.77 C
Sensor: Nr:Datum:Temp:Feuchte:Taupunkt:
Aussen-T/F 2701 02-03-2019 09:00:00 7.3 C 90 % 5.77 C
2702 02-03-2019 09:05:00 7.4 C 90 % 5.87 C
2703 02-03-2019 09:10:00 7.5 C 90 % 5.97 C
2704 02-03-2019 09:15:00 7.6 C 89 % 5.91 C
2705 02-03-2019 09:20:00 7.6 C 89 % 5.91 C
2706 02-03-2019 09:25:00 7.7 C 89 % 6 C
2707 02-03-2019 09:30:00 7.7 C 89 % 6 C
2708 02-03-2019 09:35:00 7.8 C 89 % 6.1 C
2709 02-03-2019 09:40:00 7.8 C 88 % 5.94 C
2710 02-03-2019 09:45:00 7.8 C 88 % 5.94 C
2711 02-03-2019 09:50:00 7.9 C 88 % 6.04 C
2712 02-03-2019 09:55:00 7.9 C 88 % 6.04 C
2713 02-03-2019 10:00:00 7.9 C 88 % 6.04 C
2714 02-03-2019 10:05:00 7.9 C 88 % 6.04 C
2715 02-03-2019 10:10:00 7.9 C 88 % 6.04 C
2716 02-03-2019 10:15:00 7.9 C 88 % 6.04 C
2717 02-03-2019 10:20:00 7.9 C 88 % 6.04 C
2718 02-03-2019 10:25:00 8 C 88 % 6.14 C
2719 02-03-2019 10:30:00 8.1 C 88 % 6.24 C
2720 02-03-2019 10:35:00 8.1 C 87 % 6.07 C
2721 02-03-2019 10:40:00 8.1 C 88 % 6.24 C
2722 02-03-2019 10:45:00 8.2 C 88 % 6.33 C
2723 02-03-2019 10:50:00 8.3 C 87 % 6.27 C
2724 02-03-2019 10:55:00 8.3 C 87 % 6.27 C
2725 02-03-2019 11:00:00 8.4 C 87 % 6.37 C
Sensor: Nr:Datum:Temp:Feuchte:Taupunkt:
Aussen-T/F 2726 02-03-2019 11:05:00 8.6 C 87 % 6.56 C
2727 02-03-2019 11:10:00 8.7 C 86 % 6.49 C
2728 02-03-2019 11:15:00 8.7 C 86 % 6.49 C
2729 02-03-2019 11:20:00 8.8 C 86 % 6.59 C
2730 02-03-2019 11:25:00 8.9 C 86 % 6.69 C
2731 02-03-2019 11:30:00 9.1 C 86 % 6.89 C
2732 02-03-2019 11:35:00 9.2 C 85 % 6.81 C
2733 02-03-2019 11:40:00 9.3 C 84 % 6.74 C
2734 02-03-2019 11:45:00 9.3 C 85 % 6.91 C
2735 02-03-2019 11:50:00 9.4 C 84 % 6.84 C
2736 02-03-2019 11:55:00 9.5 C 83 % 6.76 C
2737 02-03-2019 12:00:00 9.6 C 84 % 7.03 C
2738 02-03-2019 12:05:00 9.7 C 84 % 7.13 C
2739 02-03-2019 12:10:00 9.8 C 84 % 7.23 C
2740 02-03-2019 12:15:00 10 C 83 % 7.25 C
2741 02-03-2019 12:20:00 10.1 C 83 % 7.35 C
2742 02-03-2019 12:25:00 10.1 C 83 % 7.35 C
2743 02-03-2019 12:30:00 10.1 C 82 % 7.17 C
2744 02-03-2019 12:35:00 10.1 C 82 % 7.17 C
2745 02-03-2019 12:40:00 10 C 82 % 7.07 C
2746 02-03-2019 12:45:00 9.9 C 82 % 6.98 C
2747 02-03-2019 12:50:00 9.9 C 83 % 7.15 C
2748 02-03-2019 12:55:00 10 C 82 % 7.07 C
2749 02-03-2019 13:00:00 10 C 82 % 7.07 C
2750 02-03-2019 13:05:00 10.2 C 83 % 7.45 C
Sensor: Nr:Datum:Temp:Feuchte:Taupunkt:
Aussen-T/F 2751 02-03-2019 13:10:00 10.4 C 82 % 7.46 C
2752 02-03-2019 13:15:00 10.6 C 81 % 7.48 C
2753 02-03-2019 13:20:00 10.7 C 80 % 7.4 C
2754 02-03-2019 13:25:00 10.7 C 79 % 7.21 C
2755 02-03-2019 13:30:00 10.7 C 79 % 7.21 C
2756 02-03-2019 13:35:00 10.7 C 79 % 7.21 C
2757 02-03-2019 13:40:00 10.7 C 79 % 7.21 C
2758 02-03-2019 13:45:00 10.8 C 79 % 7.31 C
2759 02-03-2019 13:50:00 11 C 78 % 7.32 C
2760 02-03-2019 13:55:00 11.1 C 78 % 7.41 C
2761 02-03-2019 14:00:00 11.1 C 77 % 7.23 C
2762 02-03-2019 14:05:00 11.2 C 77 % 7.32 C
2763 02-03-2019 14:10:00 11.2 C 77 % 7.32 C
2764 02-03-2019 14:15:00 11.3 C 76 % 7.23 C
2765 02-03-2019 14:20:00 11.4 C 75 % 7.13 C
2766 02-03-2019 14:25:00 11.4 C 75 % 7.13 C
2767 02-03-2019 14:30:00 11.4 C 75 % 7.13 C
2768 02-03-2019 14:35:00 11.5 C 76 % 7.42 C
2769 02-03-2019 14:40:00 11.6 C 75 % 7.33 C
2770 02-03-2019 14:45:00 11.6 C 75 % 7.33 C
2771 02-03-2019 14:50:00 11.6 C 75 % 7.33 C
2772 02-03-2019 14:55:00 11.6 C 74 % 7.13 C
2773 02-03-2019 15:00:00 11.7 C 74 % 7.23 C
2774 02-03-2019 15:05:00 11.7 C 74 % 7.23 C
2775 02-03-2019 15:10:00 11.8 C 73 % 7.12 C
Sensor: Nr:Datum:Temp:Feuchte:Taupunkt:
Aussen-T/F 2776 02-03-2019 15:15:00 11.8 C 73 % 7.12 C
2777 02-03-2019 15:20:00 11.8 C 72 % 6.92 C
2778 02-03-2019 15:25:00 11.9 C 72 % 7.02 C
2779 02-03-2019 15:30:00 11.9 C 72 % 7.02 C
2780 02-03-2019 15:35:00 12 C 72 % 7.12 C
2781 02-03-2019 15:40:00 12 C 71 % 6.91 C
2782 02-03-2019 15:45:00 12.1 C 72 % 7.21 C
2783 02-03-2019 15:50:00 12.2 C 72 % 7.31 C
2784 02-03-2019 15:55:00 12.2 C 71 % 7.1 C
2785 02-03-2019 16:00:00 12.3 C 70 % 6.99 C
2786 02-03-2019 16:05:00 12.3 C 70 % 6.99 C
2787 02-03-2019 16:10:00 12.3 C 70 % 6.99 C
2788 02-03-2019 16:15:00 12.5 C 70 % 7.18 C
2789 02-03-2019 16:20:00 12.6 C 70 % 7.28 C
2790 02-03-2019 16:25:00 12.6 C 70 % 7.28 C
2791 02-03-2019 16:30:00 12.6 C 70 % 7.28 C
2792 02-03-2019 16:35:00 12.4 C 70 % 7.09 C
2793 02-03-2019 16:40:00 12.3 C 71 % 7.2 C
2794 02-03-2019 16:45:00 12.2 C 71 % 7.1 C
2795 02-03-2019 16:50:00 12.1 C 71 % 7.01 C
2796 02-03-2019 16:55:00 12 C 72 % 7.12 C
2797 02-03-2019 17:00:00 11.9 C 73 % 7.22 C
2798 02-03-2019 17:05:00 11.8 C 73 % 7.12 C
2799 02-03-2019 17:10:00 11.7 C 74 % 7.23 C
2800 02-03-2019 17:15:00 11.5 C 74 % 7.03 C
Sensor: Nr:Datum:Temp:Feuchte:Taupunkt:
Aussen-T/F 2801 02-03-2019 17:20:00 11.4 C 75 % 7.13 C
2802 02-03-2019 17:25:00 11.3 C 75 % 7.04 C
2803 02-03-2019 17:30:00 11.3 C 76 % 7.23 C
2804 02-03-2019 17:35:00 11.2 C 76 % 7.13 C
2805 02-03-2019 17:40:00 11.2 C 77 % 7.32 C
2806 02-03-2019 17:45:00 11.1 C 77 % 7.23 C
2807 02-03-2019 17:50:00 11 C 78 % 7.32 C
2808 02-03-2019 17:55:00 10.9 C 78 % 7.22 C
2809 02-03-2019 18:00:00 10.8 C 78 % 7.12 C
2810 02-03-2019 18:05:00 10.8 C 79 % 7.31 C
2811 02-03-2019 18:10:00 10.7 C 79 % 7.21 C
2812 02-03-2019 18:15:00 10.7 C 80 % 7.4 C
2813 02-03-2019 18:20:00 10.6 C 80 % 7.3 C
2814 02-03-2019 18:25:00 10.6 C 80 % 7.3 C
2815 02-03-2019 18:30:00 10.5 C 81 % 7.38 C
2816 02-03-2019 18:35:00 10.5 C 81 % 7.38 C
2817 02-03-2019 18:40:00 10.4 C 82 % 7.46 C
2818 02-03-2019 18:45:00 10.4 C 82 % 7.46 C
2819 02-03-2019 18:50:00 10.3 C 82 % 7.37 C
2820 02-03-2019 18:55:00 10.3 C 83 % 7.54 C
2821 02-03-2019 19:00:00 10.2 C 84 % 7.62 C
2822 02-03-2019 19:05:00 10.1 C 85 % 7.7 C
2823 02-03-2019 19:10:00 10.1 C 85 % 7.7 C
2824 02-03-2019 19:15:00 10 C 86 % 7.77 C
2825 02-03-2019 19:20:00 9.9 C 86 % 7.67 C
Sensor: Nr:Datum:Temp:Feuchte:Taupunkt:
Aussen-T/F 2826 02-03-2019 19:25:00 9.8 C 86 % 7.57 C
2827 02-03-2019 19:30:00 9.8 C 86 % 7.57 C
2828 02-03-2019 19:35:00 9.7 C 86 % 7.47 C
2829 02-03-2019 19:40:00 9.7 C 87 % 7.64 C
2830 02-03-2019 19:45:00 9.6 C 87 % 7.55 C
2831 02-03-2019 19:50:00 9.6 C 87 % 7.55 C
2832 02-03-2019 19:55:00 9.6 C 87 % 7.55 C
2833 02-03-2019 20:00:00 9.4 C 87 % 7.35 C
2834 02-03-2019 20:05:00 9.5 C 87 % 7.45 C
2835 02-03-2019 20:10:00 9.5 C 87 % 7.45 C
2836 02-03-2019 20:15:00 9.5 C 87 % 7.45 C
2837 02-03-2019 20:20:00 9.5 C 87 % 7.45 C
2838 02-03-2019 20:25:00 9.6 C 87 % 7.55 C
2839 02-03-2019 20:30:00 9.6 C 87 % 7.55 C
2840 02-03-2019 20:35:00 9.5 C 87 % 7.45 C
2841 02-03-2019 20:40:00 9.6 C 88 % 7.71 C
2842 02-03-2019 20:45:00 9.6 C 88 % 7.71 C
2843 02-03-2019 20:50:00 9.6 C 87 % 7.55 C
2844 02-03-2019 20:55:00 9.5 C 88 % 7.61 C
2845 02-03-2019 21:00:00 9.5 C 88 % 7.61 C
2846 02-03-2019 21:05:00 9.4 C 88 % 7.52 C
2847 02-03-2019 21:10:00 9.4 C 88 % 7.52 C
2848 02-03-2019 21:15:00 9.6 C 89 % 7.88 C
2849 02-03-2019 21:20:00 9.7 C 88 % 7.81 C
2850 02-03-2019 21:25:00 9.8 C 88 % 7.91 C
Sensor: Nr:Datum:Temp:Feuchte:Taupunkt:
Aussen-T/F 2851 02-03-2019 21:30:00 9.9 C 87 % 7.84 C
2852 02-03-2019 21:35:00 10.1 C 87 % 8.04 C
2853 02-03-2019 21:40:00 10.1 C 87 % 8.04 C
2854 02-03-2019 21:45:00 10.1 C 87 % 8.04 C
2855 02-03-2019 21:50:00 10.2 C 86 % 7.97 C
2856 02-03-2019 21:55:00 10.2 C 86 % 7.97 C
2857 02-03-2019 22:00:00 10.2 C 86 % 7.97 C
2858 02-03-2019 22:05:00 10.2 C 86 % 7.97 C
2859 02-03-2019 22:10:00 10.2 C 86 % 7.97 C
2860 02-03-2019 22:15:00 10.2 C 85 % 7.79 C
2861 02-03-2019 22:20:00 10.2 C 85 % 7.79 C
2862 02-03-2019 22:25:00 10.2 C 85 % 7.79 C
2863 02-03-2019 22:30:00 10.3 C 85 % 7.89 C
2864 02-03-2019 22:35:00 10.3 C 85 % 7.89 C
2865 02-03-2019 22:40:00 10.3 C 85 % 7.89 C
2866 02-03-2019 22:45:00 10.3 C 84 % 7.72 C
2867 02-03-2019 22:50:00 10.3 C 84 % 7.72 C
2868 02-03-2019 22:55:00 10.3 C 84 % 7.72 C
2869 02-03-2019 23:00:00 10.3 C 84 % 7.72 C
2870 02-03-2019 23:05:00 10.2 C 84 % 7.62 C
2871 02-03-2019 23:10:00 10.2 C 84 % 7.62 C
2872 02-03-2019 23:15:00 10.1 C 84 % 7.52 C
2873 02-03-2019 23:20:00 10.1 C 83 % 7.35 C
2874 02-03-2019 23:25:00 10.1 C 83 % 7.35 C
2875 02-03-2019 23:30:00 9.9 C 83 % 7.15 C
Sensor: Nr:Datum:Temp:Feuchte:Taupunkt:
Aussen-T/F 2876 02-03-2019 23:35:00 9.8 C 83 % 7.05 C
2877 02-03-2019 23:40:00 9.8 C 83 % 7.05 C
2878 02-03-2019 23:45:00 9.8 C 82 % 6.88 C
2879 02-03-2019 23:50:00 9.7 C 83 % 6.96 C
2880 02-03-2019 23:55:00 9.6 C 82 % 6.68 C
2881 03-03-2019 00:00:00 9.6 C 82 % 6.68 C
2882 03-03-2019 00:05:00 9.5 C 82 % 6.59 C
2883 03-03-2019 00:10:00 9.5 C 82 % 6.59 C
2884 03-03-2019 00:15:00 9.5 C 82 % 6.59 C
2885 03-03-2019 00:20:00 9.4 C 82 % 6.49 C
2886 03-03-2019 00:25:00 9.3 C 82 % 6.39 C
2887 03-03-2019 00:30:00 9.2 C 82 % 6.29 C
2888 03-03-2019 00:35:00 8.9 C 82 % 6 C
2889 03-03-2019 00:40:00 8.7 C 83 % 5.98 C
2890 03-03-2019 00:45:00 8.5 C 84 % 5.96 C
2891 03-03-2019 00:50:00 8.3 C 85 % 5.93 C
2892 03-03-2019 00:55:00 8.3 C 86 % 6.1 C
2893 03-03-2019 01:00:00 8.3 C 87 % 6.27 C
2894 03-03-2019 01:05:00 8.4 C 87 % 6.37 C
2895 03-03-2019 01:10:00 8.6 C 87 % 6.56 C
2896 03-03-2019 01:15:00 8.8 C 87 % 6.76 C
2897 03-03-2019 01:20:00 8.9 C 86 % 6.69 C
2898 03-03-2019 01:25:00 9.1 C 86 % 6.89 C
2899 03-03-2019 01:30:00 9.3 C 86 % 7.08 C
2900 03-03-2019 01:35:00 9.4 C 85 % 7.01 C
Sensor: Nr:Datum:Temp:Feuchte:Taupunkt:
Aussen-T/F 2901 03-03-2019 01:40:00 9.7 C 84 % 7.13 C
2902 03-03-2019 01:45:00 9.8 C 83 % 7.05 C
2903 03-03-2019 01:50:00 9.9 C 83 % 7.15 C
2904 03-03-2019 01:55:00 9.9 C 82 % 6.98 C
2905 03-03-2019 02:00:00 10 C 82 % 7.07 C
2906 03-03-2019 02:05:00 10 C 82 % 7.07 C
2907 03-03-2019 02:10:00 10.1 C 81 % 6.99 C
2908 03-03-2019 02:15:00 10.1 C 81 % 6.99 C
2909 03-03-2019 02:20:00 10.1 C 81 % 6.99 C
2910 03-03-2019 02:25:00 10.1 C 81 % 6.99 C
2911 03-03-2019 02:30:00 10.1 C 81 % 6.99 C
2912 03-03-2019 02:35:00 9.9 C 81 % 6.8 C
2913 03-03-2019 02:40:00 9.9 C 81 % 6.8 C
2914 03-03-2019 02:45:00 9.9 C 81 % 6.8 C
2915 03-03-2019 02:50:00 9.8 C 81 % 6.7 C
2916 03-03-2019 02:55:00 9.8 C 82 % 6.88 C
2917 03-03-2019 03:00:00 9.8 C 81 % 6.7 C
2918 03-03-2019 03:05:00 9.8 C 81 % 6.7 C
2919 03-03-2019 03:10:00 9.9 C 81 % 6.8 C
2920 03-03-2019 03:15:00 9.9 C 81 % 6.8 C
2921 03-03-2019 03:20:00 9.9 C 81 % 6.8 C
2922 03-03-2019 03:25:00 10 C 81 % 6.89 C
2923 03-03-2019 03:30:00 10 C 81 % 6.89 C
2924 03-03-2019 03:35:00 10.1 C 81 % 6.99 C
2925 03-03-2019 03:40:00 10.1 C 81 % 6.99 C
Sensor: Nr:Datum:Temp:Feuchte:Taupunkt:
Aussen-T/F 2926 03-03-2019 03:45:00 10.1 C 81 % 6.99 C
2927 03-03-2019 03:50:00 10.2 C 81 % 7.09 C
2928 03-03-2019 03:55:00 10.2 C 81 % 7.09 C
2929 03-03-2019 04:00:00 10.2 C 81 % 7.09 C
2930 03-03-2019 04:05:00 10.2 C 81 % 7.09 C
2931 03-03-2019 04:10:00 10.2 C 81 % 7.09 C
2932 03-03-2019 04:15:00 10.2 C 81 % 7.09 C
2933 03-03-2019 04:20:00 10.2 C 81 % 7.09 C
2934 03-03-2019 04:25:00 10.3 C 81 % 7.19 C
2935 03-03-2019 04:30:00 10.3 C 81 % 7.19 C
2936 03-03-2019 04:35:00 10.3 C 81 % 7.19 C
2937 03-03-2019 04:40:00 10.2 C 81 % 7.09 C
2938 03-03-2019 04:45:00 10.2 C 81 % 7.09 C
2939 03-03-2019 04:50:00 10.2 C 81 % 7.09 C
2940 03-03-2019 04:55:00 10.2 C 80 % 6.91 C
2941 03-03-2019 05:00:00 10.2 C 80 % 6.91 C
2942 03-03-2019 05:05:00 10.3 C 80 % 7.01 C
2943 03-03-2019 05:10:00 10.2 C 80 % 6.91 C
2944 03-03-2019 05:15:00 10.2 C 80 % 6.91 C
2945 03-03-2019 05:20:00 10.2 C 80 % 6.91 C
2946 03-03-2019 05:25:00 10.2 C 80 % 6.91 C
2947 03-03-2019 05:30:00 10.2 C 80 % 6.91 C
2948 03-03-2019 05:35:00 10.2 C 80 % 6.91 C
2949 03-03-2019 05:40:00 10.2 C 79 % 6.73 C
2950 03-03-2019 05:45:00 10.2 C 79 % 6.73 C
Sensor: Nr:Datum:Temp:Feuchte:Taupunkt:
Aussen-T/F 2951 03-03-2019 05:50:00 10.2 C 80 % 6.91 C
2952 03-03-2019 05:55:00 10.2 C 80 % 6.91 C
2953 03-03-2019 06:00:00 10.2 C 80 % 6.91 C
2954 03-03-2019 06:05:00 10.1 C 80 % 6.81 C
2955 03-03-2019 06:10:00 10.1 C 81 % 6.99 C
2956 03-03-2019 06:15:00 10.1 C 81 % 6.99 C
2957 03-03-2019 06:20:00 10.1 C 81 % 6.99 C
2958 03-03-2019 06:25:00 10.1 C 81 % 6.99 C
2959 03-03-2019 06:30:00 10.1 C 81 % 6.99 C
2960 03-03-2019 06:35:00 10.1 C 81 % 6.99 C
2961 03-03-2019 06:40:00 10.1 C 81 % 6.99 C
2962 03-03-2019 06:45:00 10.1 C 81 % 6.99 C
2963 03-03-2019 06:50:00 10.1 C 81 % 6.99 C
2964 03-03-2019 06:55:00 10.1 C 81 % 6.99 C
2965 03-03-2019 07:00:00 10.1 C 81 % 6.99 C
2966 03-03-2019 07:05:00 10.1 C 81 % 6.99 C
2967 03-03-2019 07:10:00 10.1 C 81 % 6.99 C
2968 03-03-2019 07:15:00 10.1 C 81 % 6.99 C
2969 03-03-2019 07:20:00 10.1 C 81 % 6.99 C
2970 03-03-2019 07:25:00 10.1 C 81 % 6.99 C
2971 03-03-2019 07:30:00 10.1 C 81 % 6.99 C
2972 03-03-2019 07:35:00 10.1 C 81 % 6.99 C
2973 03-03-2019 07:40:00 10.2 C 81 % 7.09 C
2974 03-03-2019 07:45:00 10.2 C 81 % 7.09 C
2975 03-03-2019 07:50:00 10.2 C 81 % 7.09 C
Sensor: Nr:Datum:Temp:Feuchte:Taupunkt:
Aussen-T/F 2976 03-03-2019 07:55:00 10.2 C 81 % 7.09 C
2977 03-03-2019 08:00:00 10.2 C 81 % 7.09 C
2978 03-03-2019 08:05:00 10.2 C 81 % 7.09 C
2979 03-03-2019 08:10:00 10.3 C 81 % 7.19 C
2980 03-03-2019 08:15:00 10.3 C 81 % 7.19 C
2981 03-03-2019 08:20:00 10.3 C 81 % 7.19 C
2982 03-03-2019 08:25:00 10.3 C 81 % 7.19 C
2983 03-03-2019 08:30:00 10.3 C 82 % 7.37 C
2984 03-03-2019 08:35:00 10.3 C 82 % 7.37 C
2985 03-03-2019 08:40:00 10.3 C 82 % 7.37 C
2986 03-03-2019 08:45:00 10.4 C 82 % 7.46 C
2987 03-03-2019 08:50:00 10.4 C 82 % 7.46 C
2988 03-03-2019 08:55:00 10.5 C 82 % 7.56 C
2989 03-03-2019 09:00:00 10.6 C 82 % 7.66 C
2990 03-03-2019 09:05:00 10.7 C 81 % 7.58 C
2991 03-03-2019 09:10:00 10.8 C 82 % 7.85 C
2992 03-03-2019 09:15:00 10.9 C 81 % 7.77 C
2993 03-03-2019 09:20:00 10.9 C 81 % 7.77 C
2994 03-03-2019 09:25:00 11 C 81 % 7.87 C
2995 03-03-2019 09:30:00 10.9 C 81 % 7.77 C
2996 03-03-2019 09:35:00 10.9 C 81 % 7.77 C
2997 03-03-2019 09:40:00 10.9 C 81 % 7.77 C
2998 03-03-2019 09:45:00 10.9 C 81 % 7.77 C
2999 03-03-2019 09:50:00 10.9 C 81 % 7.77 C
3000 03-03-2019 09:55:00 11.1 C 81 % 7.97 C
Sensor: Nr:Datum:Temp:Feuchte:Taupunkt:
Aussen-T/F 3001 03-03-2019 10:00:00 11.1 C 81 % 7.97 C
3002 03-03-2019 10:05:00 11.1 C 81 % 7.97 C
3003 03-03-2019 10:10:00 11.2 C 81 % 8.06 C
3004 03-03-2019 10:15:00 11.2 C 81 % 8.06 C
3005 03-03-2019 10:20:00 11.1 C 81 % 7.97 C
3006 03-03-2019 10:25:00 11.1 C 81 % 7.97 C
3007 03-03-2019 10:30:00 11.1 C 81 % 7.97 C
3008 03-03-2019 10:35:00 11.2 C 81 % 8.06 C
3009 03-03-2019 10:40:00 11.2 C 81 % 8.06 C
3010 03-03-2019 10:45:00 11.2 C 81 % 8.06 C
3011 03-03-2019 10:50:00 11.2 C 81 % 8.06 C
3012 03-03-2019 10:55:00 11.2 C 81 % 8.06 C
3013 03-03-2019 11:00:00 11.1 C 81 % 7.97 C
3014 03-03-2019 11:05:00 11.1 C 82 % 8.15 C
3015 03-03-2019 11:10:00 11 C 82 % 8.05 C
3016 03-03-2019 11:15:00 10.9 C 82 % 7.95 C
3017 03-03-2019 11:20:00 10.9 C 82 % 7.95 C
3018 03-03-2019 11:25:00 10.9 C 82 % 7.95 C
3019 03-03-2019 11:30:00 11 C 82 % 8.05 C
3020 03-03-2019 11:35:00 11 C 82 % 8.05 C
3021 03-03-2019 11:40:00 11 C 82 % 8.05 C
3022 03-03-2019 11:45:00 11 C 82 % 8.05 C
3023 03-03-2019 11:50:00 11.1 C 83 % 8.33 C
3024 03-03-2019 11:55:00 11.1 C 82 % 8.15 C
3025 03-03-2019 12:00:00 11.1 C 83 % 8.33 C
Sensor: Nr:Datum:Temp:Feuchte:Taupunkt:
Aussen-T/F 3026 03-03-2019 12:05:00 11.1 C 82 % 8.15 C
3027 03-03-2019 12:10:00 11.1 C 82 % 8.15 C
3028 03-03-2019 12:15:00 11.1 C 82 % 8.15 C
3029 03-03-2019 12:20:00 11.2 C 82 % 8.25 C
3030 03-03-2019 12:25:00 11.2 C 82 % 8.25 C
3031 03-03-2019 12:30:00 11.3 C 82 % 8.34 C
3032 03-03-2019 12:35:00 11.3 C 82 % 8.34 C
3033 03-03-2019 12:40:00 11.3 C 82 % 8.34 C
3034 03-03-2019 12:45:00 11.3 C 82 % 8.34 C
3035 03-03-2019 12:50:00 11.3 C 82 % 8.34 C
3036 03-03-2019 12:55:00 11.4 C 82 % 8.44 C
3037 03-03-2019 13:00:00 11.4 C 82 % 8.44 C
3038 03-03-2019 13:05:00 11.6 C 81 % 8.45 C
3039 03-03-2019 13:10:00 11.6 C 81 % 8.45 C
3040 03-03-2019 13:15:00 11.7 C 81 % 8.55 C
3041 03-03-2019 13:20:00 11.7 C 81 % 8.55 C
3042 03-03-2019 13:25:00 11.8 C 80 % 8.47 C
3043 03-03-2019 13:30:00 11.8 C 80 % 8.47 C
3044 03-03-2019 13:35:00 11.8 C 80 % 8.47 C
3045 03-03-2019 13:40:00 11.8 C 80 % 8.47 C
3046 03-03-2019 13:45:00 11.8 C 80 % 8.47 C
3047 03-03-2019 13:50:00 11.9 C 80 % 8.56 C
3048 03-03-2019 13:55:00 11.9 C 80 % 8.56 C
3049 03-03-2019 14:00:00 11.9 C 79 % 8.38 C
3050 03-03-2019 14:05:00 11.9 C 79 % 8.38 C
Sensor: Nr:Datum:Temp:Feuchte:Taupunkt:
Aussen-T/F 3051 03-03-2019 14:10:00 11.9 C 80 % 8.56 C
3052 03-03-2019 14:15:00 11.9 C 80 % 8.56 C
3053 03-03-2019 14:20:00 11.8 C 80 % 8.47 C
3054 03-03-2019 14:25:00 11.8 C 80 % 8.47 C
3055 03-03-2019 14:30:00 11.8 C 80 % 8.47 C
3056 03-03-2019 14:35:00 11.7 C 80 % 8.37 C
3057 03-03-2019 14:40:00 11.7 C 80 % 8.37 C
3058 03-03-2019 14:45:00 11.7 C 80 % 8.37 C
3059 03-03-2019 14:50:00 11.7 C 81 % 8.55 C
3060 03-03-2019 14:55:00 11.7 C 81 % 8.55 C
3061 03-03-2019 15:00:00 11.7 C 81 % 8.55 C
3062 03-03-2019 15:05:00 11.7 C 80 % 8.37 C
3063 03-03-2019 15:10:00 11.7 C 80 % 8.37 C
3064 03-03-2019 15:15:00 11.8 C 81 % 8.65 C
3065 03-03-2019 15:20:00 11.8 C 81 % 8.65 C
3066 03-03-2019 15:25:00 11.8 C 81 % 8.65 C
3067 03-03-2019 15:30:00 11.7 C 81 % 8.55 C
3068 03-03-2019 15:35:00 11.7 C 82 % 8.73 C
3069 03-03-2019 15:40:00 11.7 C 82 % 8.73 C
3070 03-03-2019 15:45:00 11.6 C 82 % 8.64 C
3071 03-03-2019 15:50:00 11.6 C 82 % 8.64 C
3072 03-03-2019 15:55:00 11.6 C 82 % 8.64 C
3073 03-03-2019 16:00:00 11.6 C 82 % 8.64 C
3074 03-03-2019 16:05:00 11.6 C 82 % 8.64 C
3075 03-03-2019 16:10:00 11.6 C 82 % 8.64 C
Sensor: Nr:Datum:Temp:Feuchte:Taupunkt:
Aussen-T/F 3076 03-03-2019 16:15:00 11.6 C 82 % 8.64 C
3077 03-03-2019 16:20:00 11.6 C 82 % 8.64 C
3078 03-03-2019 16:25:00 11.7 C 82 % 8.73 C
3079 03-03-2019 16:30:00 11.7 C 81 % 8.55 C
3080 03-03-2019 16:35:00 11.8 C 81 % 8.65 C
3081 03-03-2019 16:40:00 11.8 C 81 % 8.65 C
3082 03-03-2019 16:45:00 11.8 C 81 % 8.65 C
3083 03-03-2019 16:50:00 11.8 C 81 % 8.65 C
3084 03-03-2019 16:55:00 11.8 C 81 % 8.65 C
3085 03-03-2019 17:00:00 11.8 C 81 % 8.65 C
3086 03-03-2019 17:05:00 11.8 C 81 % 8.65 C
3087 03-03-2019 17:10:00 11.8 C 80 % 8.47 C
3088 03-03-2019 17:15:00 11.8 C 80 % 8.47 C
3089 03-03-2019 17:20:00 11.8 C 80 % 8.47 C
3090 03-03-2019 17:25:00 11.8 C 80 % 8.47 C
3091 03-03-2019 17:30:00 11.9 C 79 % 8.38 C
3092 03-03-2019 17:35:00 11.9 C 79 % 8.38 C
3093 03-03-2019 17:40:00 11.9 C 79 % 8.38 C
3094 03-03-2019 17:45:00 12 C 78 % 8.29 C
3095 03-03-2019 17:50:00 12.1 C 78 % 8.38 C
3096 03-03-2019 17:55:00 12.2 C 78 % 8.48 C
3097 03-03-2019 18:00:00 12.2 C 78 % 8.48 C
3098 03-03-2019 18:05:00 12.2 C 78 % 8.48 C
3099 03-03-2019 18:10:00 12.2 C 78 % 8.48 C
3100 03-03-2019 18:15:00 12.2 C 78 % 8.48 C
Sensor: Nr:Datum:Temp:Feuchte:Taupunkt:
Aussen-T/F 3101 03-03-2019 18:20:00 12.2 C 78 % 8.48 C
3102 03-03-2019 18:25:00 12.2 C 78 % 8.48 C
3103 03-03-2019 18:30:00 12.2 C 77 % 8.29 C
3104 03-03-2019 18:35:00 12.2 C 77 % 8.29 C
3105 03-03-2019 18:40:00 12.2 C 77 % 8.29 C
3106 03-03-2019 18:45:00 12.2 C 77 % 8.29 C
3107 03-03-2019 18:50:00 12.1 C 77 % 8.2 C
3108 03-03-2019 18:55:00 12.1 C 77 % 8.2 C
3109 03-03-2019 19:00:00 12.1 C 77 % 8.2 C
3110 03-03-2019 19:05:00 12.2 C 77 % 8.29 C
3111 03-03-2019 19:10:00 12.2 C 77 % 8.29 C
3112 03-03-2019 19:15:00 12.2 C 76 % 8.1 C
3113 03-03-2019 19:20:00 12.3 C 76 % 8.2 C
3114 03-03-2019 19:25:00 12.3 C 76 % 8.2 C
3115 03-03-2019 19:30:00 12.3 C 76 % 8.2 C
3116 03-03-2019 19:35:00 12.3 C 76 % 8.2 C
3117 03-03-2019 19:40:00 12.3 C 75 % 8 C
3118 03-03-2019 19:45:00 12.4 C 75 % 8.1 C
3119 03-03-2019 19:50:00 12.4 C 75 % 8.1 C
3120 03-03-2019 19:55:00 12.4 C 75 % 8.1 C
3121 03-03-2019 20:00:00 12.3 C 75 % 8 C
3122 03-03-2019 20:05:00 12.3 C 75 % 8 C
3123 03-03-2019 20:10:00 12.3 C 75 % 8 C
3124 03-03-2019 20:15:00 12.3 C 76 % 8.2 C
3125 03-03-2019 20:20:00 12.3 C 76 % 8.2 C
Sensor: Nr:Datum:Temp:Feuchte:Taupunkt:
Aussen-T/F 3126 03-03-2019 20:25:00 12.4 C 76 % 8.29 C
3127 03-03-2019 20:30:00 12.4 C 76 % 8.29 C
3128 03-03-2019 20:35:00 12.4 C 76 % 8.29 C
3129 03-03-2019 20:40:00 12.4 C 76 % 8.29 C
3130 03-03-2019 20:45:00 12.3 C 77 % 8.39 C
3131 03-03-2019 20:50:00 12.3 C 77 % 8.39 C
3132 03-03-2019 20:55:00 12.3 C 77 % 8.39 C
3133 03-03-2019 21:00:00 12.3 C 77 % 8.39 C
3134 03-03-2019 21:05:00 12.3 C 77 % 8.39 C
3135 03-03-2019 21:10:00 12.3 C 77 % 8.39 C
3136 03-03-2019 21:15:00 12.3 C 77 % 8.39 C
3137 03-03-2019 21:20:00 12.3 C 77 % 8.39 C
3138 03-03-2019 21:25:00 12.3 C 77 % 8.39 C
3139 03-03-2019 21:30:00 12.3 C 77 % 8.39 C
3140 03-03-2019 21:35:00 12.3 C 77 % 8.39 C
3141 03-03-2019 21:40:00 12.4 C 77 % 8.49 C
3142 03-03-2019 21:45:00 12.4 C 77 % 8.49 C
3143 03-03-2019 21:50:00 12.4 C 77 % 8.49 C
3144 03-03-2019 21:55:00 12.4 C 78 % 8.68 C
3145 03-03-2019 22:00:00 12.4 C 78 % 8.68 C
3146 03-03-2019 22:05:00 12.4 C 78 % 8.68 C
3147 03-03-2019 22:10:00 12.4 C 78 % 8.68 C
3148 03-03-2019 22:15:00 12.4 C 77 % 8.49 C
3149 03-03-2019 22:20:00 12.4 C 77 % 8.49 C
3150 03-03-2019 22:25:00 12.5 C 77 % 8.58 C
Sensor: Nr:Datum:Temp:Feuchte:Taupunkt:
Aussen-T/F 3151 03-03-2019 22:30:00 12.5 C 77 % 8.58 C
3152 03-03-2019 22:35:00 12.6 C 76 % 8.49 C
3153 03-03-2019 22:40:00 12.6 C 76 % 8.49 C
3154 03-03-2019 22:45:00 12.7 C 75 % 8.39 C
3155 03-03-2019 22:50:00 12.7 C 75 % 8.39 C
3156 03-03-2019 22:55:00 12.7 C 75 % 8.39 C
3157 03-03-2019 23:00:00 12.7 C 74 % 8.19 C
3158 03-03-2019 23:05:00 12.8 C 74 % 8.29 C
3159 03-03-2019 23:10:00 12.8 C 74 % 8.29 C
3160 03-03-2019 23:15:00 12.8 C 74 % 8.29 C
3161 03-03-2019 23:20:00 12.7 C 74 % 8.19 C
3162 03-03-2019 23:25:00 12.7 C 74 % 8.19 C
3163 03-03-2019 23:30:00 12.7 C 74 % 8.19 C
3164 03-03-2019 23:35:00 12.7 C 74 % 8.19 C
3165 03-03-2019 23:40:00 12.8 C 73 % 8.09 C
3166 03-03-2019 23:45:00 12.8 C 74 % 8.29 C
3167 03-03-2019 23:50:00 12.8 C 73 % 8.09 C
3168 03-03-2019 23:55:00 12.8 C 73 % 8.09 C
3169 04-03-2019 00:00:00 12.9 C 73 % 8.18 C
3170 04-03-2019 00:05:00 12.9 C 73 % 8.18 C
3171 04-03-2019 00:10:00 12.9 C 72 % 7.98 C
3172 04-03-2019 00:15:00 13 C 72 % 8.08 C
3173 04-03-2019 00:20:00 13.1 C 72 % 8.17 C
3174 04-03-2019 00:25:00 13.1 C 71 % 7.97 C
3175 04-03-2019 00:30:00 13.2 C 71 % 8.06 C
Sensor: Nr:Datum:Temp:Feuchte:Taupunkt:
Aussen-T/F 3176 04-03-2019 00:35:00 13.2 C 70 % 7.86 C
3177 04-03-2019 00:40:00 13.2 C 71 % 8.06 C
3178 04-03-2019 00:45:00 13.2 C 70 % 7.86 C
3179 04-03-2019 00:50:00 13.3 C 70 % 7.95 C
3180 04-03-2019 00:55:00 13.3 C 70 % 7.95 C
3181 04-03-2019 01:00:00 13.3 C 69 % 7.74 C
3182 04-03-2019 01:05:00 13.3 C 70 % 7.95 C
3183 04-03-2019 01:10:00 13.3 C 70 % 7.95 C
3184 04-03-2019 01:15:00 13.3 C 70 % 7.95 C
3185 04-03-2019 01:20:00 13.3 C 69 % 7.74 C
3186 04-03-2019 01:25:00 13.3 C 69 % 7.74 C
3187 04-03-2019 01:30:00 13.4 C 68 % 7.62 C
3188 04-03-2019 01:35:00 13.6 C 67 % 7.6 C
3189 04-03-2019 01:40:00 13.8 C 67 % 7.79 C
3190 04-03-2019 01:45:00 13.8 C 67 % 7.79 C
3191 04-03-2019 01:50:00 13.9 C 67 % 7.88 C
3192 04-03-2019 01:55:00 13.8 C 69 % 8.22 C
3193 04-03-2019 02:00:00 13.6 C 70 % 8.24 C
3194 04-03-2019 02:05:00 13.3 C 71 % 8.16 C
3195 04-03-2019 02:10:00 13.2 C 72 % 8.27 C
3196 04-03-2019 02:15:00 12.9 C 74 % 8.38 C
3197 04-03-2019 02:20:00 12.8 C 75 % 8.48 C
3198 04-03-2019 02:25:00 12.6 C 76 % 8.49 C
3199 04-03-2019 02:30:00 12.5 C 77 % 8.58 C
3200 04-03-2019 02:35:00 12.3 C 77 % 8.39 C
Sensor: Nr:Datum:Temp:Feuchte:Taupunkt:
Aussen-T/F 3201 04-03-2019 02:40:00 12.3 C 78 % 8.58 C
3202 04-03-2019 02:45:00 12.2 C 78 % 8.48 C
3203 04-03-2019 02:50:00 12.2 C 78 % 8.48 C
3204 04-03-2019 02:55:00 12.1 C 79 % 8.57 C
3205 04-03-2019 03:00:00 12.1 C 79 % 8.57 C
3206 04-03-2019 03:05:00 12 C 79 % 8.48 C
3207 04-03-2019 03:10:00 11.9 C 80 % 8.56 C
3208 04-03-2019 03:15:00 11.8 C 80 % 8.47 C
3209 04-03-2019 03:20:00 11.8 C 80 % 8.47 C
3210 04-03-2019 03:25:00 11.7 C 81 % 8.55 C
3211 04-03-2019 03:30:00 11.7 C 81 % 8.55 C
3212 04-03-2019 03:35:00 11.7 C 81 % 8.55 C
3213 04-03-2019 03:40:00 11.7 C 81 % 8.55 C
3214 04-03-2019 03:45:00 11.7 C 81 % 8.55 C
3215 04-03-2019 03:50:00 11.7 C 81 % 8.55 C
3216 04-03-2019 03:55:00 11.7 C 81 % 8.55 C
3217 04-03-2019 04:00:00 11.7 C 81 % 8.55 C
3218 04-03-2019 04:05:00 11.7 C 81 % 8.55 C
3219 04-03-2019 04:10:00 11.6 C 81 % 8.45 C
3220 04-03-2019 04:15:00 11.6 C 81 % 8.45 C
3221 04-03-2019 04:20:00 11.6 C 81 % 8.45 C
3222 04-03-2019 04:25:00 11.7 C 82 % 8.73 C
3223 04-03-2019 04:30:00 11.7 C 82 % 8.73 C
3224 04-03-2019 04:35:00 11.7 C 82 % 8.73 C
3225 04-03-2019 04:40:00 11.7 C 82 % 8.73 C
Sensor: Nr:Datum:Temp:Feuchte:Taupunkt:
Aussen-T/F 3226 04-03-2019 04:45:00 11.7 C 82 % 8.73 C
3227 04-03-2019 04:50:00 11.7 C 82 % 8.73 C
3228 04-03-2019 04:55:00 11.7 C 81 % 8.55 C
3229 04-03-2019 05:00:00 11.7 C 81 % 8.55 C
3230 04-03-2019 05:05:00 11.7 C 80 % 8.37 C
3231 04-03-2019 05:10:00 11.8 C 80 % 8.47 C
3232 04-03-2019 05:15:00 11.8 C 80 % 8.47 C
3233 04-03-2019 05:20:00 11.8 C 80 % 8.47 C
3234 04-03-2019 05:25:00 11.8 C 80 % 8.47 C
3235 04-03-2019 05:30:00 11.7 C 80 % 8.37 C
3236 04-03-2019 05:35:00 11.6 C 79 % 8.09 C
3237 04-03-2019 05:40:00 11.6 C 80 % 8.27 C
3238 04-03-2019 05:45:00 11.4 C 80 % 8.08 C
3239 04-03-2019 05:50:00 11.4 C 80 % 8.08 C
3240 04-03-2019 05:55:00 11.3 C 81 % 8.16 C
3241 04-03-2019 06:00:00 11.3 C 81 % 8.16 C
3242 04-03-2019 06:05:00 11.4 C 80 % 8.08 C
3243 04-03-2019 06:10:00 11.4 C 80 % 8.08 C
3244 04-03-2019 06:15:00 11.3 C 80 % 7.98 C
3245 04-03-2019 06:20:00 11.3 C 79 % 7.8 C
3246 04-03-2019 06:25:00 11.3 C 78 % 7.61 C
3247 04-03-2019 06:30:00 11.5 C 77 % 7.61 C
3248 04-03-2019 06:35:00 11.6 C 79 % 8.09 C
3249 04-03-2019 06:40:00 11.6 C 79 % 8.09 C
3250 04-03-2019 06:45:00 11.5 C 78 % 7.8 C
Sensor: Nr:Datum:Temp:Feuchte:Taupunkt:
Aussen-T/F 3251 04-03-2019 06:50:00 11.6 C 78 % 7.9 C
3252 04-03-2019 06:55:00 11.6 C 78 % 7.9 C
3253 04-03-2019 07:00:00 11.6 C 77 % 7.71 C
3254 04-03-2019 07:05:00 11.7 C 76 % 7.62 C
3255 04-03-2019 07:10:00 11.8 C 76 % 7.71 C
3256 04-03-2019 07:15:00 11.9 C 75 % 7.62 C
3257 04-03-2019 07:20:00 12 C 74 % 7.52 C
3258 04-03-2019 07:25:00 12 C 74 % 7.52 C
3259 04-03-2019 07:30:00 12.1 C 73 % 7.41 C
3260 04-03-2019 07:35:00 12.1 C 73 % 7.41 C
3261 04-03-2019 07:40:00 12.2 C 72 % 7.31 C
3262 04-03-2019 07:45:00 12.2 C 72 % 7.31 C
3263 04-03-2019 07:50:00 12.2 C 72 % 7.31 C
3264 04-03-2019 07:55:00 12.2 C 72 % 7.31 C
3265 04-03-2019 08:00:00 12.3 C 72 % 7.4 C
3266 04-03-2019 08:05:00 12.3 C 71 % 7.2 C
3267 04-03-2019 08:10:00 12.4 C 70 % 7.09 C
3268 04-03-2019 08:15:00 12.4 C 69 % 6.88 C
3269 04-03-2019 08:20:00 12.6 C 68 % 6.86 C
3270 04-03-2019 08:25:00 12.7 C 68 % 6.95 C
3271 04-03-2019 08:30:00 12.7 C 67 % 6.74 C
3272 04-03-2019 08:35:00 12 C 75 % 7.71 C
3273 04-03-2019 08:40:00 10.7 C 77 % 6.84 C
3274 04-03-2019 08:45:00 9.7 C 80 % 6.42 C
3275 04-03-2019 08:50:00 9.2 C 80 % 5.94 C
Sensor: Nr:Datum:Temp:Feuchte:Taupunkt:
Aussen-T/F 3276 04-03-2019 08:55:00 8.9 C 81 % 5.82 C
3277 04-03-2019 09:00:00 8.9 C 79 % 5.46 C
3278 04-03-2019 09:05:00 9 C 77 % 5.19 C
3279 04-03-2019 09:10:00 9.2 C 75 % 5.01 C
3280 04-03-2019 09:15:00 9.4 C 74 % 5.01 C
3281 04-03-2019 09:20:00 9.6 C 73 % 5.01 C
3282 04-03-2019 09:25:00 9.6 C 73 % 5.01 C
3283 04-03-2019 09:30:00 9.7 C 73 % 5.1 C
3284 04-03-2019 09:35:00 9.8 C 75 % 5.59 C
3285 04-03-2019 09:40:00 9.8 C 78 % 6.15 C
3286 04-03-2019 09:45:00 9.4 C 79 % 5.95 C
3287 04-03-2019 09:50:00 9.2 C 80 % 5.94 C
3288 04-03-2019 09:55:00 9.1 C 80 % 5.84 C
3289 04-03-2019 10:00:00 9.1 C 80 % 5.84 C
3290 04-03-2019 10:05:00 9.2 C 80 % 5.94 C
3291 04-03-2019 10:10:00 9.4 C 79 % 5.95 C
3292 04-03-2019 10:15:00 9.6 C 78 % 5.96 C
3293 04-03-2019 10:20:00 9.7 C 77 % 5.87 C
3294 04-03-2019 10:25:00 9.9 C 77 % 6.06 C
3295 04-03-2019 10:30:00 10 C 76 % 5.97 C
3296 04-03-2019 10:35:00 10.1 C 76 % 6.07 C
3297 04-03-2019 10:40:00 10.2 C 76 % 6.16 C
3298 04-03-2019 10:45:00 10.3 C 75 % 6.07 C
3299 04-03-2019 10:50:00 10.6 C 74 % 6.17 C
3300 04-03-2019 10:55:00 10.8 C 71 % 5.76 C
Sensor: Nr:Datum:Temp:Feuchte:Taupunkt:
Aussen-T/F 3301 04-03-2019 11:00:00 11.1 C 70 % 5.84 C
3302 04-03-2019 11:05:00 11.3 C 68 % 5.62 C
3303 04-03-2019 11:10:00 11.6 C 67 % 5.69 C
3304 04-03-2019 11:15:00 11.7 C 66 % 5.57 C
3305 04-03-2019 11:20:00 11.7 C 65 % 5.35 C
3306 04-03-2019 11:25:00 11.6 C 68 % 5.9 C
3307 04-03-2019 11:30:00 11.2 C 70 % 5.94 C
3308 04-03-2019 11:35:00 10.9 C 71 % 5.86 C
3309 04-03-2019 11:40:00 10.8 C 71 % 5.76 C
3310 04-03-2019 11:45:00 10.9 C 72 % 6.06 C
3311 04-03-2019 11:50:00 11 C 71 % 5.95 C
3312 04-03-2019 11:55:00 11 C 71 % 5.95 C
3313 04-03-2019 12:00:00 11.2 C 69 % 5.73 C
3314 04-03-2019 12:05:00 11.3 C 68 % 5.62 C
3315 04-03-2019 12:10:00 11.4 C 68 % 5.71 C
3316 04-03-2019 12:15:00 11.6 C 68 % 5.9 C
3317 04-03-2019 12:20:00 11.8 C 67 % 5.88 C
3318 04-03-2019 12:25:00 12 C 67 % 6.07 C
3319 04-03-2019 12:30:00 11.9 C 68 % 6.19 C
3320 04-03-2019 12:35:00 11.4 C 73 % 6.74 C
3321 04-03-2019 12:40:00 10.6 C 78 % 6.93 C
3322 04-03-2019 12:45:00 9.8 C 82 % 6.88 C
3323 04-03-2019 12:50:00 9.5 C 83 % 6.76 C
3324 04-03-2019 12:55:00 9.3 C 84 % 6.74 C
3325 04-03-2019 13:00:00 8.8 C 86 % 6.59 C
Sensor: Nr:Datum:Temp:Feuchte:Taupunkt:
Aussen-T/F 3326 04-03-2019 13:05:00 8.7 C 88 % 6.83 C
3327 04-03-2019 13:10:00 9.1 C 90 % 7.55 C
3328 04-03-2019 13:15:00 9.3 C 87 % 7.25 C
3329 04-03-2019 13:20:00 9.4 C 86 % 7.18 C
3330 04-03-2019 13:25:00 9.7 C 85 % 7.3 C
3331 04-03-2019 13:30:00 9.9 C 83 % 7.15 C
3332 04-03-2019 13:35:00 10.3 C 81 % 7.19 C
3333 04-03-2019 13:40:00 10.5 C 80 % 7.2 C
3334 04-03-2019 13:45:00 10.4 C 81 % 7.28 C
3335 04-03-2019 13:50:00 10.4 C 81 % 7.28 C
3336 04-03-2019 13:55:00 10.3 C 81 % 7.19 C
3337 04-03-2019 14:00:00 10.2 C 82 % 7.27 C
3338 04-03-2019 14:05:00 10.2 C 82 % 7.27 C
3339 04-03-2019 14:10:00 10.1 C 84 % 7.52 C
3340 04-03-2019 14:15:00 9.9 C 83 % 7.15 C
3341 04-03-2019 14:20:00 9.9 C 83 % 7.15 C
3342 04-03-2019 14:25:00 9.9 C 81 % 6.8 C
3343 04-03-2019 14:30:00 9.8 C 81 % 6.7 C
3344 04-03-2019 14:35:00 9.6 C 82 % 6.68 C
3345 04-03-2019 14:40:00 9.1 C 84 % 6.54 C
3346 04-03-2019 14:45:00 8.6 C 86 % 6.39 C
3347 04-03-2019 14:50:00 8.2 C 86 % 6 C
3348 04-03-2019 14:55:00 7.8 C 86 % 5.61 C
3349 04-03-2019 15:00:00 7.6 C 85 % 5.24 C
3350 04-03-2019 15:05:00 7.4 C 85 % 5.05 C
Sensor: Nr:Datum:Temp:Feuchte:Taupunkt:
Aussen-T/F 3351 04-03-2019 15:10:00 7.2 C 86 % 5.02 C
3352 04-03-2019 15:15:00 7.2 C 86 % 5.02 C
3353 04-03-2019 15:20:00 7.1 C 86 % 4.92 C
3354 04-03-2019 15:25:00 7.1 C 86 % 4.92 C
3355 04-03-2019 15:30:00 6.9 C 85 % 4.56 C
3356 04-03-2019 15:35:00 6.9 C 84 % 4.39 C
3357 04-03-2019 15:40:00 6.9 C 84 % 4.39 C
3358 04-03-2019 15:45:00 6.9 C 83 % 4.22 C
3359 04-03-2019 15:50:00 6.9 C 82 % 4.05 C
3360 04-03-2019 15:55:00 7.1 C 81 % 4.07 C
3361 04-03-2019 16:00:00 7.3 C 81 % 4.26 C
3362 04-03-2019 16:05:00 7.4 C 81 % 4.36 C
3363 04-03-2019 16:10:00 7.4 C 81 % 4.36 C
3364 04-03-2019 16:15:00 7.6 C 81 % 4.55 C
3365 04-03-2019 16:20:00 7.6 C 80 % 4.38 C
3366 04-03-2019 16:25:00 7.6 C 80 % 4.38 C
3367 04-03-2019 16:30:00 7.6 C 79 % 4.2 C
3368 04-03-2019 16:35:00 7.6 C 79 % 4.2 C
3369 04-03-2019 16:40:00 7.6 C 78 % 4.02 C
3370 04-03-2019 16:45:00 7.6 C 79 % 4.2 C
3371 04-03-2019 16:50:00 7.6 C 79 % 4.2 C
3372 04-03-2019 16:55:00 7.6 C 78 % 4.02 C
3373 04-03-2019 17:00:00 7.6 C 78 % 4.02 C
3374 04-03-2019 17:05:00 7.6 C 78 % 4.02 C
3375 04-03-2019 17:10:00 7.6 C 78 % 4.02 C
Sensor: Nr:Datum:Temp:Feuchte:Taupunkt:
Aussen-T/F 3376 04-03-2019 17:15:00 7.5 C 79 % 4.1 C
3377 04-03-2019 17:20:00 7.4 C 78 % 3.82 C
3378 04-03-2019 17:25:00 7.4 C 79 % 4 C
3379 04-03-2019 17:30:00 7.3 C 79 % 3.91 C
3380 04-03-2019 17:35:00 7.3 C 79 % 3.91 C
3381 04-03-2019 17:40:00 7.3 C 79 % 3.91 C
3382 04-03-2019 17:45:00 7.3 C 79 % 3.91 C
3383 04-03-2019 17:50:00 7.3 C 79 % 3.91 C
3384 04-03-2019 17:55:00 7.2 C 79 % 3.81 C
3385 04-03-2019 18:00:00 7.2 C 79 % 3.81 C
3386 04-03-2019 18:05:00 7.2 C 80 % 3.99 C
3387 04-03-2019 18:10:00 7.1 C 80 % 3.89 C
3388 04-03-2019 18:15:00 7 C 80 % 3.79 C
3389 04-03-2019 18:20:00 6.9 C 81 % 3.87 C
3390 04-03-2019 18:25:00 6.9 C 81 % 3.87 C
3391 04-03-2019 18:30:00 7 C 80 % 3.79 C
3392 04-03-2019 18:35:00 6.9 C 80 % 3.7 C
3393 04-03-2019 18:40:00 6.9 C 81 % 3.87 C
3394 04-03-2019 18:45:00 6.8 C 81 % 3.77 C
3395 04-03-2019 18:50:00 6.8 C 81 % 3.77 C
3396 04-03-2019 18:55:00 6.9 C 81 % 3.87 C
3397 04-03-2019 19:00:00 6.9 C 81 % 3.87 C
3398 04-03-2019 19:05:00 6.9 C 81 % 3.87 C
3399 04-03-2019 19:10:00 6.9 C 81 % 3.87 C
3400 04-03-2019 19:15:00 6.9 C 81 % 3.87 C
Sensor: Nr:Datum:Temp:Feuchte:Taupunkt:
Aussen-T/F 3401 04-03-2019 19:20:00 6.9 C 81 % 3.87 C
3402 04-03-2019 19:25:00 6.9 C 81 % 3.87 C
3403 04-03-2019 19:30:00 6.9 C 81 % 3.87 C
3404 04-03-2019 19:35:00 6.9 C 82 % 4.05 C
3405 04-03-2019 19:40:00 6.8 C 82 % 3.95 C
3406 04-03-2019 19:45:00 6.8 C 82 % 3.95 C
3407 04-03-2019 19:50:00 6.8 C 82 % 3.95 C
3408 04-03-2019 19:55:00 6.8 C 82 % 3.95 C
3409 04-03-2019 20:00:00 6.9 C 82 % 4.05 C
3410 04-03-2019 20:05:00 6.9 C 82 % 4.05 C
3411 04-03-2019 20:10:00 6.9 C 82 % 4.05 C
3412 04-03-2019 20:15:00 7 C 81 % 3.97 C
3413 04-03-2019 20:20:00 7.1 C 81 % 4.07 C
3414 04-03-2019 20:25:00 7.1 C 81 % 4.07 C
3415 04-03-2019 20:30:00 7.1 C 81 % 4.07 C
3416 04-03-2019 20:35:00 7.1 C 81 % 4.07 C
3417 04-03-2019 20:40:00 6.9 C 81 % 3.87 C
3418 04-03-2019 20:45:00 6.9 C 82 % 4.05 C
3419 04-03-2019 20:50:00 6.8 C 82 % 3.95 C
3420 04-03-2019 20:55:00 6.7 C 82 % 3.85 C
3421 04-03-2019 21:00:00 6.6 C 83 % 3.92 C
3422 04-03-2019 21:05:00 6.6 C 82 % 3.75 C
3423 04-03-2019 21:10:00 6.6 C 83 % 3.92 C
3424 04-03-2019 21:15:00 6.6 C 83 % 3.92 C
3425 04-03-2019 21:20:00 6.6 C 83 % 3.92 C
Sensor: Nr:Datum:Temp:Feuchte:Taupunkt:
Aussen-T/F 3426 04-03-2019 21:25:00 6.6 C 83 % 3.92 C
3427 04-03-2019 21:30:00 6.6 C 83 % 3.92 C
3428 04-03-2019 21:35:00 6.6 C 83 % 3.92 C
3429 04-03-2019 21:40:00 6.6 C 84 % 4.1 C
3430 04-03-2019 21:45:00 6.6 C 84 % 4.1 C
3431 04-03-2019 21:50:00 6.7 C 84 % 4.19 C
3432 04-03-2019 21:55:00 6.7 C 84 % 4.19 C
3433 04-03-2019 22:00:00 6.9 C 85 % 4.56 C
3434 04-03-2019 22:05:00 7 C 85 % 4.66 C
3435 04-03-2019 22:10:00 7.1 C 84 % 4.58 C
3436 04-03-2019 22:15:00 7.1 C 83 % 4.41 C
3437 04-03-2019 22:20:00 7.2 C 82 % 4.34 C
3438 04-03-2019 22:25:00 7.1 C 82 % 4.24 C
3439 04-03-2019 22:30:00 7.1 C 82 % 4.24 C
3440 04-03-2019 22:35:00 7.1 C 82 % 4.24 C
3441 04-03-2019 22:40:00 7.1 C 82 % 4.24 C
3442 04-03-2019 22:45:00 7.2 C 82 % 4.34 C
3443 04-03-2019 22:50:00 7.1 C 82 % 4.24 C
3444 04-03-2019 22:55:00 7.1 C 82 % 4.24 C
3445 04-03-2019 23:00:00 7.1 C 82 % 4.24 C
3446 04-03-2019 23:05:00 7.1 C 82 % 4.24 C
3447 04-03-2019 23:10:00 6.9 C 82 % 4.05 C
3448 04-03-2019 23:15:00 6.8 C 83 % 4.12 C
3449 04-03-2019 23:20:00 6.7 C 83 % 4.02 C
3450 04-03-2019 23:25:00 6.6 C 84 % 4.1 C
Sensor: Nr:Datum:Temp:Feuchte:Taupunkt:
Aussen-T/F 3451 04-03-2019 23:30:00 6.6 C 84 % 4.1 C
3452 04-03-2019 23:35:00 6.5 C 85 % 4.17 C
3453 04-03-2019 23:40:00 6.5 C 85 % 4.17 C
3454 04-03-2019 23:45:00 6.5 C 85 % 4.17 C
3455 04-03-2019 23:50:00 6.5 C 85 % 4.17 C
3456 04-03-2019 23:55:00 6.6 C 84 % 4.1 C
3457 05-03-2019 00:00:00 6.6 C 84 % 4.1 C
3458 05-03-2019 00:05:00 6.6 C 84 % 4.1 C
3459 05-03-2019 00:10:00 6.7 C 83 % 4.02 C
3460 05-03-2019 00:15:00 6.8 C 83 % 4.12 C
3461 05-03-2019 00:20:00 6.9 C 82 % 4.05 C
3462 05-03-2019 00:25:00 6.9 C 81 % 3.87 C
3463 05-03-2019 00:30:00 7 C 81 % 3.97 C
3464 05-03-2019 00:35:00 7 C 80 % 3.79 C
3465 05-03-2019 00:40:00 7 C 80 % 3.79 C
3466 05-03-2019 00:45:00 7 C 80 % 3.79 C
3467 05-03-2019 00:50:00 7 C 80 % 3.79 C
3468 05-03-2019 00:55:00 7 C 80 % 3.79 C
3469 05-03-2019 01:00:00 6.9 C 80 % 3.7 C
3470 05-03-2019 01:05:00 6.9 C 80 % 3.7 C
3471 05-03-2019 01:10:00 6.9 C 80 % 3.7 C
3472 05-03-2019 01:15:00 6.9 C 81 % 3.87 C
3473 05-03-2019 01:20:00 6.9 C 80 % 3.7 C
3474 05-03-2019 01:25:00 6.9 C 81 % 3.87 C
3475 05-03-2019 01:30:00 6.8 C 81 % 3.77 C
Sensor: Nr:Datum:Temp:Feuchte:Taupunkt:
Aussen-T/F 3476 05-03-2019 01:35:00 6.8 C 81 % 3.77 C
3477 05-03-2019 01:40:00 6.9 C 81 % 3.87 C
3478 05-03-2019 01:45:00 6.9 C 81 % 3.87 C
3479 05-03-2019 01:50:00 6.9 C 80 % 3.7 C
3480 05-03-2019 01:55:00 6.8 C 80 % 3.6 C
3481 05-03-2019 02:00:00 6.8 C 80 % 3.6 C
3482 05-03-2019 02:05:00 6.8 C 80 % 3.6 C
3483 05-03-2019 02:10:00 6.8 C 80 % 3.6 C
3484 05-03-2019 02:15:00 6.8 C 80 % 3.6 C
3485 05-03-2019 02:20:00 6.7 C 80 % 3.5 C
3486 05-03-2019 02:25:00 6.8 C 80 % 3.6 C
3487 05-03-2019 02:30:00 6.8 C 80 % 3.6 C
3488 05-03-2019 02:35:00 6.8 C 79 % 3.42 C
3489 05-03-2019 02:40:00 6.8 C 80 % 3.6 C
3490 05-03-2019 02:45:00 6.8 C 80 % 3.6 C
3491 05-03-2019 02:50:00 6.8 C 80 % 3.6 C
3492 05-03-2019 02:55:00 6.8 C 80 % 3.6 C
3493 05-03-2019 03:00:00 6.8 C 80 % 3.6 C
3494 05-03-2019 03:05:00 6.8 C 80 % 3.6 C
3495 05-03-2019 03:10:00 6.8 C 80 % 3.6 C
3496 05-03-2019 03:15:00 6.8 C 80 % 3.6 C
3497 05-03-2019 03:20:00 6.8 C 80 % 3.6 C
3498 05-03-2019 03:25:00 6.8 C 80 % 3.6 C
3499 05-03-2019 03:30:00 6.8 C 81 % 3.77 C
3500 05-03-2019 03:35:00 6.8 C 81 % 3.77 C
Sensor: Nr:Datum:Temp:Feuchte:Taupunkt:
Aussen-T/F 3501 05-03-2019 03:40:00 6.7 C 81 % 3.68 C
3502 05-03-2019 03:45:00 6.6 C 81 % 3.58 C
3503 05-03-2019 03:50:00 6.6 C 81 % 3.58 C
3504 05-03-2019 03:55:00 6.6 C 81 % 3.58 C
3505 05-03-2019 04:00:00 6.6 C 81 % 3.58 C
3506 05-03-2019 04:05:00 6.4 C 81 % 3.38 C
3507 05-03-2019 04:10:00 6.4 C 81 % 3.38 C
3508 05-03-2019 04:15:00 6.4 C 81 % 3.38 C
3509 05-03-2019 04:20:00 6.4 C 81 % 3.38 C
3510 05-03-2019 04:25:00 6.4 C 81 % 3.38 C
3511 05-03-2019 04:30:00 6.4 C 81 % 3.38 C
3512 05-03-2019 04:35:00 6.4 C 81 % 3.38 C
3513 05-03-2019 04:40:00 6.4 C 81 % 3.38 C
3514 05-03-2019 04:45:00 6.4 C 81 % 3.38 C
3515 05-03-2019 04:50:00 6.4 C 81 % 3.38 C
3516 05-03-2019 04:55:00 6.5 C 80 % 3.31 C
3517 05-03-2019 05:00:00 6.5 C 81 % 3.48 C
3518 05-03-2019 05:05:00 6.5 C 80 % 3.31 C
3519 05-03-2019 05:10:00 6.4 C 81 % 3.38 C
3520 05-03-2019 05:15:00 6.4 C 81 % 3.38 C
3521 05-03-2019 05:20:00 6.3 C 81 % 3.29 C
3522 05-03-2019 05:25:00 6.3 C 81 % 3.29 C
3523 05-03-2019 05:30:00 6.3 C 81 % 3.29 C
3524 05-03-2019 05:35:00 6.3 C 81 % 3.29 C
3525 05-03-2019 05:40:00 6.3 C 81 % 3.29 C
Sensor: Nr:Datum:Temp:Feuchte:Taupunkt:
Aussen-T/F 3526 05-03-2019 05:45:00 6.3 C 81 % 3.29 C
3527 05-03-2019 05:50:00 6.3 C 81 % 3.29 C
3528 05-03-2019 05:55:00 6.3 C 81 % 3.29 C
3529 05-03-2019 06:00:00 6.3 C 80 % 3.11 C
3530 05-03-2019 06:05:00 6.3 C 80 % 3.11 C
3531 05-03-2019 06:10:00 6.3 C 80 % 3.11 C
3532 05-03-2019 06:15:00 6.3 C 79 % 2.93 C
3533 05-03-2019 06:20:00 6.2 C 80 % 3.01 C
3534 05-03-2019 06:25:00 6.2 C 80 % 3.01 C
3535 05-03-2019 06:30:00 6.1 C 80 % 2.92 C
3536 05-03-2019 06:35:00 6.2 C 80 % 3.01 C
3537 05-03-2019 06:40:00 6.2 C 80 % 3.01 C
3538 05-03-2019 06:45:00 6.2 C 80 % 3.01 C
3539 05-03-2019 06:50:00 6.3 C 79 % 2.93 C
3540 05-03-2019 06:55:00 6.3 C 79 % 2.93 C
3541 05-03-2019 07:00:00 6.3 C 79 % 2.93 C
3542 05-03-2019 07:05:00 6.3 C 79 % 2.93 C
3543 05-03-2019 07:10:00 6.3 C 80 % 3.11 C
3544 05-03-2019 07:15:00 6.3 C 80 % 3.11 C
3545 05-03-2019 07:20:00 6.4 C 80 % 3.21 C
3546 05-03-2019 07:25:00 6.4 C 79 % 3.03 C
3547 05-03-2019 07:30:00 6.5 C 79 % 3.13 C
3548 05-03-2019 07:35:00 6.6 C 79 % 3.23 C
3549 05-03-2019 07:40:00 6.6 C 79 % 3.23 C
3550 05-03-2019 07:45:00 6.6 C 79 % 3.23 C
Sensor: Nr:Datum:Temp:Feuchte:Taupunkt:
Aussen-T/F 3551 05-03-2019 07:50:00 6.7 C 79 % 3.32 C
3552 05-03-2019 07:55:00 6.7 C 79 % 3.32 C
3553 05-03-2019 08:00:00 6.7 C 80 % 3.5 C
3554 05-03-2019 08:05:00 6.6 C 80 % 3.4 C
3555 05-03-2019 08:10:00 6.6 C 80 % 3.4 C
3556 05-03-2019 08:15:00 6.6 C 80 % 3.4 C
3557 05-03-2019 08:20:00 6.6 C 80 % 3.4 C
3558 05-03-2019 08:25:00 6.6 C 80 % 3.4 C
3559 05-03-2019 08:30:00 6.6 C 80 % 3.4 C
3560 05-03-2019 08:35:00 6.7 C 81 % 3.68 C
3561 05-03-2019 08:40:00 6.7 C 80 % 3.5 C
3562 05-03-2019 08:45:00 6.7 C 80 % 3.5 C
3563 05-03-2019 08:50:00 6.7 C 80 % 3.5 C
3564 05-03-2019 08:55:00 6.6 C 82 % 3.75 C
3565 05-03-2019 09:00:00 6.6 C 83 % 3.92 C
3566 05-03-2019 09:05:00 6.5 C 83 % 3.83 C
3567 05-03-2019 09:10:00 6.5 C 82 % 3.66 C
3568 05-03-2019 09:15:00 6.6 C 82 % 3.75 C
3569 05-03-2019 09:20:00 6.6 C 82 % 3.75 C
3570 05-03-2019 09:25:00 6.6 C 83 % 3.92 C
3571 05-03-2019 09:30:00 6.6 C 83 % 3.92 C
3572 05-03-2019 09:35:00 6.5 C 84 % 4 C
3573 05-03-2019 09:40:00 6.4 C 84 % 3.9 C
3574 05-03-2019 09:45:00 6.4 C 84 % 3.9 C
3575 05-03-2019 09:50:00 6.4 C 85 % 4.07 C
Sensor: Nr:Datum:Temp:Feuchte:Taupunkt:
Aussen-T/F 3576 05-03-2019 09:55:00 6.4 C 85 % 4.07 C
3577 05-03-2019 10:00:00 6.4 C 85 % 4.07 C
3578 05-03-2019 10:05:00 6.5 C 85 % 4.17 C
3579 05-03-2019 10:10:00 6.5 C 86 % 4.33 C
3580 05-03-2019 10:15:00 6.6 C 86 % 4.43 C
3581 05-03-2019 10:20:00 6.6 C 85 % 4.26 C
3582 05-03-2019 10:25:00 6.6 C 85 % 4.26 C
3583 05-03-2019 10:30:00 6.7 C 85 % 4.36 C
3584 05-03-2019 10:35:00 6.7 C 85 % 4.36 C
3585 05-03-2019 10:40:00 6.7 C 85 % 4.36 C
3586 05-03-2019 10:45:00 6.7 C 85 % 4.36 C
3587 05-03-2019 10:50:00 6.7 C 85 % 4.36 C
3588 05-03-2019 10:55:00 6.8 C 85 % 4.46 C
3589 05-03-2019 11:00:00 6.8 C 85 % 4.46 C
3590 05-03-2019 11:05:00 6.9 C 85 % 4.56 C
3591 05-03-2019 11:10:00 6.9 C 85 % 4.56 C
3592 05-03-2019 11:15:00 6.9 C 85 % 4.56 C
3593 05-03-2019 11:20:00 6.9 C 84 % 4.39 C
3594 05-03-2019 11:25:00 7 C 85 % 4.66 C
3595 05-03-2019 11:30:00 7 C 85 % 4.66 C
3596 05-03-2019 11:35:00 7 C 84 % 4.49 C
3597 05-03-2019 11:40:00 7.1 C 84 % 4.58 C
3598 05-03-2019 11:45:00 7.1 C 84 % 4.58 C
3599 05-03-2019 11:50:00 7.1 C 83 % 4.41 C
3600 05-03-2019 11:55:00 7.2 C 83 % 4.51 C
Sensor: Nr:Datum:Temp:Feuchte:Taupunkt:
Aussen-T/F 3601 05-03-2019 12:00:00 7.2 C 83 % 4.51 C
3602 05-03-2019 12:05:00 7.2 C 83 % 4.51 C
3603 05-03-2019 12:10:00 7.3 C 82 % 4.44 C
3604 05-03-2019 12:15:00 7.3 C 82 % 4.44 C
3605 05-03-2019 12:20:00 7.3 C 81 % 4.26 C
3606 05-03-2019 12:25:00 7.3 C 81 % 4.26 C
3607 05-03-2019 12:30:00 7.3 C 81 % 4.26 C
3608 05-03-2019 12:35:00 7.3 C 81 % 4.26 C
3609 05-03-2019 12:40:00 7.3 C 81 % 4.26 C
3610 05-03-2019 12:45:00 7.3 C 81 % 4.26 C
3611 05-03-2019 12:50:00 7.4 C 82 % 4.53 C
3612 05-03-2019 12:55:00 7.4 C 81 % 4.36 C
3613 05-03-2019 13:00:00 7.5 C 81 % 4.46 C
3614 05-03-2019 13:05:00 7.6 C 81 % 4.55 C
3615 05-03-2019 13:10:00 7.7 C 81 % 4.65 C
3616 05-03-2019 13:15:00 7.8 C 80 % 4.57 C
3617 05-03-2019 13:20:00 7.9 C 80 % 4.67 C
3618 05-03-2019 13:25:00 8 C 80 % 4.77 C
3619 05-03-2019 13:30:00 8.1 C 80 % 4.86 C
3620 05-03-2019 13:35:00 8.1 C 79 % 4.68 C
3621 05-03-2019 13:40:00 8.2 C 79 % 4.78 C
3622 05-03-2019 13:45:00 8.2 C 79 % 4.78 C
3623 05-03-2019 13:50:00 8.2 C 79 % 4.78 C
3624 05-03-2019 13:55:00 8.3 C 78 % 4.7 C
3625 05-03-2019 14:00:00 8.3 C 78 % 4.7 C
Sensor: Nr:Datum:Temp:Feuchte:Taupunkt:
Aussen-T/F 3626 05-03-2019 14:05:00 8.3 C 78 % 4.7 C
3627 05-03-2019 14:10:00 8.5 C 78 % 4.89 C
3628 05-03-2019 14:15:00 8.6 C 78 % 4.99 C
3629 05-03-2019 14:20:00 8.7 C 78 % 5.08 C
3630 05-03-2019 14:25:00 8.7 C 78 % 5.08 C
3631 05-03-2019 14:30:00 8.7 C 78 % 5.08 C
3632 05-03-2019 14:35:00 8.8 C 77 % 5 C
3633 05-03-2019 14:40:00 8.8 C 77 % 5 C
3634 05-03-2019 14:45:00 8.8 C 77 % 5 C
3635 05-03-2019 14:50:00 8.8 C 76 % 4.81 C
3636 05-03-2019 14:55:00 8.8 C 77 % 5 C
3637 05-03-2019 15:00:00 8.8 C 76 % 4.81 C
3638 05-03-2019 15:05:00 8.8 C 76 % 4.81 C
3639 05-03-2019 15:10:00 8.8 C 76 % 4.81 C
3640 05-03-2019 15:15:00 8.9 C 76 % 4.91 C
3641 05-03-2019 15:20:00 8.8 C 76 % 4.81 C
3642 05-03-2019 15:25:00 8.9 C 76 % 4.91 C
3643 05-03-2019 15:30:00 9 C 75 % 4.81 C
3644 05-03-2019 15:35:00 9.1 C 74 % 4.72 C
3645 05-03-2019 15:40:00 9.1 C 73 % 4.52 C
3646 05-03-2019 15:45:00 9.1 C 73 % 4.52 C
3647 05-03-2019 15:50:00 9.1 C 74 % 4.72 C
3648 05-03-2019 15:55:00 9.1 C 74 % 4.72 C
3649 05-03-2019 16:00:00 9.1 C 75 % 4.91 C
3650 05-03-2019 16:05:00 9.1 C 76 % 5.1 C
Sensor: Nr:Datum:Temp:Feuchte:Taupunkt:
Aussen-T/F 3651 05-03-2019 16:10:00 9.2 C 76 % 5.2 C
3652 05-03-2019 16:15:00 9.5 C 74 % 5.1 C
3653 05-03-2019 16:20:00 9.9 C 72 % 5.1 C
3654 05-03-2019 16:25:00 10.1 C 71 % 5.09 C
3655 05-03-2019 16:30:00 10.1 C 71 % 5.09 C
3656 05-03-2019 16:35:00 10.1 C 71 % 5.09 C
3657 05-03-2019 16:40:00 10.1 C 72 % 5.29 C
3658 05-03-2019 16:45:00 10.1 C 72 % 5.29 C
3659 05-03-2019 16:50:00 10.2 C 71 % 5.18 C
3660 05-03-2019 16:55:00 10.3 C 72 % 5.48 C
3661 05-03-2019 17:00:00 10.3 C 71 % 5.28 C
3662 05-03-2019 17:05:00 10.1 C 72 % 5.29 C
3663 05-03-2019 17:10:00 10.1 C 72 % 5.29 C
3664 05-03-2019 17:15:00 10.1 C 73 % 5.49 C
3665 05-03-2019 17:20:00 10 C 71 % 4.99 C
3666 05-03-2019 17:25:00 9.7 C 72 % 4.9 C
3667 05-03-2019 17:30:00 9.3 C 74 % 4.91 C
3668 05-03-2019 17:35:00 9.1 C 75 % 4.91 C
3669 05-03-2019 17:40:00 8.7 C 76 % 4.71 C
3670 05-03-2019 17:45:00 8.4 C 77 % 4.61 C
3671 05-03-2019 17:50:00 8.2 C 78 % 4.6 C
3672 05-03-2019 17:55:00 8.1 C 79 % 4.68 C
3673 05-03-2019 18:00:00 7.8 C 79 % 4.39 C
3674 05-03-2019 18:05:00 7.7 C 80 % 4.47 C
3675 05-03-2019 18:10:00 7.5 C 80 % 4.28 C
Sensor: Nr:Datum:Temp:Feuchte:Taupunkt:
Aussen-T/F 3676 05-03-2019 18:15:00 7.3 C 81 % 4.26 C
3677 05-03-2019 18:20:00 7.2 C 81 % 4.16 C
3678 05-03-2019 18:25:00 7.1 C 81 % 4.07 C
3679 05-03-2019 18:30:00 7 C 81 % 3.97 C
3680 05-03-2019 18:35:00 6.9 C 81 % 3.87 C
3681 05-03-2019 18:40:00 6.8 C 81 % 3.77 C
3682 05-03-2019 18:45:00 6.8 C 81 % 3.77 C
3683 05-03-2019 18:50:00 6.8 C 81 % 3.77 C
3684 05-03-2019 18:55:00 6.7 C 81 % 3.68 C
3685 05-03-2019 19:00:00 6.7 C 82 % 3.85 C
3686 05-03-2019 19:05:00 6.6 C 82 % 3.75 C
3687 05-03-2019 19:10:00 6.7 C 82 % 3.85 C
3688 05-03-2019 19:15:00 6.7 C 82 % 3.85 C
3689 05-03-2019 19:20:00 6.6 C 82 % 3.75 C
3690 05-03-2019 19:25:00 6.6 C 82 % 3.75 C
3691 05-03-2019 19:30:00 6.6 C 83 % 3.92 C
3692 05-03-2019 19:35:00 6.6 C 83 % 3.92 C
3693 05-03-2019 19:40:00 6.4 C 83 % 3.73 C
3694 05-03-2019 19:45:00 6.4 C 83 % 3.73 C
3695 05-03-2019 19:50:00 6.4 C 83 % 3.73 C
3696 05-03-2019 19:55:00 6.3 C 83 % 3.63 C
3697 05-03-2019 20:00:00 6.3 C 83 % 3.63 C
3698 05-03-2019 20:05:00 6.2 C 83 % 3.53 C
3699 05-03-2019 20:10:00 6 C 84 % 3.51 C
3700 05-03-2019 20:15:00 5.8 C 84 % 3.31 C
Sensor: Nr:Datum:Temp:Feuchte:Taupunkt:
Aussen-T/F 3701 05-03-2019 20:20:00 5.7 C 84 % 3.21 C
3702 05-03-2019 20:25:00 5.5 C 85 % 3.18 C
3703 05-03-2019 20:30:00 5.3 C 85 % 2.99 C
3704 05-03-2019 20:35:00 5.2 C 86 % 3.05 C
3705 05-03-2019 20:40:00 5.1 C 87 % 3.12 C
3706 05-03-2019 20:45:00 5 C 87 % 3.02 C
3707 05-03-2019 20:50:00 4.8 C 87 % 2.82 C
3708 05-03-2019 20:55:00 4.7 C 87 % 2.73 C
3709 05-03-2019 21:00:00 4.6 C 87 % 2.63 C
3710 05-03-2019 21:05:00 4.4 C 88 % 2.59 C
3711 05-03-2019 21:10:00 4.3 C 88 % 2.49 C
3712 05-03-2019 21:15:00 4.2 C 88 % 2.39 C
3713 05-03-2019 21:20:00 4.2 C 89 % 2.55 C
3714 05-03-2019 21:25:00 4.2 C 90 % 2.71 C
3715 05-03-2019 21:30:00 4.2 C 90 % 2.71 C
3716 05-03-2019 21:35:00 4.2 C 90 % 2.71 C
3717 05-03-2019 21:40:00 4.2 C 91 % 2.87 C
3718 05-03-2019 21:45:00 4.2 C 91 % 2.87 C
3719 05-03-2019 21:50:00 4.3 C 91 % 2.96 C
3720 05-03-2019 21:55:00 4.3 C 91 % 2.96 C
3721 05-03-2019 22:00:00 4.3 C 92 % 3.12 C
3722 05-03-2019 22:05:00 4.4 C 92 % 3.22 C
3723 05-03-2019 22:10:00 4.6 C 92 % 3.42 C
3724 05-03-2019 22:15:00 4.7 C 92 % 3.51 C
3725 05-03-2019 22:20:00 4.7 C 92 % 3.51 C
Sensor: Nr:Datum:Temp:Feuchte:Taupunkt:
Aussen-T/F 3726 05-03-2019 22:25:00 4.8 C 92 % 3.61 C
3727 05-03-2019 22:30:00 4.8 C 92 % 3.61 C
3728 05-03-2019 22:35:00 4.8 C 92 % 3.61 C
3729 05-03-2019 22:40:00 4.8 C 92 % 3.61 C
3730 05-03-2019 22:45:00 4.8 C 92 % 3.61 C
3731 05-03-2019 22:50:00 4.9 C 92 % 3.71 C
3732 05-03-2019 22:55:00 4.9 C 92 % 3.71 C
3733 05-03-2019 23:00:00 4.9 C 92 % 3.71 C
3734 05-03-2019 23:05:00 5 C 92 % 3.81 C
3735 05-03-2019 23:10:00 5.1 C 92 % 3.91 C
3736 05-03-2019 23:15:00 5.2 C 92 % 4.01 C
3737 05-03-2019 23:20:00 5.2 C 92 % 4.01 C
3738 05-03-2019 23:25:00 5.3 C 92 % 4.11 C
3739 05-03-2019 23:30:00 5.4 C 92 % 4.21 C
3740 05-03-2019 23:35:00 5.4 C 92 % 4.21 C
3741 05-03-2019 23:40:00 5.4 C 92 % 4.21 C
3742 05-03-2019 23:45:00 5.4 C 92 % 4.21 C
3743 05-03-2019 23:50:00 5.4 C 92 % 4.21 C
3744 05-03-2019 23:55:00 5.5 C 92 % 4.31 C
3745 06-03-2019 00:00:00 5.5 C 92 % 4.31 C
3746 06-03-2019 00:05:00 5.5 C 92 % 4.31 C
3747 06-03-2019 00:10:00 5.5 C 92 % 4.31 C
3748 06-03-2019 00:15:00 5.6 C 92 % 4.41 C
3749 06-03-2019 00:20:00 5.6 C 92 % 4.41 C
3750 06-03-2019 00:25:00 5.6 C 92 % 4.41 C
Sensor: Nr:Datum:Temp:Feuchte:Taupunkt:
Aussen-T/F 3751 06-03-2019 00:30:00 5.7 C 91 % 4.35 C
3752 06-03-2019 00:35:00 5.7 C 91 % 4.35 C
3753 06-03-2019 00:40:00 5.7 C 91 % 4.35 C
3754 06-03-2019 00:45:00 5.7 C 91 % 4.35 C
3755 06-03-2019 00:50:00 5.8 C 92 % 4.6 C
3756 06-03-2019 00:55:00 5.9 C 92 % 4.7 C
3757 06-03-2019 01:00:00 5.9 C 92 % 4.7 C
3758 06-03-2019 01:05:00 6.1 C 92 % 4.9 C
3759 06-03-2019 01:10:00 6.1 C 92 % 4.9 C
3760 06-03-2019 01:15:00 6.1 C 91 % 4.74 C
3761 06-03-2019 01:20:00 6.1 C 91 % 4.74 C
3762 06-03-2019 01:25:00 6.1 C 91 % 4.74 C
3763 06-03-2019 01:30:00 6.1 C 91 % 4.74 C
3764 06-03-2019 01:35:00 6.1 C 91 % 4.74 C
3765 06-03-2019 01:40:00 6.1 C 92 % 4.9 C
3766 06-03-2019 01:45:00 6.2 C 92 % 5 C
3767 06-03-2019 01:50:00 6.4 C 92 % 5.2 C
3768 06-03-2019 01:55:00 6.5 C 92 % 5.3 C
3769 06-03-2019 02:00:00 6.7 C 91 % 5.34 C
3770 06-03-2019 02:05:00 6.8 C 91 % 5.44 C
3771 06-03-2019 02:10:00 6.8 C 91 % 5.44 C
3772 06-03-2019 02:15:00 6.9 C 90 % 5.38 C
3773 06-03-2019 02:20:00 7 C 90 % 5.48 C
3774 06-03-2019 02:25:00 7.1 C 90 % 5.57 C
3775 06-03-2019 02:30:00 7.1 C 90 % 5.57 C
Sensor: Nr:Datum:Temp:Feuchte:Taupunkt:
Aussen-T/F 3776 06-03-2019 02:35:00 7.2 C 89 % 5.51 C
3777 06-03-2019 02:40:00 7.2 C 89 % 5.51 C
3778 06-03-2019 02:45:00 7.2 C 89 % 5.51 C
3779 06-03-2019 02:50:00 7.2 C 89 % 5.51 C
3780 06-03-2019 02:55:00 7.2 C 89 % 5.51 C
3781 06-03-2019 03:00:00 7.2 C 89 % 5.51 C
3782 06-03-2019 03:05:00 7.2 C 89 % 5.51 C
3783 06-03-2019 03:10:00 7.2 C 89 % 5.51 C
3784 06-03-2019 03:15:00 7.1 C 89 % 5.41 C
3785 06-03-2019 03:20:00 7.1 C 89 % 5.41 C
3786 06-03-2019 03:25:00 7 C 89 % 5.31 C
3787 06-03-2019 03:30:00 6.9 C 90 % 5.38 C
3788 06-03-2019 03:35:00 6.9 C 90 % 5.38 C
3789 06-03-2019 03:40:00 6.9 C 90 % 5.38 C
3790 06-03-2019 03:45:00 6.9 C 90 % 5.38 C
3791 06-03-2019 03:50:00 6.8 C 90 % 5.28 C
3792 06-03-2019 03:55:00 6.8 C 90 % 5.28 C
3793 06-03-2019 04:00:00 6.8 C 91 % 5.44 C
3794 06-03-2019 04:05:00 6.8 C 91 % 5.44 C
3795 06-03-2019 04:10:00 6.8 C 91 % 5.44 C
3796 06-03-2019 04:15:00 6.8 C 91 % 5.44 C
3797 06-03-2019 04:20:00 6.7 C 91 % 5.34 C
3798 06-03-2019 04:25:00 6.7 C 91 % 5.34 C
3799 06-03-2019 04:30:00 6.6 C 91 % 5.24 C
3800 06-03-2019 04:35:00 6.7 C 91 % 5.34 C
Sensor: Nr:Datum:Temp:Feuchte:Taupunkt:
Aussen-T/F 3801 06-03-2019 04:40:00 6.8 C 92 % 5.59 C
3802 06-03-2019 04:45:00 6.9 C 91 % 5.54 C
3803 06-03-2019 04:50:00 7.1 C 91 % 5.73 C
3804 06-03-2019 04:55:00 7.1 C 90 % 5.57 C
3805 06-03-2019 05:00:00 7.2 C 90 % 5.67 C
3806 06-03-2019 05:05:00 7.2 C 90 % 5.67 C
3807 06-03-2019 05:10:00 7.3 C 90 % 5.77 C
3808 06-03-2019 05:15:00 7.3 C 89 % 5.61 C
3809 06-03-2019 05:20:00 7.3 C 89 % 5.61 C
3810 06-03-2019 05:25:00 7.3 C 89 % 5.61 C
3811 06-03-2019 05:30:00 7.2 C 89 % 5.51 C
3812 06-03-2019 05:35:00 7.2 C 89 % 5.51 C
3813 06-03-2019 05:40:00 7.1 C 89 % 5.41 C
3814 06-03-2019 05:45:00 7.1 C 89 % 5.41 C
3815 06-03-2019 05:50:00 7 C 89 % 5.31 C
3816 06-03-2019 05:55:00 6.9 C 89 % 5.22 C
3817 06-03-2019 06:00:00 6.8 C 89 % 5.12 C
3818 06-03-2019 06:05:00 6.8 C 90 % 5.28 C
3819 06-03-2019 06:10:00 6.8 C 90 % 5.28 C
3820 06-03-2019 06:15:00 6.8 C 90 % 5.28 C
3821 06-03-2019 06:20:00 6.7 C 89 % 5.02 C
3822 06-03-2019 06:25:00 6.6 C 89 % 4.92 C
3823 06-03-2019 06:30:00 6.4 C 89 % 4.72 C
3824 06-03-2019 06:35:00 6.2 C 89 % 4.53 C
3825 06-03-2019 06:40:00 6 C 89 % 4.33 C
Sensor: Nr:Datum:Temp:Feuchte:Taupunkt:
Aussen-T/F 3826 06-03-2019 06:45:00 5.9 C 90 % 4.39 C
3827 06-03-2019 06:50:00 5.9 C 91 % 4.55 C
3828 06-03-2019 06:55:00 6 C 91 % 4.65 C
3829 06-03-2019 07:00:00 5.9 C 90 % 4.39 C
3830 06-03-2019 07:05:00 5.8 C 90 % 4.29 C
3831 06-03-2019 07:10:00 5.6 C 90 % 4.09 C
3832 06-03-2019 07:15:00 5.4 C 90 % 3.89 C
3833 06-03-2019 07:20:00 5.4 C 91 % 4.05 C
3834 06-03-2019 07:25:00 5.3 C 91 % 3.95 C
3835 06-03-2019 07:30:00 5.3 C 92 % 4.11 C
3836 06-03-2019 07:35:00 5.3 C 92 % 4.11 C
3837 06-03-2019 07:40:00 5.3 C 92 % 4.11 C
3838 06-03-2019 07:45:00 5.3 C 92 % 4.11 C
3839 06-03-2019 07:50:00 5.3 C 92 % 4.11 C
3840 06-03-2019 07:55:00 5.4 C 93 % 4.36 C
3841 06-03-2019 08:00:00 5.4 C 93 % 4.36 C
3842 06-03-2019 08:05:00 5.6 C 93 % 4.56 C
3843 06-03-2019 08:10:00 5.8 C 93 % 4.76 C
3844 06-03-2019 08:15:00 5.9 C 93 % 4.86 C
3845 06-03-2019 08:20:00 6.1 C 93 % 5.06 C
3846 06-03-2019 08:25:00 6.3 C 92 % 5.1 C
3847 06-03-2019 08:30:00 6.5 C 91 % 5.14 C
3848 06-03-2019 08:35:00 6.7 C 91 % 5.34 C
3849 06-03-2019 08:40:00 6.9 C 90 % 5.38 C
3850 06-03-2019 08:45:00 7.2 C 88 % 5.35 C
Sensor: Nr:Datum:Temp:Feuchte:Taupunkt:
Aussen-T/F 3851 06-03-2019 08:50:00 7.3 C 88 % 5.45 C
3852 06-03-2019 08:55:00 7.5 C 87 % 5.48 C
3853 06-03-2019 09:00:00 7.6 C 86 % 5.41 C
3854 06-03-2019 09:05:00 7.7 C 86 % 5.51 C
3855 06-03-2019 09:10:00 7.8 C 86 % 5.61 C
3856 06-03-2019 09:15:00 7.9 C 85 % 5.54 C
3857 06-03-2019 09:20:00 8 C 85 % 5.64 C
3858 06-03-2019 09:25:00 8.1 C 85 % 5.73 C
3859 06-03-2019 09:30:00 8.2 C 84 % 5.66 C
3860 06-03-2019 09:35:00 8.3 C 84 % 5.76 C
3861 06-03-2019 09:40:00 8.4 C 83 % 5.69 C
3862 06-03-2019 09:45:00 8.5 C 83 % 5.78 C
3863 06-03-2019 09:50:00 8.6 C 83 % 5.88 C
3864 06-03-2019 09:55:00 8.8 C 82 % 5.9 C
3865 06-03-2019 10:00:00 8.9 C 82 % 6 C
3866 06-03-2019 10:05:00 9.2 C 81 % 6.11 C
3867 06-03-2019 10:10:00 9.3 C 80 % 6.03 C
3868 06-03-2019 10:15:00 9.6 C 79 % 6.14 C
3869 06-03-2019 10:20:00 9.7 C 78 % 6.06 C
3870 06-03-2019 10:25:00 9.9 C 77 % 6.06 C
3871 06-03-2019 10:30:00 10.2 C 76 % 6.16 C
3872 06-03-2019 10:35:00 10.4 C 73 % 5.78 C
3873 06-03-2019 10:40:00 10.6 C 73 % 5.97 C
3874 06-03-2019 10:45:00 10.7 C 73 % 6.07 C
3875 06-03-2019 10:50:00 10.8 C 72 % 5.96 C
Sensor: Nr:Datum:Temp:Feuchte:Taupunkt:
Aussen-T/F 3876 06-03-2019 10:55:00 10.8 C 72 % 5.96 C
3877 06-03-2019 11:00:00 10.9 C 71 % 5.86 C
3878 06-03-2019 11:05:00 11.1 C 70 % 5.84 C
3879 06-03-2019 11:10:00 11.3 C 69 % 5.83 C
3880 06-03-2019 11:15:00 11.6 C 68 % 5.9 C
3881 06-03-2019 11:20:00 11.8 C 67 % 5.88 C
3882 06-03-2019 11:25:00 12.1 C 66 % 5.95 C
3883 06-03-2019 11:30:00 12.4 C 65 % 6.01 C
3884 06-03-2019 11:35:00 12.7 C 64 % 6.07 C
3885 06-03-2019 11:40:00 13 C 62 % 5.9 C
3886 06-03-2019 11:45:00 13.3 C 61 % 5.95 C
3887 06-03-2019 11:50:00 13.5 C 62 % 6.37 C
3888 06-03-2019 11:55:00 13.6 C 60 % 5.99 C
3889 06-03-2019 12:00:00 13.6 C 59 % 5.75 C
3890 06-03-2019 12:05:00 13.5 C 58 % 5.